LiveATC.Net - Listen to live air traffic control over the Internet!

Find LiveATC Audio Streams


Airport/ARTCC Code

Frequency Search
(e.g., 124.400, 128.75)
Site-wide search
 


Browse LiveATC Feeds
Top 50 LiveATC Feeds
LiveATC Feed Map
Bad Weather Areas

LiveATC FAQ
Offer LiveATC feed
Contact LiveATC.net
Press Inquiries

LiveATC on iPhone
LiveATC on Android

Windows Phone
Windows 8/10

LiveATC Mobile
(Mobile browser)

ATC Audio Archives
Interesting Recordings

LiveATC Forums

Home Page
About LiveATC.net
Make a Donation
Terms of Use
Privacy Policy

Canadian Air Freqs

AIRMETs/SIGMETs

FAA Airport Status
Nat'l Airspace Status
Arrival Demand Charts


Server Software By:
Icecast.org
Liquidsoap

Select an area of interest:
U.S. Feeds: Class B Airports | Class C Airports | Class D/Other Airports | ARTCC (Centers)
International Feeds: Canada | Europe | Oceania | Asia | South America | North/Central America | Africa
Misc Feeds: HF Feeds
Search by ICAO/IATA airport code:   (e.g., kbos, kjfk, lax, eham, etc.)


Currently Available Live Feeds: 2338
Status Updated: Wed May 22 2019 23:57:01 UTC


NOTICE

Unauthorized use prohibited. See LiveATC.net Terms of Service

International Airport Feeds

 

HF CWP1/2
Cairns, Queensland, Australia

Feed Status: DOWN
Offline since: 2019-05-15 04:32:02 UTC

CWP: 11.384
CWP: 8.903
CWP: 4.666
CWP/SP: 13.261
CWP/SP: 17.904
CWP/SP: 21.985

Notes:
HF CWP1/2 (Central West Pacific) Japan to Honolulu and Australia to New Zealand

Frequencies Monitored:
3467, 4666, 5643, 5655, 6556, 8867, 8879, 8903, 11384, 13261, 13300, 13306, 17904, 21985

Stations:
San Francisco, Tokyo, Manila, Singapore, Brisbane, Auckland, Nadi and Tahiti.

Frequency Schedule: hfcwp.yolasite.com

EFKK Tower (Archives)
Kronoby, Finland

Feed Status: UP
Listen in your browser - HTML5 player(in browser, HTML5)
Click here to listen with your own player(launches your MP3 player)

EFKK 222320Z AUTO 03009KT 360V070 9999 -SHRA NSC 08/05 Q1014

EFKK Flight Activity (Flightaware)

Listeners: 1 out of 718 total

Kronoby Tower: 120.100

EFKU Tower/Approach (Archives)
Siilinjarvi, Finland

Feed Status: UP
Listen in your browser - HTML5 player(in browser, HTML5)
Click here to listen with your own player(launches your MP3 player)

EFKU 222320Z AUTO 05011KT 9999 OVC014 07/04 Q1013

EFKU Flight Activity (Flightaware)

Listeners: 0 out of 718 total

Kuopio Approach: 130.600
Kuopio Tower: 120.150

Dutch Mil Radar (Archives)
Amsterdam, Netherlands

Feed Status: UP
Listen in your browser - HTML5 player(in browser, HTML5)
Click here to listen with your own player(launches your MP3 player)

EHLE Flight Activity (Flightaware)

Listeners: 0 out of 718 total

Dutch Mil Flight Info: 264.325
Dutch Mil Radar: 128.355
Dutch Mil Radar: 132.350

EHAA Radar ARTIP (Archives)
Amsterdam, Netherlands

Feed Status: UP
Listen in your browser - HTML5 player(in browser, HTML5)
Click here to listen with your own player(launches your MP3 player)

EHAM 222325Z VRB02KT CAVOK 09/07 Q1019 NOSIG

EHAM Flight Activity (Flightaware)

Listeners: 0 out of 718 total

EHAA Radar Sector 1 ARTIP: 120.550

EHAA Radar East Inbound
Amsterdam, Netherlands

Feed Status: DOWN
Offline since: 2019-03-13 16:57:02 UTC

EHAM 222325Z VRB02KT CAVOK 09/07 Q1019 NOSIG

EHAA Radar Sector 2 East Inbound: 128.575

EHAA Radar East Outbound (Archives)
Amsterdam, Netherlands

Feed Status: UP
Listen in your browser - HTML5 player(in browser, HTML5)
Click here to listen with your own player(launches your MP3 player)

EHAM 222325Z VRB02KT CAVOK 09/07 Q1019 NOSIG

EHAM Flight Activity (Flightaware)

Listeners: 1 out of 718 total

EHAA Radar Sector 2 East Outbound: 124.875

EHAA Radar North
Amsterdam, Netherlands

Feed Status: DOWN
Offline since: 2019-03-13 16:59:02 UTC

EHAM 222325Z VRB02KT CAVOK 09/07 Q1019 NOSIG

EHAA Radar Sector 1 North: 134.375

EHAA Radar Northwest (Archives)
Amsterdam, Netherlands

Feed Status: UP
Listen in your browser - HTML5 player(in browser, HTML5)
Click here to listen with your own player(launches your MP3 player)

EHAM 222325Z VRB02KT CAVOK 09/07 Q1019 NOSIG

EHAM Flight Activity (Flightaware)

Listeners: 0 out of 718 total

EHAA Radar Sector 5 Northwest: 123.7000

EHAA Radar RIVER
Amsterdam, Netherlands

Feed Status: DOWN
Offline since: 2019-03-13 16:57:02 UTC

EHAM 222325Z VRB02KT CAVOK 09/07 Q1019 NOSIG

EHAA Radar Sector 3 RIVER: 130.950

EHAA Radar South (Archives)
Amsterdam, Netherlands

Feed Status: UP
Listen in your browser - HTML5 player(in browser, HTML5)
Click here to listen with your own player(launches your MP3 player)

EHAM 222325Z VRB02KT CAVOK 09/07 Q1019 NOSIG

EHAM Flight Activity (Flightaware)

Listeners: 0 out of 718 total

EHAA Radar Sector 3 South: 123.850

EHAA Radar South (Backup) (Archives)
Amsterdam, Netherlands

Feed Status: UP
Listen in your browser - HTML5 player(in browser, HTML5)
Click here to listen with your own player(launches your MP3 player)

EHAM 222325Z VRB02KT CAVOK 09/07 Q1019 NOSIG

EHAM Flight Activity (Flightaware)

Listeners: 0 out of 718 total

EHAA Radar Sector 3 South Backup : 127.775

EHAA Radar Southwest (Archives)
Amsterdam, Netherlands

Feed Status: UP
Listen in your browser - HTML5 player(in browser, HTML5)
Click here to listen with your own player(launches your MP3 player)

EHAM 222325Z VRB02KT CAVOK 09/07 Q1019 NOSIG

EHAM Flight Activity (Flightaware)

Listeners: 0 out of 718 total

EHAA Radar Sector 4 Southwest: 125.750

EHAA Radar SUGOL (Archives)
Amsterdam, Netherlands

Feed Status: UP
Listen in your browser - HTML5 player(in browser, HTML5)
Click here to listen with your own player(launches your MP3 player)

EHAM 222325Z VRB02KT CAVOK 09/07 Q1019 NOSIG

EHAM Flight Activity (Flightaware)

Listeners: 0 out of 718 total

EHAA Radar Sector 5 SUGOL: 118.800

EHAM Airside Ops Mgr (AOM)
Amsterdam, Netherlands

Feed Status: DOWN
Offline since: 2019-03-13 17:05:02 UTC

EHAM 222325Z VRB02KT CAVOK 09/07 Q1019 NOSIG

Schiphol Airside Operations Manager: 130.475

EHAM App/Dep Backup (Archives)
Amsterdam, Netherlands

Feed Status: UP
Listen in your browser - HTML5 player(in browser, HTML5)
Click here to listen with your own player(launches your MP3 player)

EHAM 222325Z VRB02KT CAVOK 09/07 Q1019 NOSIG

EHAM Flight Activity (Flightaware)

Listeners: 0 out of 718 total

Schiphol App/Dep Backup: 118.075

EHAM App/Dep TMA East (Archives)
Amsterdam, Netherlands

Feed Status: UP
Listen in your browser - HTML5 player(in browser, HTML5)
Click here to listen with your own player(launches your MP3 player)

EHAM 222325Z VRB02KT CAVOK 09/07 Q1019 NOSIG

EHAM Flight Activity (Flightaware)

Listeners: 0 out of 718 total

Amsterdam Approach/Departure TMA East: 119.055

EHAM App/Dep TMA West (Archives)
Amsterdam, Netherlands

Feed Status: UP
Listen in your browser - HTML5 player(in browser, HTML5)
Click here to listen with your own player(launches your MP3 player)

EHAM 222325Z VRB02KT CAVOK 09/07 Q1019 NOSIG

EHAM Flight Activity (Flightaware)

Listeners: 1 out of 718 total

Amsterdam Approach/Departure TMA West: 121.200

EHAM Apron (North) (Archives)
Amsterdam, Netherlands

Feed Status: UP
Listen in your browser - HTML5 player(in browser, HTML5)
Click here to listen with your own player(launches your MP3 player)

EHAM 222325Z VRB02KT CAVOK 09/07 Q1019 NOSIG

EHAM Flight Activity (Flightaware)

Listeners: 0 out of 718 total

Schiphol Apron (North): 121.880

EHAM Apron (South) (Archives)
Amsterdam, Netherlands

Feed Status: UP
Listen in your browser - HTML5 player(in browser, HTML5)
Click here to listen with your own player(launches your MP3 player)

EHAM 222325Z VRB02KT CAVOK 09/07 Q1019 NOSIG

EHAM Flight Activity (Flightaware)

Listeners: 0 out of 718 total

Schiphol Apron (South): 121.780

EHAM Arrival (Primary) (Archives)
Amsterdam, Netherlands

Feed Status: UP
Listen in your browser - HTML5 player(in browser, HTML5)
Click here to listen with your own player(launches your MP3 player)

EHAM 222325Z VRB02KT CAVOK 09/07 Q1019 NOSIG

EHAM Flight Activity (Flightaware)

Listeners: 0 out of 718 total

Amsterdam Arrival : 118.400

EHAM Arrival (Secondary)
Amsterdam, Netherlands

Feed Status: DOWN
Offline since: 2019-03-13 16:59:02 UTC

EHAM 222325Z VRB02KT CAVOK 09/07 Q1019 NOSIG

Amsterdam Arrival (Secondary): 131.150

EHAM Arrival (Secondary/Backup)
Amsterdam, Netherlands

Feed Status: DOWN
Offline since: 2019-03-13 16:59:02 UTC

EHAM 222325Z VRB02KT CAVOK 09/07 Q1019 NOSIG

Amsterdam Arrival (Secondary Backup): 131.275

EHAM Arrival Backup/Discrete (Archives)
Amsterdam, Netherlands

Feed Status: UP
Listen in your browser - HTML5 player(in browser, HTML5)
Click here to listen with your own player(launches your MP3 player)

EHAM 222325Z VRB02KT CAVOK 09/07 Q1019 NOSIG

EHAM Flight Activity (Flightaware)

Listeners: 0 out of 718 total

Schiphol Arrival Backup: 126.675

EHAM Clearance Delivery (Archives)
Amsterdam, Netherlands

Feed Status: UP
Listen in your browser - HTML5 player(in browser, HTML5)
Click here to listen with your own player(launches your MP3 player)

EHAM 222325Z VRB02KT CAVOK 09/07 Q1019 NOSIG

EHAM Flight Activity (Flightaware)

Listeners: 0 out of 718 total

Schiphol Clearance Delivery: 121.980

EHAM Ground (Backup) (Archives)
Amsterdam, Netherlands

Feed Status: UP
Listen in your browser - HTML5 player(in browser, HTML5)
Click here to listen with your own player(launches your MP3 player)

EHAM 222325Z VRB02KT CAVOK 09/07 Q1019 NOSIG

EHAM Flight Activity (Flightaware)

Listeners: 0 out of 718 total

Schiphol Ground (Backup): 122.425

EHAM Ground (North) (Archives)
Amsterdam, Netherlands

Feed Status: UP
Listen in your browser - HTML5 player(in browser, HTML5)
Click here to listen with your own player(launches your MP3 player)

EHAM 222325Z VRB02KT CAVOK 09/07 Q1019 NOSIG

EHAM Flight Activity (Flightaware)

Listeners: 0 out of 718 total

Schiphol Ground (North): 121.805

EHAM Ground (South) (Archives)
Amsterdam, Netherlands

Feed Status: UP
Listen in your browser - HTML5 player(in browser, HTML5)
Click here to listen with your own player(launches your MP3 player)

EHAM 222325Z VRB02KT CAVOK 09/07 Q1019 NOSIG

EHAM Flight Activity (Flightaware)

Listeners: 0 out of 718 total

Schiphol Ground (South): 121.705

EHAM Ground (West) (Archives)
Amsterdam, Netherlands

Feed Status: UP
Listen in your browser - HTML5 player(in browser, HTML5)
Click here to listen with your own player(launches your MP3 player)

EHAM 222325Z VRB02KT CAVOK 09/07 Q1019 NOSIG

EHAM Flight Activity (Flightaware)

Listeners: 0 out of 718 total

Schiphol Ground (West): 121.560

EHAM Info North Sea (North) (Archives)
Amsterdam, Netherlands

Feed Status: UP
Listen in your browser - HTML5 player(in browser, HTML5)
Click here to listen with your own player(launches your MP3 player)

EHAM 222325Z VRB02KT CAVOK 09/07 Q1019 NOSIG

EHAM Flight Activity (Flightaware)

Listeners: 0 out of 718 total

Amsterdam Info North Sea (North): 119.175

EHAM Info North Sea (Over Land) (Archives)
Amsterdam, Netherlands

Feed Status: UP
Listen in your browser - HTML5 player(in browser, HTML5)
Click here to listen with your own player(launches your MP3 player)

EHAM 222325Z VRB02KT CAVOK 09/07 Q1019 NOSIG

EHAM Flight Activity (Flightaware)

Listeners: 0 out of 718 total

Amsterdam Info North Sea (Over Land): 124.300

EHAM Info North Sea (South)
Amsterdam, Netherlands

Feed Status: DOWN
Offline since: 2019-03-13 16:57:02 UTC

EHAM 222325Z VRB02KT CAVOK 09/07 Q1019 NOSIG

Amsterdam Info North Sea (South): 136.650

EHAM Ops (Archives)
Amsterdam, Netherlands

Feed Status: UP
Listen in your browser - HTML5 player(in browser, HTML5)
Click here to listen with your own player(launches your MP3 player)

EHAM 222325Z VRB02KT CAVOK 09/07 Q1019 NOSIG

EHAM Flight Activity (Flightaware)

Listeners: 0 out of 718 total

Schiphol Ops 1: 465.770
Schiphol Ops 2: 466.470
Schiphol Runway Ops: 447.175

EHAM Schiphol Outbound Planner (Archives)
Amsterdam, Netherlands

Feed Status: UP
Listen in your browser - HTML5 player(in browser, HTML5)
Click here to listen with your own player(launches your MP3 player)

EHAM 222325Z VRB02KT CAVOK 09/07 Q1019 NOSIG

EHAM Flight Activity (Flightaware)

Listeners: 0 out of 718 total

Schiphol Outbound Planner: 121.655

EHAM Tow Traffic
Amsterdam, Netherlands

Feed Status: DOWN
Offline since: 2019-03-13 17:03:02 UTC

EHAM 222325Z VRB02KT CAVOK 09/07 Q1019 NOSIG

Schiphol Tow Traffic: 134.875

EHAM Tower (06/24) (Archives)
Amsterdam, Netherlands

Feed Status: UP
Listen in your browser - HTML5 player(in browser, HTML5)
Click here to listen with your own player(launches your MP3 player)

EHAM 222325Z VRB02KT CAVOK 09/07 Q1019 NOSIG

EHAM Flight Activity (Flightaware)

Listeners: 0 out of 718 total

Schiphol Tower Main 06/24: 118.950

EHAM Tower (18C/36C-27/09) (Archives)
Amsterdam, Netherlands

Feed Status: UP
Listen in your browser - HTML5 player(in browser, HTML5)
Click here to listen with your own player(launches your MP3 player)

EHAM 222325Z VRB02KT CAVOK 09/07 Q1019 NOSIG

EHAM Flight Activity (Flightaware)

Listeners: 1 out of 718 total

Schiphol Tower Main 18C/36C - 27/09: 118.100

EHAM Tower (18L/36R-22/04) (Archives)
Amsterdam, Netherlands

Feed Status: UP
Listen in your browser - HTML5 player(in browser, HTML5)
Click here to listen with your own player(launches your MP3 player)

EHAM 222325Z VRB02KT CAVOK 09/07 Q1019 NOSIG

EHAM Flight Activity (Flightaware)

Listeners: 0 out of 718 total

Schiphol Tower Main 18L/36R - 22/04: 119.225

EHAM Tower Backup (Archives)
Amsterdam, Netherlands

Feed Status: UP
Listen in your browser - HTML5 player(in browser, HTML5)
Click here to listen with your own player(launches your MP3 player)

EHAM 222325Z VRB02KT CAVOK 09/07 Q1019 NOSIG

EHAM Flight Activity (Flightaware)

Listeners: 0 out of 718 total

Schiphol Tower Backup: 119.905

EHAM Tower West (18R/36L) (Archives)
Amsterdam, Netherlands

Feed Status: UP
Listen in your browser - HTML5 player(in browser, HTML5)
Click here to listen with your own player(launches your MP3 player)

EHAM 222325Z VRB02KT CAVOK 09/07 Q1019 NOSIG

EHAM Flight Activity (Flightaware)

Listeners: 0 out of 718 total

Schiphol Tower West 18R/36L: 118.280

EHBK ATIS (Archives)
Beek, Netherlands

Feed Status: UP
Listen in your browser - HTML5 player(in browser, HTML5)
Click here to listen with your own player(launches your MP3 player)

EHBK 222325Z AUTO 14002KT 9999 NSC 10/05 Q1020

EHBK Flight Activity (Flightaware)

Listeners: 0 out of 718 total

Beek ATIS: 124.575

EHBK Gnd/Twr/App (Archives)
Beek, Netherlands

Feed Status: UP
Listen in your browser - HTML5 player(in browser, HTML5)
Click here to listen with your own player(launches your MP3 player)

EHBK 222325Z AUTO 14002KT 9999 NSC 10/05 Q1020

EHBK Flight Activity (Flightaware)

Listeners: 0 out of 718 total

Beek Approach: 120.200
Beek Approach: 123.975
Beek Ground: 121.825
Beek Tower: 119.475
Beek Tower: 119.700

MUAC/Eurocontrol Delta High (Archives)
Beek, Netherlands

Feed Status: UP
Listen in your browser - HTML5 player(in browser, HTML5)
Click here to listen with your own player(launches your MP3 player)

EHBK 222325Z AUTO 14002KT 9999 NSC 10/05 Q1020

EHBK Flight Activity (Flightaware)

Listeners: 0 out of 718 total

MUAC Delta High Sector: 132.085

MUAC/Eurocontrol Koksy (Archives)
Beek, Netherlands

Feed Status: UP
Listen in your browser - HTML5 player(in browser, HTML5)
Click here to listen with your own player(launches your MP3 player)

EHBK 222325Z AUTO 14002KT 9999 NSC 10/05 Q1020

EHBK Flight Activity (Flightaware)

Listeners: 0 out of 718 total

MUAC Koksy Sector: 132.205

MUAC/Eurocontrol Koksy High (Archives)
Beek, Netherlands

Feed Status: UP
Listen in your browser - HTML5 player(in browser, HTML5)
Click here to listen with your own player(launches your MP3 player)

EHBK 222325Z AUTO 14002KT 9999 NSC 10/05 Q1020

EHBK Flight Activity (Flightaware)

Listeners: 0 out of 718 total

MUAC Koksy High Sector: 132.755

MUAC/Eurocontrol Lux High (Archives)
Beek, Netherlands

Feed Status: UP
Listen in your browser - HTML5 player(in browser, HTML5)
Click here to listen with your own player(launches your MP3 player)

EHBK 222325Z AUTO 14002KT 9999 NSC 10/05 Q1020

EHBK Flight Activity (Flightaware)

Listeners: 0 out of 718 total

MUAC Lux High Sector: 132.315

MUAC/Eurocontrol Lux Low (Archives)
Beek, Netherlands

Feed Status: UP
Listen in your browser - HTML5 player(in browser, HTML5)
Click here to listen with your own player(launches your MP3 player)

EHBK 222325Z AUTO 14002KT 9999 NSC 10/05 Q1020

EHBK Flight Activity (Flightaware)

Listeners: 0 out of 718 total

MUAC Lux Low Sector: 133.355

MUAC/Eurocontrol Olno Low (Archives)
Beek, Netherlands

Feed Status: UP
Listen in your browser - HTML5 player(in browser, HTML5)
Click here to listen with your own player(launches your MP3 player)

EHBK 222325Z AUTO 14002KT 9999 NSC 10/05 Q1020

EHBK Flight Activity (Flightaware)

Listeners: 0 out of 718 total

MUAC Olno Low Sector: 132.855

MUAC/Eurocontrol Ruhr (Archives)
Beek, Netherlands

Feed Status: UP
Listen in your browser - HTML5 player(in browser, HTML5)
Click here to listen with your own player(launches your MP3 player)

EHBK 222325Z AUTO 14002KT 9999 NSC 10/05 Q1020

EHBK Flight Activity (Flightaware)

Listeners: 0 out of 718 total

MUAC Ruhr Sector: 132.515

EHEH Approach #1 (Archives)
Eindhoven, Netherlands

Feed Status: UP
Listen in your browser - HTML5 player(in browser, HTML5)
Click here to listen with your own player(launches your MP3 player)

EHEH 222325Z AUTO 18001KT 9999 OVC340 08/05 Q1020 BLU

EHEH Flight Activity (Flightaware)

Listeners: 0 out of 718 total

Eindhoven Approach: 132.525
Eindhoven Arrival/Director: 124.525
Emergency/Guard: 121.500

EHEH Approach #2 (Archives)
Eindhoven, Netherlands

Feed Status: UP
Listen in your browser - HTML5 player(in browser, HTML5)
Click here to listen with your own player(launches your MP3 player)

EHEH 222325Z AUTO 18001KT 9999 OVC340 08/05 Q1020 BLU

EHEH Flight Activity (Flightaware)

Listeners: 0 out of 718 total

Eindhoven Approach/Arrival: 124.530
Eindhoven Approach/Arrival: 132.530
Eindhoven Approach/Arrival: 278.050

EHEH Ground (Archives)
Eindhoven, Netherlands

Feed Status: UP
Listen in your browser - HTML5 player(in browser, HTML5)
Click here to listen with your own player(launches your MP3 player)

EHEH 222325Z AUTO 18001KT 9999 OVC340 08/05 Q1020 BLU

EHEH Flight Activity (Flightaware)

Listeners: 0 out of 718 total

Eindhoven Ground: 121.930
Eindhoven Ground: 369.250

EHEH Tower #1 (Archives)
Eindhoven, Netherlands

Feed Status: UP
Listen in your browser - HTML5 player(in browser, HTML5)
Click here to listen with your own player(launches your MP3 player)

EHEH 222325Z AUTO 18001KT 9999 OVC340 08/05 Q1020 BLU

EHEH Flight Activity (Flightaware)

Listeners: 0 out of 718 total

Budel Tower: 122.150
Eindhoven Tower: 131.005
Emergency/Guard: 121.500
Generic Tower: 122.100
Volkel Tower: 136.075

EHEH Tower #2 (Archives)
Eindhoven, Netherlands

Feed Status: UP
Listen in your browser - HTML5 player(in browser, HTML5)
Click here to listen with your own player(launches your MP3 player)

EHEH 222325Z AUTO 18001KT 9999 OVC340 08/05 Q1020 BLU

EHEH Flight Activity (Flightaware)

Listeners: 0 out of 718 total

Eindhoven Tower: 122.100
Eindhoven Tower: 131.005
Eindhoven Tower: 281.150

EHGG Approach (Archives)
Groningen, Netherlands

Feed Status: UP
Listen in your browser - HTML5 player(in browser, HTML5)
Click here to listen with your own player(launches your MP3 player)

EHGG 222325Z AUTO 18002KT 9999 NSC 06/05 Q1019

EHGG Flight Activity (Flightaware)

Listeners: 0 out of 718 total

Eelde Approach: 120.305

EHGG ATIS
Groningen, Netherlands

Feed Status: DOWN
Offline since: 2019-03-05 10:16:03 UTC

EHGG 222325Z AUTO 18002KT 9999 NSC 06/05 Q1019

Groningen ATIS: 133.555

EHGG Ground (Archives)
Groningen, Netherlands

Feed Status: UP
Listen in your browser - HTML5 player(in browser, HTML5)
Click here to listen with your own player(launches your MP3 player)

EHGG 222325Z AUTO 18002KT 9999 NSC 06/05 Q1019

EHGG Flight Activity (Flightaware)

Listeners: 0 out of 718 total

Eelde Clearance Delivery/Ground: 121.705

EHGG Guard/Emergency (Archives)
Groningen, Netherlands

Feed Status: UP
Listen in your browser - HTML5 player(in browser, HTML5)
Click here to listen with your own player(launches your MP3 player)

EHGG 222325Z AUTO 18002KT 9999 NSC 06/05 Q1019

EHGG Flight Activity (Flightaware)

Listeners: 0 out of 718 total

Emergency/Guard: 121.500

EHGG Tower (Archives)
Groningen, Netherlands

Feed Status: UP
Listen in your browser - HTML5 player(in browser, HTML5)
Click here to listen with your own player(launches your MP3 player)

EHGG 222325Z AUTO 18002KT 9999 NSC 06/05 Q1019

EHGG Flight Activity (Flightaware)

Listeners: 0 out of 718 total

Eelde Tower: 118.705

MUAC/Eurocontrol (EHGG Area) (Archives)
Groningen, Netherlands

Feed Status: UP
Listen in your browser - HTML5 player(in browser, HTML5)
Click here to listen with your own player(launches your MP3 player)

EHGG 222325Z AUTO 18002KT 9999 NSC 06/05 Q1019

EHGG Flight Activity (Flightaware)

Listeners: 0 out of 718 total

MUAC Holstein High Sector: 132.775
MUAC Holstein Sector: 120.9333
MUAC Javer High Sector: 134.700
MUAC Jever Sector: 136.4666

EHGR Twr/TMA/App (Archives)
Breda, Netherlands

Feed Status: UP
Listen in your browser - HTML5 player(in browser, HTML5)
Click here to listen with your own player(launches your MP3 player)

EHGR 222325Z AUTO 18001KT 9999 OVC340 07/04 Q1019 BLU

EHGR Flight Activity (Flightaware)

Listeners: 0 out of 718 total

Gilze Rijen Ground: 121.680
Gilze Rijen Tower: 125.330

EHGR Mode-S Tracking
EHEH Mode-S Tracking

EHHV CTAF (Archives)
Hilversum, Netherlands

Feed Status: UP
Listen in your browser - HTML5 player(in browser, HTML5)
Click here to listen with your own player(launches your MP3 player)

EHHV Flight Activity (Flightaware)

Listeners: 0 out of 718 total

Hilversum Radio: 131.025

Dutch Mil Radar (Archives)
Lelystad, Netherlands

Feed Status: UP
Listen in your browser - HTML5 player(in browser, HTML5)
Click here to listen with your own player(launches your MP3 player)

EHLE Flight Activity (Flightaware)

Listeners: 0 out of 718 total

Dutch Mil Flight Info: 264.325
Dutch Mil Radar: 128.355
Dutch Mil Radar: 132.350

EHLE Air to Air (Archives)
Lelystad, Netherlands

Feed Status: UP
Listen in your browser - HTML5 player(in browser, HTML5)
Click here to listen with your own player(launches your MP3 player)

EHLE Flight Activity (Flightaware)

Listeners: 0 out of 718 total

Lelystad Air to Air: 123.450

EHLE Fokker Four (Archives)
Lelystad, Netherlands

Feed Status: UP
Listen in your browser - HTML5 player(in browser, HTML5)
Click here to listen with your own player(launches your MP3 player)

EHLE Flight Activity (Flightaware)

Listeners: 0 out of 718 total

Lelystad Fokker Four: 123.525

EHLE Microlight Aircraft (Archives)
Lelystad, Netherlands

Feed Status: UP
Listen in your browser - HTML5 player(in browser, HTML5)
Click here to listen with your own player(launches your MP3 player)

EHLE Flight Activity (Flightaware)

Listeners: 0 out of 718 total

Lelystad Microlight Aircraft: 123.825

EHLE Radio (Archives)
Lelystad, Netherlands

Feed Status: UP
Listen in your browser - HTML5 player(in browser, HTML5)
Click here to listen with your own player(launches your MP3 player)

EHLE Flight Activity (Flightaware)

Listeners: 0 out of 718 total

Lelystad Radio: 123.680

EHMC/EHML Military/Radar (Archives)
Nieuw-Milligen, Netherlands

Feed Status: UP
Listen in your browser - HTML5 player(in browser, HTML5)
Click here to listen with your own player(launches your MP3 player)

EHMC Flight Activity (Flightaware)

Listeners: 0 out of 718 total

AMCC: 234.000
Belga Radar: 129.325
Command Post: 313.550
Dutch Military Radar: 120.825
Dutch Military Radar: 125.925
Dutch Military Radar: 128.350
GCI: 363.100
Lippe Radar: 131.075
London Mil: 135.275
Meteo: 284.425

Military Mode-S Logs
REACH Flights Europe Mode-S Logs
NOTE: Due to receiver distance only aircraft can be heard

EHMC/EHML Military/Radar (Archives)
Nieuw-Milligen, Netherlands

Feed Status: UP
Listen in your browser - HTML5 player(in browser, HTML5)
Click here to listen with your own player(launches your MP3 player)

EHMC Flight Activity (Flightaware)

Listeners: 0 out of 718 total

AMCC: 234.000
Belga Radar: 129.325
Command Post: 313.550
Dutch Military Radar: 120.825
Dutch Military Radar: 125.925
Dutch Military Radar: 128.350
GCI: 363.100
Lippe Radar: 131.075
London Mil: 135.275
Meteo: 284.425

Military Mode-S Logs
REACH Flights Europe Mode-S Logs
NOTE: Due to receiver distance only aircraft can be heard

EHMM CTAF (Archives)
Middenmeer, Netherlands

Feed Status: UP
Listen in your browser - HTML5 player(in browser, HTML5)
Click here to listen with your own player(launches your MP3 player)

EHMM Flight Activity (Flightaware)

Listeners: 0 out of 718 total

Middenmeer CTAF: 123.425

EHRD Approach (Archives)
Rotterdam, Netherlands

Feed Status: UP
Listen in your browser - HTML5 player(in browser, HTML5)
Click here to listen with your own player(launches your MP3 player)

EHRD 222325Z AUTO 16004KT 9999 NSC 10/06 Q1019 NOSIG

EHRD Flight Activity (Flightaware)

Listeners: 0 out of 718 total

Rotterdam Approach: 124.535
Rotterdam Approach: 281.050

EHRD Clearance Delivery (Archives)
Rotterdam, Netherlands

Feed Status: UP
Listen in your browser - HTML5 player(in browser, HTML5)
Click here to listen with your own player(launches your MP3 player)

EHRD 222325Z AUTO 16004KT 9999 NSC 10/06 Q1019 NOSIG

EHRD Flight Activity (Flightaware)

Listeners: 0 out of 718 total

Rotterdam Del/Gnd: 122.180

EHRD Del/Twr (Archives)
Rotterdam, Netherlands

Feed Status: UP
Listen in your browser - HTML5 player(in browser, HTML5)
Click here to listen with your own player(launches your MP3 player)

EHRD 222325Z AUTO 16004KT 9999 NSC 10/06 Q1019 NOSIG

EHRD Flight Activity (Flightaware)

Listeners: 0 out of 718 total

Rotterdam Del/Gnd: 122.180
Rotterdam Tower: 118.205

EHRD Gnd/Twr/App (Archives)
Rotterdam, Netherlands

Feed Status: UP
Listen in your browser - HTML5 player(in browser, HTML5)
Click here to listen with your own player(launches your MP3 player)

EHRD 222325Z AUTO 16004KT 9999 NSC 10/06 Q1019 NOSIG

EHRD Flight Activity (Flightaware)

Listeners: 0 out of 718 total

Adam Info: 124.300
Regional Guard: 119.705
Rotterdam Approach: 127.025
Rotterdam Del/Gnd: 122.180
Rotterdam Tower: 118.205
SAR: 123.100
SAR: 282.800

EHRD Tower (Archives)
Rotterdam, Netherlands

Feed Status: UP
Listen in your browser - HTML5 player(in browser, HTML5)
Click here to listen with your own player(launches your MP3 player)

EHRD 222325Z AUTO 16004KT 9999 NSC 10/06 Q1019 NOSIG

EHRD Flight Activity (Flightaware)

Listeners: 0 out of 718 total

Rotterdam Tower: 118.205
Rotterdam Tower: 362.300

EHRD Twr/App
Rotterdam, Netherlands

Feed Status: DOWN
Offline since: 2019-05-22 23:50:09 UTC

EHRD 222325Z AUTO 16004KT 9999 NSC 10/06 Q1019 NOSIG

Rotterdam Approach: 127.025
Rotterdam Tower: 118.205

EHRD ADS-B Logs

EHTX Gnd/Twr (Archives)
Texel, Netherlands

Feed Status: UP
Listen in your browser - HTML5 player(in browser, HTML5)
Click here to listen with your own player(launches your MP3 player)

EHTX Flight Activity (Flightaware)

Listeners: 0 out of 718 total

Texel Radio (Ground/Tower): 119.300

EHVL CTAF/Range Control (Archives)
Vlieland, Netherlands

Feed Status: UP
Listen in your browser - HTML5 player(in browser, HTML5)
Click here to listen with your own player(launches your MP3 player)

EHVL 222325Z AUTO 20010KT 9999 NCD 10/08 Q1018 BLU

EHVL Flight Activity (Flightaware)

Listeners: 1 out of 718 total

Cornfield VHF (CTAF): 122.100
Range Controller (Primary): 279.000
Range Controller (Secondary): 369.200
Range Controller VHF: 138.075

EICK Approach/Departure (Archives)
Cork, Ireland

Feed Status: UP
Listen in your browser - HTML5 player(in browser, HTML5)
Click here to listen with your own player(launches your MP3 player)

EICK 222300Z 21003KT 9999 FEW015 BKN050 10/09 Q1017 NOSIG

EICK Flight Activity (Flightaware)

Listeners: 0 out of 718 total

Cork Approach: 119.900

EICK Gnd/Twr/App/Dep (Archives)
Cork, Ireland

Feed Status: UP
Listen in your browser - HTML5 player(in browser, HTML5)
Click here to listen with your own player(launches your MP3 player)

EICK 222300Z 21003KT 9999 FEW015 BKN050 10/09 Q1017 NOSIG

EICK Flight Activity (Flightaware)

Listeners: 0 out of 718 total

Cork Approach: 119.900
Cork Ground: 121.850
Cork Tower: 119.300

EICK Ground/Tower (Archives)
Cork, Ireland

Feed Status: UP
Listen in your browser - HTML5 player(in browser, HTML5)
Click here to listen with your own player(launches your MP3 player)

EICK 222300Z 21003KT 9999 FEW015 BKN050 10/09 Q1017 NOSIG

EICK Flight Activity (Flightaware)

Listeners: 0 out of 718 total

Cork Ground: 121.850
Cork Tower: 119.300

EIDW Approach (Archives)
Dublin, Ireland

Feed Status: UP
Listen in your browser - HTML5 player(in browser, HTML5)
Click here to listen with your own player(launches your MP3 player)

EIDW 222300Z VRB01KT 9999 FEW016 BKN050 BKN150 09/07 Q1017 NOSIG

EIDW Flight Activity (Flightaware)

Listeners: 2 out of 718 total

Dublin Approach: 121.100

EIDW Approach (Final) (Archives)
Dublin, Ireland

Feed Status: UP
Listen in your browser - HTML5 player(in browser, HTML5)
Click here to listen with your own player(launches your MP3 player)

EIDW 222300Z VRB01KT 9999 FEW016 BKN050 BKN150 09/07 Q1017 NOSIG

EIDW Flight Activity (Flightaware)

Listeners: 3 out of 718 total

Dublin Approach (Final): 119.925

EIDW Clearance Delivery (Archives)
Dublin, Ireland

Feed Status: UP
Listen in your browser - HTML5 player(in browser, HTML5)
Click here to listen with your own player(launches your MP3 player)

EIDW 222300Z VRB01KT 9999 FEW016 BKN050 BKN150 09/07 Q1017 NOSIG

EIDW Flight Activity (Flightaware)

Listeners: 0 out of 718 total

Dublin Clearance Delivery: 121.875

EIDW Del/Gnd/Twr/App/Center (Archives)
Dublin, Ireland

Feed Status: UP
Listen in your browser - HTML5 player(in browser, HTML5)
Click here to listen with your own player(launches your MP3 player)

EIDW 222300Z VRB01KT 9999 FEW016 BKN050 BKN150 09/07 Q1017 NOSIG

EIDW Flight Activity (Flightaware)

Listeners: 5 out of 718 total

Dublin Approach: 121.100
Dublin Approach (backup): 119.550
Dublin Centre North: 129.175
Dublin Centre South: 126.250
Dublin Clearance Delivery: 121.875
Dublin FIS: 118.500
Dublin Ground: 121.800
Dublin Tower: 118.600

EIDW Ground (Archives)
Dublin, Ireland

Feed Status: UP
Listen in your browser - HTML5 player(in browser, HTML5)
Click here to listen with your own player(launches your MP3 player)

EIDW 222300Z VRB01KT 9999 FEW016 BKN050 BKN150 09/07 Q1017 NOSIG

EIDW Flight Activity (Flightaware)

Listeners: 0 out of 718 total

Dublin Ground: 121.800

EIDW Ground (North) (Archives)
Dublin, Ireland

Feed Status: UP
Listen in your browser - HTML5 player(in browser, HTML5)
Click here to listen with your own player(launches your MP3 player)

EIDW 222300Z VRB01KT 9999 FEW016 BKN050 BKN150 09/07 Q1017 NOSIG

EIDW Flight Activity (Flightaware)

Listeners: 0 out of 718 total

Dublin Ground (North): 118.750

EIDW Ops
Dublin, Ireland

Feed Status: DOWN
Offline since: 2019-03-07 20:54:03 UTC

EIDW 222300Z VRB01KT 9999 FEW016 BKN050 BKN150 09/07 Q1017 NOSIG

Misc:

EIDW Tower (Archives)
Dublin, Ireland

Feed Status: UP
Listen in your browser - HTML5 player(in browser, HTML5)
Click here to listen with your own player(launches your MP3 player)

EIDW 222300Z VRB01KT 9999 FEW016 BKN050 BKN150 09/07 Q1017 NOSIG

EIDW Flight Activity (Flightaware)

Listeners: 2 out of 718 total

Dublin Tower: 118.600

EIKN Gnd/Twr/App (Archives)
Charlestown, Ireland

Feed Status: UP
Listen in your browser - HTML5 player(in browser, HTML5)
Click here to listen with your own player(launches your MP3 player)

EIKN 221930Z 36005KT 9999 FEW025 SCT140 BKN160 12/07 Q1017 NOSIG

EIKN Flight Activity (Flightaware)

Listeners: 0 out of 718 total

Connaught Ground: 121.900
Connaught Tower: 130.700
Shannon Low Level: 119.075

Special Note: Sponsored by CAC

EINN Approach/Departure (Archives)
Shannon, Ireland

Feed Status: UP
Listen in your browser - HTML5 player(in browser, HTML5)
Click here to listen with your own player(launches your MP3 player)

EINN 222300Z 31003KT 9999 FEW025 BKN050 13/08 Q1017 NOSIG

EINN Flight Activity (Flightaware)

Listeners: 0 out of 718 total

Shannon Approach Radar: 121.400
Shannon Low: 124.700

EINN Gnd/Twr/Ops (Archives)
Shannon, Ireland

Feed Status: UP
Listen in your browser - HTML5 player(in browser, HTML5)
Click here to listen with your own player(launches your MP3 player)

EINN 222300Z 31003KT 9999 FEW025 BKN050 13/08 Q1017 NOSIG

EINN Flight Activity (Flightaware)

Listeners: 0 out of 718 total

Aer Lingus Ops: 131.500
Service Air Ops: 131.450
Shannon Ground: 121.800
Shannon Tower: 118.700
Sig Ops (Pre-Clearance): 131.590

EINN Shannon Control High #1 (Archives)
Shannon, Ireland

Feed Status: UP
Listen in your browser - HTML5 player(in browser, HTML5)
Click here to listen with your own player(launches your MP3 player)

EINN 222300Z 31003KT 9999 FEW025 BKN050 13/08 Q1017 NOSIG

EINN Flight Activity (Flightaware)

Listeners: 1 out of 718 total

Shannon Clearance (Oceanic only): 121.700
Shannon Control: 134.630
Shannon Control: 134.260
Shannon Control: 119.075
Shannon Control (BABAN/DEVOL Sector): 132.150
Shannon Control (Cork Sector): 131.150
Shannon Control (Shannon Sector): 134.280
Shannon Control (SOTA Sector): 135.600
Shannon Control NOTA: 125.875
Shannon Control NOTA: 122.980
Shannon High Level (SOTA Sector): 135.230
Shanwick Radio: 127.650
Track Information: 133.800

EINN Twr/App #1 (Archives)
Shannon, Ireland

Feed Status: UP
Listen in your browser - HTML5 player(in browser, HTML5)
Click here to listen with your own player(launches your MP3 player)

EINN 222300Z 31003KT 9999 FEW025 BKN050 13/08 Q1017 NOSIG

EINN Flight Activity (Flightaware)

Listeners: 1 out of 718 total

Aer Lingus Ops: 131.500
Service Air Ops: 131.450
Shannon Approach Radar: 121.400
Shannon Control: Misc
Shannon Ground: 121.800
Shannon Tower: 118.700
Sig Ops (Pre-Clearance): 131.590

ENAT Twr/App/Control
Alta, Norway

Feed Status: DOWN
Offline since: 2019-05-22 22:05:02 UTC

ENAT 222250Z 11007KT 9999 OVC041 02/M05 Q1024 RMK WIND 700FT 08009KT

Alta Tower (to boat, Harbour Channel 12): 156.600
Alta Tower (to vehicle): 462.400
Alta Tower/Approach: 120.400
Norway Control: 126.700

ENBO Approach (Archives)
Bodo, Norway

Feed Status: UP
Listen in your browser - HTML5 player(in browser, HTML5)
Click here to listen with your own player(launches your MP3 player)

ENBO 222250Z 08023KT 9999 FEW035 11/04 Q1013

ENBO Flight Activity (Flightaware)

Listeners: 0 out of 718 total

Bodo Approach: 119.700

ENBO Tower (Archives)
Bodo, Norway

Feed Status: UP
Listen in your browser - HTML5 player(in browser, HTML5)
Click here to listen with your own player(launches your MP3 player)

ENBO 222250Z 08023KT 9999 FEW035 11/04 Q1013

ENBO Flight Activity (Flightaware)

Listeners: 0 out of 718 total

Bodo Tower: 118.100

ENCN Tower/Approach (Archives)
Kristiansand, Norway

Feed Status: UP
Listen in your browser - HTML5 player(in browser, HTML5)
Click here to listen with your own player(launches your MP3 player)

ENCN 222320Z AUTO 25005KT 9999 FEW016/// 08/07 Q1012

ENCN Flight Activity (Flightaware)

Listeners: 0 out of 718 total

Kjevik Tower: 118.100
Kjevik Tower/Approach: 119.950

ENEV Twr/App/ACC (Archives)
Evenes, Norway

Feed Status: UP
Listen in your browser - HTML5 player(in browser, HTML5)
Click here to listen with your own player(launches your MP3 player)

ENEV 222320Z AUTO 06007KT 330V140 9999 NCD 07/M03 Q1017 RMK WIND 1400FT 09021KT

ENEV Flight Activity (Flightaware)

Listeners: 0 out of 718 total

Evenes Approach: 120.100
Evenes Tower: 118.000
Norway ACC (Bodo Sector 25): 126.450

ENGM Approach (Archives)
Oslo, Norway

Feed Status: UP
Listen in your browser - HTML5 player(in browser, HTML5)
Click here to listen with your own player(launches your MP3 player)

ENGM 222320Z 17012KT 9999 FEW005 BKN007 13/11 Q1008

ENGM Flight Activity (Flightaware)

Listeners: 0 out of 718 total

Oslo Approach: 118.475
Oslo Approach: 120.450

ENKJ RDO (Archives)
Kjeller, Norway

Feed Status: UP
Listen in your browser - HTML5 player(in browser, HTML5)
Click here to listen with your own player(launches your MP3 player)

ENKJ Flight Activity (Flightaware)

Listeners: 0 out of 718 total

Kjeller RDO: 119.100

ENLI CTAF (Archives)
Farsund, Norway

Feed Status: UP
Listen in your browser - HTML5 player(in browser, HTML5)
Click here to listen with your own player(launches your MP3 player)

ENLI Flight Activity (Flightaware)

Listeners: 0 out of 718 total

Lista Traffic/Lista Radio: 126.450

ENRK CTAF (Archives)
Astorp, Norway

Feed Status: UP
Listen in your browser - HTML5 player(in browser, HTML5)
Click here to listen with your own player(launches your MP3 player)

ENRK Flight Activity (Flightaware)

Listeners: 0 out of 718 total

Rakkestad CTAF: 122.950

ENOR Sector 8 (Archives)
Moss, Norway

Feed Status: UP
Listen in your browser - HTML5 player(in browser, HTML5)
Click here to listen with your own player(launches your MP3 player)

ENOR Flight Activity (Flightaware)

Listeners: 0 out of 718 total

Norway Center (FIR) Sector 8: 118.875

ENRY Tower (Archives)
Moss, Norway

Feed Status: UP
Listen in your browser - HTML5 player(in browser, HTML5)
Click here to listen with your own player(launches your MP3 player)

ENRY 222320Z AUTO 18013KT 9999NDV FEW011/// OVC098/// 12/09 Q1010

ENRY Flight Activity (Flightaware)

Listeners: 0 out of 718 total

Rygge Tower: 119.500

ENSO AFIS (Archives)
Stord, Norway

Feed Status: UP
Listen in your browser - HTML5 player(in browser, HTML5)
Click here to listen with your own player(launches your MP3 player)

ENSO 221650Z 18008KT 140V210 8000 -RA SCT005 BKN007 10/09 Q1010

ENSO Flight Activity (Flightaware)

Listeners: 0 out of 718 total

Stord AFIS: 120.200

Feed sponsored by:

ENTC Tower/App (Archives)
Langnes, Norway

Feed Status: UP
Listen in your browser - HTML5 player(in browser, HTML5)
Click here to listen with your own player(launches your MP3 player)

ENTC 222320Z 02012KT 9999 SCT041 04/M01 Q1021 RMK WIND 2600FT 10011KT

ENTC Flight Activity (Flightaware)

Listeners: 0 out of 718 total

Langnes Tower: 118.300
Langnes VDF (Approach): 123.750

ENTO Tower/App (Archives)
Sandefjord, Norway

Feed Status: UP
Listen in your browser - HTML5 player(in browser, HTML5)
Click here to listen with your own player(launches your MP3 player)

ENTO 222320Z AUTO 20011KT 9999 FEW110/// BKN130/// 10/10 Q1009

ENTO Flight Activity (Flightaware)

Listeners: 0 out of 718 total

ENJB Tonsberg Airport - Jarlsberg - CTAF: 122.300
Farris Approach (TCA): 134.050
Sandefjord Tower: 118.650

ENVA Gnd/Twr/App (Archives)
Trondheim, Norway

Feed Status: UP
Listen in your browser - HTML5 player(in browser, HTML5)
Click here to listen with your own player(launches your MP3 player)

ENVA 222250Z 10008KT 9999 BKN062 18/12 Q1006 RMK WIND 670FT 12008KT

ENVA Flight Activity (Flightaware)

Listeners: 0 out of 718 total

Trondheim Approach: 118.600
Trondheim Ground: 121.600
Trondheim Tower: 119.400

ENZV Gnd/Twr/App (Archives)
Stavanger, Norway

Feed Status: UP
Listen in your browser - HTML5 player(in browser, HTML5)
Click here to listen with your own player(launches your MP3 player)

ENZV 222250Z 14006KT 8000 FEW015 SCT050 08/06 Q1010

ENZV Flight Activity (Flightaware)

Listeners: 0 out of 718 total

Sola Approach/Departure: 119.600
Sola Ground: 121.750
Sola Tower: 118.350

EPGD Tower/Approach (Archives)
Gdansk, Poland

Feed Status: UP
Listen in your browser - HTML5 player(in browser, HTML5)
Click here to listen with your own player(launches your MP3 player)

EPGD 222300Z 28009KT 3500 BR BKN002 OVC003 12/12 Q1010

EPGD Flight Activity (Flightaware)

Listeners: 0 out of 718 total

Gdansk Approach: 127.275
Gdansk Tower: 118.100

EPKK Tower/App (Archives)
Krakow, Poland

Feed Status: UP
Listen in your browser - HTML5 player(in browser, HTML5)
Click here to listen with your own player(launches your MP3 player)

EPKK 222300Z 28011KT 9999 SCT008 BKN012CB 13/12 Q1008

EPKK Flight Activity (Flightaware)

Listeners: 0 out of 718 total

Krakow Approach: 121.075
Krakow Approach: 123.258
Krakow Tower: 123.250

EPKR CTAF
Krosno, Poland

Feed Status: DOWN
Offline since: 2019-05-21 15:26:02 UTC

Krosno CTAF: 122.400

EPKT Del/Twr/App (Archives)
Katowice, Poland

Feed Status: UP
Listen in your browser - HTML5 player(in browser, HTML5)
Click here to listen with your own player(launches your MP3 player)

EPKT 222300Z 30010KT 6000 SHRA SCT002 BKN004 BKN011CB 12/12 Q1009

EPKT Flight Activity (Flightaware)

Listeners: 0 out of 718 total

Katowice Delivery: 121.800
Katowice Tower: 129.250
Krakow Approach: 135.400
Krakow Approach: 121.075

EPKT Delivery/Approach (Archives)
Katowice, Poland

Feed Status: UP
Listen in your browser - HTML5 player(in browser, HTML5)
Click here to listen with your own player(launches your MP3 player)

EPKT 222300Z 30010KT 6000 SHRA SCT002 BKN004 BKN011CB 12/12 Q1009

EPKT Flight Activity (Flightaware)

Listeners: 0 out of 718 total

Katowice Delivery: 121.800
Krakow Approach: 121.075

EPKT Tower/Approach (Archives)
Katowice, Poland

Feed Status: UP
Listen in your browser - HTML5 player(in browser, HTML5)
Click here to listen with your own player(launches your MP3 player)

EPKT 222300Z 30010KT 6000 SHRA SCT002 BKN004 BKN011CB 12/12 Q1009

EPKT Flight Activity (Flightaware)

Listeners: 1 out of 718 total

Katowice Tower: 129.250
Krakow Approach: 135.400

EPLL Tower (Archives)
Lodz, Poland

Feed Status: UP
Listen in your browser - HTML5 player(in browser, HTML5)
Click here to listen with your own player(launches your MP3 player)

EPLL 222300Z VRB02KT 9999 BKN026 14/13 Q1009

EPLL Flight Activity (Flightaware)

Listeners: 0 out of 718 total

Lodz Tower: 124.230

EPPO Twr/App/FIS (Archives)
Poznan, Poland

Feed Status: UP
Listen in your browser - HTML5 player(in browser, HTML5)
Click here to listen with your own player(launches your MP3 player)

EPPO 222300Z 32011KT 9000 -DZ OVC005 12/11 Q1012 R10/290294

EPPO Flight Activity (Flightaware)

Listeners: 1 out of 718 total

Poznan Approach: 129.025
Poznan Approach: 127.225
Poznan FIS: 126.300
Poznan Tower: 119.975

Sponsored by: GearUp!

EPRZ Del/Twr/EPWW Radar (Archives)
Jasionka, Poland

Feed Status: UP
Listen in your browser - HTML5 player(in browser, HTML5)
Click here to listen with your own player(launches your MP3 player)

EPRZ 222300Z VRB01KT 9999 BKN020 12/11 Q1007

EPRZ Flight Activity (Flightaware)

Listeners: 0 out of 718 total

EPWW Radar: 134.175
EPWW Radar: 120.950
Rzeszow Delivery: 121.800
Rzeszow Tower: 126.800

EPWA Approach #1 (Archives)
Warsaw, Poland

Feed Status: UP
Listen in your browser - HTML5 player(in browser, HTML5)
Click here to listen with your own player(launches your MP3 player)

EPWA 222300Z VRB02KT CAVOK 15/13 Q1008 NOSIG

EPWA Flight Activity (Flightaware)

Listeners: 1 out of 718 total

Warsaw Approach: 128.800

EPWA Approach #2 (Archives)
Warsaw, Poland

Feed Status: UP
Listen in your browser - HTML5 player(in browser, HTML5)
Click here to listen with your own player(launches your MP3 player)

EPWA 222300Z VRB02KT CAVOK 15/13 Q1008 NOSIG

EPWA Flight Activity (Flightaware)

Listeners: 0 out of 718 total

Warsaw Approach: 125.050

EPWA Clearance Delivery (Archives)
Warsaw, Poland

Feed Status: UP
Listen in your browser - HTML5 player(in browser, HTML5)
Click here to listen with your own player(launches your MP3 player)

EPWA 222300Z VRB02KT CAVOK 15/13 Q1008 NOSIG

EPWA Flight Activity (Flightaware)

Listeners: 0 out of 718 total

Warsaw Clearance Delivery: 121.600

EPWA Director (Archives)
Warsaw, Poland

Feed Status: UP
Listen in your browser - HTML5 player(in browser, HTML5)
Click here to listen with your own player(launches your MP3 player)

EPWA 222300Z VRB02KT CAVOK 15/13 Q1008 NOSIG

EPWA Flight Activity (Flightaware)

Listeners: 0 out of 718 total

Warsaw Director: 129.375

EPWA Ground (Archives)
Warsaw, Poland

Feed Status: UP
Listen in your browser - HTML5 player(in browser, HTML5)
Click here to listen with your own player(launches your MP3 player)

EPWA 222300Z VRB02KT CAVOK 15/13 Q1008 NOSIG

EPWA Flight Activity (Flightaware)

Listeners: 0 out of 718 total

Warsaw Ground: 121.900

EPWA Tower #1 (Archives)
Warsaw, Poland

Feed Status: UP
Listen in your browser - HTML5 player(in browser, HTML5)
Click here to listen with your own player(launches your MP3 player)

EPWA 222300Z VRB02KT CAVOK 15/13 Q1008 NOSIG

EPWA Flight Activity (Flightaware)

Listeners: 0 out of 718 total

Warsaw Tower: 118.300

EPWA Tower #2 (Archives)
Warsaw, Poland

Feed Status: UP
Listen in your browser - HTML5 player(in browser, HTML5)
Click here to listen with your own player(launches your MP3 player)

EPWA 222300Z VRB02KT CAVOK 15/13 Q1008 NOSIG

EPWA Flight Activity (Flightaware)

Listeners: 0 out of 718 total

Warsaw Tower: 118.300

Audio provided by: datahouse.pl

EPWR Tower (Archives)
Wroclaw, Poland

Feed Status: UP
Listen in your browser - HTML5 player(in browser, HTML5)
Click here to listen with your own player(launches your MP3 player)

EPWR 222300Z 31016KT 7000 -DZ OVC004 11/11 Q1013

EPWR Flight Activity (Flightaware)

Listeners: 0 out of 718 total

Wroclaw Tower: 120.250

EPWR Twr/App (Archives)
Wroclaw, Poland

Feed Status: UP
Listen in your browser - HTML5 player(in browser, HTML5)
Click here to listen with your own player(launches your MP3 player)

EPPO 222300Z 32011KT 9000 -DZ OVC005 12/11 Q1012 R10/290294

EPPO Flight Activity (Flightaware)

Listeners: 0 out of 718 total

Poznan Approach (South): 127.225

EPRZ Del/Twr/EPWW Radar (Archives)
Jasionka, Poland

Feed Status: UP
Listen in your browser - HTML5 player(in browser, HTML5)
Click here to listen with your own player(launches your MP3 player)

EPRZ 222300Z VRB01KT 9999 BKN020 12/11 Q1007

EPRZ Flight Activity (Flightaware)

Listeners: 0 out of 718 total

EPWW Radar: 134.175
EPWW Radar: 120.950
Rzeszow Delivery: 121.800
Rzeszow Tower: 126.800

ESDF Ronneby Control (Archives)
Ronneby, Sweden

Feed Status: UP
Listen in your browser - HTML5 player(in browser, HTML5)
Click here to listen with your own player(launches your MP3 player)

ESDF 222320Z AUTO 32010KT 290V360 9999 OVC011/// 13/11 Q1011

ESDF Flight Activity (Flightaware)

Listeners: 0 out of 718 total

Ronneby Control: 128.450

ESGG Gnd/Twr/Control (Archives)
Gothenburg, Sweden

Feed Status: UP
Listen in your browser - HTML5 player(in browser, HTML5)
Click here to listen with your own player(launches your MP3 player)

ESGG 222320Z 27008KT 240V300 9999 SCT015 09/06 Q1014

ESGG Flight Activity (Flightaware)

Listeners: 0 out of 718 total

Emergency/Guard: 121.500
Goteborg Arrival: 120.125
Goteborg Control: 124.675
Goteborg Control: 124.200
Landvetter Ground: 121.900
Landvetter Tower: 118.605

ESMQ Tower (Archives)
Kalmar, Sweden

Feed Status: UP
Listen in your browser - HTML5 player(in browser, HTML5)
Click here to listen with your own player(launches your MP3 player)

ESMQ 222320Z AUTO 29005KT 9999 FEW073/// BKN100/// 16/15 Q1009

ESMQ Flight Activity (Flightaware)

Listeners: 0 out of 718 total

Kalmar Tower: 130.805

ESOW Twr/CTAF/Control (Archives)
Stockholm, Sweden

Feed Status: UP
Listen in your browser - HTML5 player(in browser, HTML5)
Click here to listen with your own player(launches your MP3 player)

ESOW 222320Z AUTO 04006KT 9999 FEW110/// SCT180/// 14/10 Q1010

ESOW Flight Activity (Flightaware)

Listeners: 0 out of 718 total

Arlanda Approach: 123.750
Arlanda Approach: 126.655
Arlanda Approach: 130.325
Arlanda Departure: 124.100
Arlanda Tower: 118.505
Arlanda Tower: 128.725
Enkoping/Langtora: 123.525
Eskilstuna: 126.850
Frolunda: 123.400
Johannisberg CTAF: 123.650
Ska Edeby: 123.350
Stockholm Control: 120.155
Stockholm Control: 118.405
Stockholm Control: 118.280
Sweden Control: 133.260
Sweden Control: 129.175
Sweden Control: 131.130
Uppsala Tower: 119.200
Uppsala/Sundbro: 123.350
Vasteras Control: 125.955
Vasteras Tower: 130.600

ESPA Twr/Control (Archives)
Lulea, Sweden

Feed Status: UP
Listen in your browser - HTML5 player(in browser, HTML5)
Click here to listen with your own player(launches your MP3 player)

ESPA 222320Z AUTO 07007KT 030V110 9999 NCD 05/M01 Q1019

ESPA Flight Activity (Flightaware)

Listeners: 0 out of 718 total

Emergency/Guard: 121.500
Kallax Control: 125.450
Kallax Tower: 128.200
Sweden Control North: 131.050

ESSG Misc (Archives)
Ludvika, Sweden

Feed Status: UP
Listen in your browser - HTML5 player(in browser, HTML5)
Click here to listen with your own player(launches your MP3 player)

ESSG Flight Activity (Flightaware)

Listeners: 0 out of 718 total

Avesta, Gagnef, Siljansnas: 123.550
Borlange Tower: 127.300
Dala-Jarna: 123.350
Emergency/Guard: 121.500
Karlstad: 119.450
Koping, Arboga, Borberg: 123.150
Ludvika CTAF: 122.100
Mora: 129.850
Orebro: 120.275
Orsa: 123.400
Soaring Freq: 123.500
Sweden Control: 131.125
Sweden Control: 129.175
Sweden Control: 118.200
Sweden Control: 132.150

ESSL Twr/App/Control (Archives)
Linkoping, Sweden

Feed Status: UP
Listen in your browser - HTML5 player(in browser, HTML5)
Click here to listen with your own player(launches your MP3 player)

ESSL 222320Z AUTO 28004KT 250V310 9999 OVC100/// 16/15 Q1010

ESSL Flight Activity (Flightaware)

Listeners: 0 out of 718 total

Emergency/Guard: 121.500
Linkoping Tower: 118.800
Linkoping Tower (Secondary): 123.400
Ostgota Control: 127.350
Ostgota Control: 126.400
Ostgota Control: 135.850
Ostgota Control: 132.950
Ostgota Control: 128.700
Ostgota Control (Malmen Sector): 133.100
Ostgota Control/Sweden Control: 118.400

ESVQ CTAF (Archives)
Koping, Sweden

Feed Status: UP
Listen in your browser - HTML5 player(in browser, HTML5)
Click here to listen with your own player(launches your MP3 player)

ESVQ Flight Activity (Flightaware)

Listeners: 0 out of 718 total

Koping CTAF: 123.150

EVLA AFIS
Liepaja, Latvia

Feed Status: DOWN
Offline since: 2019-05-22 23:09:03 UTC

EVLA 222320Z AUTO 00000KT 1100 R24/P2000N R06/1200N FG FEW004/// 12/12 Q1008

Liepaja AFIS: 129.400

EVRA Approach (Archives)
Riga, Latvia

Feed Status: UP
Listen in your browser - HTML5 player(in browser, HTML5)
Click here to listen with your own player(launches your MP3 player)

EVRA 222320Z 21003KT 170V240 CAVOK 13/13 Q1007 NOSIG

EVRA Flight Activity (Flightaware)

Listeners: 0 out of 718 total

Riga Approach: 129.925

EVRA Approach
Riga, Latvia

Feed Status: DOWN
Offline since: 2019-05-22 23:09:03 UTC

EVLA 222320Z AUTO 00000KT 1100 R24/P2000N R06/1200N FG FEW004/// 12/12 Q1008

Riga Approach: 129.925

EVRA CTAF (Archives)
Riga, Latvia

Feed Status: UP
Listen in your browser - HTML5 player(in browser, HTML5)
Click here to listen with your own player(launches your MP3 player)

EVRA 222320Z 21003KT 170V240 CAVOK 13/13 Q1007 NOSIG

EVRA Flight Activity (Flightaware)

Listeners: 0 out of 718 total

Riga Approach (evenings): 134.850
Riga CTAF: 123.950

EVRA FIC (Archives)
Riga, Latvia

Feed Status: UP
Listen in your browser - HTML5 player(in browser, HTML5)
Click here to listen with your own player(launches your MP3 player)

EVRA 222320Z 21003KT 170V240 CAVOK 13/13 Q1007 NOSIG

EVRA Flight Activity (Flightaware)

Listeners: 0 out of 718 total

Riga FIC: 120.225

EVRA FIC
Riga, Latvia

Feed Status: DOWN
Offline since: 2019-05-22 23:09:03 UTC

EVLA 222320Z AUTO 00000KT 1100 R24/P2000N R06/1200N FG FEW004/// 12/12 Q1008

Riga FIC: 120.225

EVRA Tower/Guard (Archives)
Riga, Latvia

Feed Status: UP
Listen in your browser - HTML5 player(in browser, HTML5)
Click here to listen with your own player(launches your MP3 player)

EVRA 222320Z 21003KT 170V240 CAVOK 13/13 Q1007 NOSIG

EVRA Flight Activity (Flightaware)

Listeners: 0 out of 718 total

Emergency/Guard: 121.500
Riga Tower: 118.100

EYPA Tower
Palanga, Lithuania

Feed Status: DOWN
Offline since: 2019-05-22 23:09:03 UTC

EVLA 222320Z AUTO 00000KT 1100 R24/P2000N R06/1200N FG FEW004/// 12/12 Q1008

Palanga Tower: 124.300

EYVI Twr/App/Misc (Archives)
Vilnius, Lithuania

Feed Status: UP
Listen in your browser - HTML5 player(in browser, HTML5)
Click here to listen with your own player(launches your MP3 player)

EYVI 222320Z VRB01KT CAVOK 12/09 Q1009 NOSIG

EYVI Flight Activity (Flightaware)

Listeners: 0 out of 718 total

Emergency / GUARD: 121.500
FlyLAL, AirBaltic transit services: 131.900
FlyLAL, AirBaltic transit services: 131.600
FlyLAL, AirBaltic transit services: 131.500
Kaunas Approach (EYKA): 124.200
Vilnius Approach: 120.700
Vilnius Control: 132.275
Vilnius Control: 133.425
Vilnius Control: 133.300
Vilnius FIS: 123.850
Vilnius Tower: 118.200
Zokniai A/G (mil): 122.775

EYVP CTAF (Archives)
Paluknys, Lithuania

Feed Status: UP
Listen in your browser - HTML5 player(in browser, HTML5)
Click here to listen with your own player(launches your MP3 player)

EYVP Flight Activity (Flightaware)

Listeners: 0 out of 718 total

EYVP Paluknis CTAF: 119.100

FIMP Twr/App/Ctr #1 (Archives)
Plaine Magnien, Mauritius

Feed Status: UP
Listen in your browser - HTML5 player(in browser, HTML5)
Click here to listen with your own player(launches your MP3 player)

FIMP 222300Z 03003KT 9999 SCT017 SCT050 24/21 Q1017


Listeners: 0 out of 718 total

FIMP Approach: 119.100
FIMP Tower: 118.100
FMEE Approach/Departure: 127.200
Mauritius Centre: 129.300

FIMP Twr/App/Ctr #2 (Archives)
Plaine Magnien, Mauritius

Feed Status: UP
Listen in your browser - HTML5 player(in browser, HTML5)
Click here to listen with your own player(launches your MP3 player)

FIMP 222300Z 03003KT 9999 SCT017 SCT050 24/21 Q1017


Listeners: 0 out of 718 total

FIMP Approach: 119.100
FIMP Tower: 118.100
Mauritius Centre: 129.300

FMEE Tower (Archives)
Sainte-Marie, Reunion

Feed Status: UP
Listen in your browser - HTML5 player(in browser, HTML5)
Click here to listen with your own player(launches your MP3 player)

FMEE 222300Z AUTO 12009KT CAVOK 24/20 Q1016 NOSIG


Listeners: 0 out of 718 total

Gillot Tower: 118.400

FMEP Info (Archives)
Saint-Pierre, Reunion

Feed Status: UP
Listen in your browser - HTML5 player(in browser, HTML5)
Click here to listen with your own player(launches your MP3 player)

FMEP 222300Z AUTO 02005KT 9999 FEW035 24/19 Q1016


Listeners: 0 out of 718 total

Saint-Pierre Info: 122.400

FMMI Twr/App/Center (Archives)
Antananarivo, Madagascar

Feed Status: UP
Listen in your browser - HTML5 player(in browser, HTML5)
Click here to listen with your own player(launches your MP3 player)

FMMI 222300Z 04003KT 9999 SCT020 16/15 Q1021 NOSIG


Listeners: 0 out of 718 total

Ivato Approach: 125.700
Ivato Tower: 120.100
Tana Control: 128.900

LATI Twr/App/ACC (Archives)
Tirana, Albania

Feed Status: UP
Listen in your browser - HTML5 player(in browser, HTML5)
Click here to listen with your own player(launches your MP3 player)

LATI 222320Z VRB01KT CAVOK 12/10 Q1016 NOSIG

LATI Flight Activity (Flightaware)

Listeners: 0 out of 718 total

Tirana Approach/Departure: 133.150
Tirana Approach/Departure: 131.075
Tirana Tower: 122.500
Tirana Tower: 123.500

LBBG Twr/App
Burgas, Bulgaria

Feed Status: DOWN
Offline since: 2019-05-22 22:05:02 UTC

LBBG 222330Z 25004KT CAVOK 15/11 Q1012 NOSIG

Burgas Approach: 125.100
Burgas Tower: 118.000

LBSF Sofia Control East (Archives)
Sofia, Bulgaria

Feed Status: UP
Listen in your browser - HTML5 player(in browser, HTML5)
Click here to listen with your own player(launches your MP3 player)

LBSF 222330Z VRB02KT CAVOK 12/11 Q1015 NOSIG

LBSF Flight Activity (Flightaware)

Listeners: 0 out of 718 total

Sofia Control (East/Middle Sector): 129.100
Sofia Control (Varna Sector): 134.700

LBSF Twr/App #1 (Archives)
Sofia, Bulgaria

Feed Status: UP
Listen in your browser - HTML5 player(in browser, HTML5)
Click here to listen with your own player(launches your MP3 player)

LBSF 222330Z VRB02KT CAVOK 12/11 Q1015 NOSIG

LBSF Flight Activity (Flightaware)

Listeners: 0 out of 718 total

Sofia Approach: 123.700
Sofia Approach: 129.900
Sofia Tower: 118.100
Sofia Tower: 120.200

LBSF Twr/App #2 (Archives)
Sofia, Bulgaria

Feed Status: UP
Listen in your browser - HTML5 player(in browser, HTML5)
Click here to listen with your own player(launches your MP3 player)

LBSF 222330Z VRB02KT CAVOK 12/11 Q1015 NOSIG

LBSF Flight Activity (Flightaware)

Listeners: 0 out of 718 total

Sofia Approach: 123.700
Sofia Tower: 118.100

LBWN Tower/Approach (Archives)
Varna, Bulgaria

Feed Status: UP
Listen in your browser - HTML5 player(in browser, HTML5)
Click here to listen with your own player(launches your MP3 player)

LBWN 222330Z 35003KT CAVOK 13/09 Q1011 NOSIG

LBWN Flight Activity (Flightaware)

Listeners: 0 out of 718 total

Varna Approach: 121.000
Varna Tower: 119.500

Bordeaux Control (Archives)
Bordeaux, France

Feed Status: UP
Listen in your browser - HTML5 player(in browser, HTML5)
Click here to listen with your own player(launches your MP3 player)

LFBD 222330Z AUTO 03002KT CAVOK 14/11 Q1018 NOSIG

LFBD Flight Activity (Flightaware)

Listeners: 0 out of 718 total

Air to Air: 123.450
Bordeaux Control BN FL<300: 127.675
Bordeaux Control L3 FL>300: 134.250
Bordeaux Control R2 FL>300: 133.575
Emergency/Guard: 121.500

NOTE: In case of garbled sound, please refresh the player.

LFBU/LFBL Tower
Limoges, France

Feed Status: DOWN
Offline since: 2018-11-19 20:05:05 UTC

LFBU 222300Z AUTO 06008KT CAVOK 15/09 Q1018

LFBL Limoges Tower: 124.055
LFBU Angouleme Tower: 123.150
Medoc: 124.325

Bordeaux Control (Archives)
Angouleme, France

Feed Status: UP
Listen in your browser - HTML5 player(in browser, HTML5)
Click here to listen with your own player(launches your MP3 player)

LFBD 222330Z AUTO 03002KT CAVOK 14/11 Q1018 NOSIG

LFBD Flight Activity (Flightaware)

Listeners: 0 out of 718 total

Air to Air: 123.450
Bordeaux Control BN FL<300: 127.675
Bordeaux Control L3 FL>300: 134.250
Bordeaux Control R2 FL>300: 133.575
Emergency/Guard: 121.500

NOTE: In case of garbled sound, please refresh the player.

LFBZ Tower (Archives)
Biarritz, France

Feed Status: UP
Listen in your browser - HTML5 player(in browser, HTML5)
Click here to listen with your own player(launches your MP3 player)

LFBZ 222330Z AUTO 25004KT 210V270 7000 NSC 15/15 Q1017 TEMPO 3000 BR BKN002

LFBZ Flight Activity (Flightaware)

Listeners: 0 out of 718 total


LFLL Tower (Archives)
Lyon, France

Feed Status: UP
Listen in your browser - HTML5 player(in browser, HTML5)
Click here to listen with your own player(launches your MP3 player)

LFLL 222330Z VRB02KT CAVOK 12/06 Q1018 NOSIG

LFLL Flight Activity (Flightaware)

Listeners: 0 out of 718 total

Lyon Tower: 120.450

Lyon FIS (Archives)
Lyon, France

Feed Status: UP
Listen in your browser - HTML5 player(in browser, HTML5)
Click here to listen with your own player(launches your MP3 player)

LFLL 222330Z VRB02KT CAVOK 12/06 Q1018 NOSIG

LFLL Flight Activity (Flightaware)

Listeners: 0 out of 718 total

Lyon FIS: 135.200

LFLP Twr/LFLB App
Annecy, France

Feed Status: DOWN
Offline since: 2019-05-22 18:06:03 UTC

LFLP 222300Z AUTO 34004KT CAVOK 11/05 Q1018

Annecy Tower: 118.200
Chambery Approach: 121.200
Chambery Info: 123.700

NOTE: Reception might be deteriorated due to terrain surrounding feed

LFLY Tower (Archives)
Bron, France

Feed Status: UP
Listen in your browser - HTML5 player(in browser, HTML5)
Click here to listen with your own player(launches your MP3 player)

LFLY 222300Z AUTO 34004KT CAVOK 14/06 Q1018 NOSIG

LFLY Flight Activity (Flightaware)

Listeners: 0 out of 718 total

Lyon-Bron Tower: 118.100

Lyon FIS (Archives)
Bron, France

Feed Status: UP
Listen in your browser - HTML5 player(in browser, HTML5)
Click here to listen with your own player(launches your MP3 player)

LFLL 222330Z VRB02KT CAVOK 12/06 Q1018 NOSIG

LFLL Flight Activity (Flightaware)

Listeners: 0 out of 718 total

Lyon FIS: 135.200

LFMD Ground/Tower (Archives)
Cannes, France

Feed Status: UP
Listen in your browser - HTML5 player(in browser, HTML5)
Click here to listen with your own player(launches your MP3 player)

LFMD 222300Z AUTO 00000KT 9999 OVC023 16/14 Q1016

LFMD Flight Activity (Flightaware)

Listeners: 0 out of 718 total

Cannes Ground: 121.800
Cannes Tower: 118.625

LFMN Approach (Archives)
Nice, France

Feed Status: UP
Listen in your browser - HTML5 player(in browser, HTML5)
Click here to listen with your own player(launches your MP3 player)

LFMN 222330Z 10006KT 9999 FEW010 BKN020 16/15 Q1016 NOSIG

LFMN Flight Activity (Flightaware)

Listeners: 0 out of 718 total

Nice Approach: 124.175

LFMN Control (High) (Archives)
Nice, France

Feed Status: UP
Listen in your browser - HTML5 player(in browser, HTML5)
Click here to listen with your own player(launches your MP3 player)

LFMN 222330Z 10006KT 9999 FEW010 BKN020 16/15 Q1016 NOSIG

LFMN Flight Activity (Flightaware)

Listeners: 0 out of 718 total

Marseille Control Sector K1 (FL245-FL305): 126.780

LFMN FIS/Approach (Archives)
Nice, France

Feed Status: UP
Listen in your browser - HTML5 player(in browser, HTML5)
Click here to listen with your own player(launches your MP3 player)

LFMN 222330Z 10006KT 9999 FEW010 BKN020 16/15 Q1016 NOSIG

LFMN Flight Activity (Flightaware)

Listeners: 0 out of 718 total

Nice FIS/Approach (TMA4 NICE 2500ft - FL115): 120.850

LFMN Ground/Tower (Archives)
Nice, France

Feed Status: UP
Listen in your browser - HTML5 player(in browser, HTML5)
Click here to listen with your own player(launches your MP3 player)

LFMN 222330Z 10006KT 9999 FEW010 BKN020 16/15 Q1016 NOSIG

LFMN Flight Activity (Flightaware)

Listeners: 0 out of 718 total

Nice Ground: 121.700
Nice Tower: 118.700

LFPO Approach (Archives)
Paris, France

Feed Status: UP
Listen in your browser - HTML5 player(in browser, HTML5)
Click here to listen with your own player(launches your MP3 player)

LFPO 222330Z 25004KT CAVOK 12/07 Q1020 NOSIG

LFPO Flight Activity (Flightaware)

Listeners: 1 out of 718 total

Orly Approach: 124.450
Orly Approach: 118.850
Orly Approach: 120.850
Orly Approach: 123.875

LFPO Departure (Archives)
Paris, France

Feed Status: UP
Listen in your browser - HTML5 player(in browser, HTML5)
Click here to listen with your own player(launches your MP3 player)

LFPO 222330Z 25004KT CAVOK 12/07 Q1020 NOSIG

LFPO Flight Activity (Flightaware)

Listeners: 2 out of 718 total

Orly Departure: 127.750

LFPO Tower (Archives)
Paris, France

Feed Status: UP
Listen in your browser - HTML5 player(in browser, HTML5)
Click here to listen with your own player(launches your MP3 player)

LFPO 222330Z 25004KT CAVOK 12/07 Q1020 NOSIG

LFPO Flight Activity (Flightaware)

Listeners: 1 out of 718 total

Orly Tower: 120.500
Orly Tower: 118.700

LFSB Tower
Basel, Switzerland

Feed Status: DOWN
Offline since: 2019-05-22 22:05:02 UTC

LFSB 222300Z AUTO VRB02KT CAVOK 08/07 Q1020 NOSIG

Mulhouse Tower: 118.300

LFST Approach #1 (Archives)
Strasbourg, France

Feed Status: UP
Listen in your browser - HTML5 player(in browser, HTML5)
Click here to listen with your own player(launches your MP3 player)

LFST 222300Z AUTO 35002KT CAVOK 11/08 Q1020 NOSIG

LFST Flight Activity (Flightaware)

Listeners: 0 out of 718 total

Strasbourg Approach: 120.700

LFST Approach #2 (Archives)
Strasbourg, France

Feed Status: UP
Listen in your browser - HTML5 player(in browser, HTML5)
Click here to listen with your own player(launches your MP3 player)

LFST 222300Z AUTO 35002KT CAVOK 11/08 Q1020 NOSIG

LFST Flight Activity (Flightaware)

Listeners: 0 out of 718 total

Strasbourg Approach: 119.575

LFST Emergency/Guard (Archives)
Strasbourg, France

Feed Status: UP
Listen in your browser - HTML5 player(in browser, HTML5)
Click here to listen with your own player(launches your MP3 player)

LFST 222300Z AUTO 35002KT CAVOK 11/08 Q1020 NOSIG

LFST Flight Activity (Flightaware)

Listeners: 0 out of 718 total

Emergency/Guard: 121.500

LFST Ground (Archives)
Strasbourg, France

Feed Status: UP
Listen in your browser - HTML5 player(in browser, HTML5)
Click here to listen with your own player(launches your MP3 player)

LFST 222300Z AUTO 35002KT CAVOK 11/08 Q1020 NOSIG

LFST Flight Activity (Flightaware)

Listeners: 0 out of 718 total

Strasbourg Ground: 121.800

LFST Tower (Archives)
Strasbourg, France

Feed Status: UP
Listen in your browser - HTML5 player(in browser, HTML5)
Click here to listen with your own player(launches your MP3 player)

LFST 222300Z AUTO 35002KT CAVOK 11/08 Q1020 NOSIG

LFST Flight Activity (Flightaware)

Listeners: 0 out of 718 total

Strasbourg Tower: 119.250

LGAV App/Radar (Archives)
Athens, Greece

Feed Status: UP
Listen in your browser - HTML5 player(in browser, HTML5)
Click here to listen with your own player(launches your MP3 player)

LGAV 222320Z VRB01KT 9999 FEW025 BKN070 18/11 Q1012 NOSIG

LGAV Flight Activity (Flightaware)

Listeners: 0 out of 718 total

Athens Approach: 132.975
Athens Information: 130.925
Athens Information: 119.750
Athens Radar (Kerkira-Kefalinia-Paleohora Sectors FL460-FL345): 134.325
Athens Radar (Milos/Sitia Sectors FL460-FL345): 125.200
Athens Radar (Paleohora /Kerkira Sectors FL460-FL345): 133.725
Athens Radar (Paleohora Sector FL460-FL345): 124.625
Athens Radar (Rhodos/Kavos Sector FL460-FL345): 133.325
Emergency/Guard: 121.500
Makedonia Radar (Thessaloniki/Skopelos/Limnos/Kavala Sectors FL460-FL345): 133.575

LGIR Approach (Archives)
Iraklion, Greece

Feed Status: UP
Listen in your browser - HTML5 player(in browser, HTML5)
Click here to listen with your own player(launches your MP3 player)

LGIR 222320Z 19004KT 9999 SCT080 20/15 Q1011 NOSIG

LGIR Flight Activity (Flightaware)

Listeners: 0 out of 718 total

Iraklion Radar: 123.975

LGIR Ground (Archives)
Iraklion, Greece

Feed Status: UP
Listen in your browser - HTML5 player(in browser, HTML5)
Click here to listen with your own player(launches your MP3 player)

LGIR 222320Z 19004KT 9999 SCT080 20/15 Q1011 NOSIG

LGIR Flight Activity (Flightaware)

Listeners: 0 out of 718 total

Heraklion Ground: 121.700

LGIR Tower (Archives)
Iraklion, Greece

Feed Status: UP
Listen in your browser - HTML5 player(in browser, HTML5)
Click here to listen with your own player(launches your MP3 player)

LGIR 222320Z 19004KT 9999 SCT080 20/15 Q1011 NOSIG

LGIR Flight Activity (Flightaware)

Listeners: 0 out of 718 total

Heraklion Tower: 120.850

LHBP Approach #1 (Archives)
Budapest, Hungary

Feed Status: UP
Listen in your browser - HTML5 player(in browser, HTML5)
Click here to listen with your own player(launches your MP3 player)

LHBP 222330Z 30017KT 9999 FEW024 13/12 Q1011 NOSIG

LHBP Flight Activity (Flightaware)

Listeners: 0 out of 718 total

Budapest Approach: 129.700
Budapest Approach: 122.975
Budapest Approach (Upper): 123.860

LHBP Approach #2 (Archives)
Budapest, Hungary

Feed Status: UP
Listen in your browser - HTML5 player(in browser, HTML5)
Click here to listen with your own player(launches your MP3 player)

LHBP 222330Z 30017KT 9999 FEW024 13/12 Q1011 NOSIG

LHBP Flight Activity (Flightaware)

Listeners: 0 out of 718 total

Budapest Approach: 122.975
Budapest Approach (Upper): 123.860

LHBP Approach (Director) (Archives)
Budapest, Hungary

Feed Status: UP
Listen in your browser - HTML5 player(in browser, HTML5)
Click here to listen with your own player(launches your MP3 player)

LHBP 222330Z 30017KT 9999 FEW024 13/12 Q1011 NOSIG

LHBP Flight Activity (Flightaware)

Listeners: 0 out of 718 total

Budapest Director: 119.510

LHBP ATIS (Archives)
Budapest, Hungary

Feed Status: UP
Listen in your browser - HTML5 player(in browser, HTML5)
Click here to listen with your own player(launches your MP3 player)

LHBP 222330Z 30017KT 9999 FEW024 13/12 Q1011 NOSIG

LHBP Flight Activity (Flightaware)

Listeners: 0 out of 718 total

Budapest ATIS: 132.380

LHBP Clearance Delivery (Archives)
Budapest, Hungary

Feed Status: UP
Listen in your browser - HTML5 player(in browser, HTML5)
Click here to listen with your own player(launches your MP3 player)

LHBP 222330Z 30017KT 9999 FEW024 13/12 Q1011 NOSIG

LHBP Flight Activity (Flightaware)

Listeners: 0 out of 718 total

Budapest Clearance Delivery: 134.540

LHBP Ground (Archives)
Budapest, Hungary

Feed Status: UP
Listen in your browser - HTML5 player(in browser, HTML5)
Click here to listen with your own player(launches your MP3 player)

LHBP 222330Z 30017KT 9999 FEW024 13/12 Q1011 NOSIG

LHBP Flight Activity (Flightaware)

Listeners: 0 out of 718 total

Budapest Ground: 121.910

LHBP Info (Archives)
Budapest, Hungary

Feed Status: UP
Listen in your browser - HTML5 player(in browser, HTML5)
Click here to listen with your own player(launches your MP3 player)

LHBP 222330Z 30017KT 9999 FEW024 13/12 Q1011 NOSIG

LHBP Flight Activity (Flightaware)

Listeners: 0 out of 718 total

Budapest Info: 119.350

LHBP Tower (Archives)
Budapest, Hungary

Feed Status: UP
Listen in your browser - HTML5 player(in browser, HTML5)
Click here to listen with your own player(launches your MP3 player)

LHBP 222330Z 30017KT 9999 FEW024 13/12 Q1011 NOSIG

LHBP Flight Activity (Flightaware)

Listeners: 0 out of 718 total

Budapest Tower: 118.100

LHBP Twr/Info (Archives)
Budapest, Hungary

Feed Status: UP
Listen in your browser - HTML5 player(in browser, HTML5)
Click here to listen with your own player(launches your MP3 player)

LHBP 222330Z 30017KT 9999 FEW024 13/12 Q1011 NOSIG

LHBP Flight Activity (Flightaware)

Listeners: 0 out of 718 total

Budapest Info: 119.350
Budapest Tower: 118.100

LHDC Info/Tower (Archives)
Debrecen, Hungary

Feed Status: UP
Listen in your browser - HTML5 player(in browser, HTML5)
Click here to listen with your own player(launches your MP3 player)

LHDC 222315Z AUTO 23009KT 9999 BKN012 OVC032 14/13 Q1009 TEMPO BKN010

LHDC Flight Activity (Flightaware)

Listeners: 0 out of 718 total

Debrecen Info/Tower: 125.900

LHEM CTAF (Archives)
Esztergom, Hungary

Feed Status: UP
Listen in your browser - HTML5 player(in browser, HTML5)
Click here to listen with your own player(launches your MP3 player)

LHEM Flight Activity (Flightaware)

Listeners: 0 out of 718 total

Esztergom CTAF: 126.850

LHPR Info/AFIS (Archives)
Gyor, Hungary

Feed Status: UP
Listen in your browser - HTML5 player(in browser, HTML5)
Click here to listen with your own player(launches your MP3 player)

LHPR 222315Z AUTO 30013KT 260V320 9999 BKN036 13/12 Q1014

LHPR Flight Activity (Flightaware)

Listeners: 0 out of 718 total

Gyor AFIS: 129.910

LHUD CTAF/Info/AFIS
Szeged, Hungary

Feed Status: DOWN
Offline since: 2019-05-22 22:05:02 UTC

LHUD 222245Z 27012KT 9999 BKN026 16/11 Q1013

Szeged CTAF/Info/AFIS: 122.810

LJLJ Radar (Archives)
Ljubljana, Slovenia

Feed Status: UP
Listen in your browser - HTML5 player(in browser, HTML5)
Click here to listen with your own player(launches your MP3 player)

LJLJ 222330Z VRB01KT 0300 R30/0600V0800U FG VV001 10/10 Q1016 NO

LJLJ Flight Activity (Flightaware)

Listeners: 0 out of 718 total

Ljubljana Approach: 135.275

LJLJ Tower (Archives)
Ljubljana, Slovenia

Feed Status: UP
Listen in your browser - HTML5 player(in browser, HTML5)
Click here to listen with your own player(launches your MP3 player)

LJLJ 222330Z VRB01KT 0300 R30/0600V0800U FG VV001 10/10 Q1016 NO

LJLJ Flight Activity (Flightaware)

Listeners: 0 out of 718 total

Ljubljana Tower: 118.000

LJMB Info/FSS/FIC (Archives)
Maribor, Slovenia

Feed Status: UP
Listen in your browser - HTML5 player(in browser, HTML5)
Click here to listen with your own player(launches your MP3 player)

LJMB 222330Z AUTO 00000KT 9999 NSC 11/09 Q1015

LJMB Flight Activity (Flightaware)

Listeners: 0 out of 718 total

Ljubljana Information FSS/FIC (Maribor Area): 118.475

LJMB Tower/Approach (Archives)
Maribor, Slovenia

Feed Status: UP
Listen in your browser - HTML5 player(in browser, HTML5)
Click here to listen with your own player(launches your MP3 player)

LJMB 222330Z AUTO 00000KT 9999 NSC 11/09 Q1015

LJMB Flight Activity (Flightaware)

Listeners: 0 out of 718 total

Maribor Tower/Approach: 119.200

LJPZ Tower
Secovlje, Slovenia

Feed Status: DOWN
Offline since: 2019-05-22 20:54:02 UTC

LJPZ 222330Z AUTO 12004KT 9999 NSC 14/13 Q1016

Portoroz Tower: 124.875

LKPM Tower (Archives)
Pribram, Czech Republic

Feed Status: UP
Listen in your browser - HTML5 player(in browser, HTML5)
Click here to listen with your own player(launches your MP3 player)

METAR NOT AVAILABLE

LKPM Flight Activity (Flightaware)

Listeners: 0 out of 718 total

Pribram Tower: 118.750

LKAA FIR (High)
Prague, Czech Republic

Feed Status: DOWN
Offline since: 2019-05-22 22:05:02 UTC

LKAA FIR Sector West High / Praha Radar : 132.065

LKAA FIR (Low)
Prague, Czech Republic

Feed Status: DOWN
Offline since: 2019-05-22 22:05:02 UTC

LKAA FIR Sector West Low / Praha Radar: 120.275

LKPR Approach
Prague, Czech Republic

Feed Status: DOWN
Offline since: 2019-05-22 22:05:02 UTC

LKPR 222330Z 28011KT 9999 BKN032 10/08 Q1017 NOSIG

Prague Approach/Radar: 127.580

LKPR Clearance Del
Prague, Czech Republic

Feed Status: DOWN
Offline since: 2019-05-22 22:05:02 UTC

LKPR 222330Z 28011KT 9999 BKN032 10/08 Q1017 NOSIG


LKPR Director/Ruzyne Radar
Prague, Czech Republic

Feed Status: DOWN
Offline since: 2019-05-22 22:05:02 UTC

LKPR 222330Z 28011KT 9999 BKN032 10/08 Q1017 NOSIG

Prague Director/Ruzyne Radar: 119.010

NOTE: Only active during peak times, typically 2-6PM local time (CET)

LKPR Ground
Prague, Czech Republic

Feed Status: DOWN
Offline since: 2019-05-22 22:05:02 UTC

LKPR 222330Z 28011KT 9999 BKN032 10/08 Q1017 NOSIG

Prague/Ruzyne Clearance Delivery: 120.060
Prague/Ruzyne Ground: 121.910

LKPR Tower
Prague, Czech Republic

Feed Status: DOWN
Offline since: 2019-05-22 22:05:02 UTC

LKPR 222330Z 28011KT 9999 BKN032 10/08 Q1017 NOSIG

Prague/Ruzyne Tower: 134.560

LKTB Gnd/Twr/Radar (Archives)
Brno, Czech Republic

Feed Status: UP
Listen in your browser - HTML5 player(in browser, HTML5)
Click here to listen with your own player(launches your MP3 player)

LKTB 222330Z 29008KT 270V330 9999 SCT021 BKN035 12/09 Q1013 NOSIG

LKTB Flight Activity (Flightaware)

Listeners: 1 out of 718 total

Brno Ground: 125.425
Brno Handling: 131.800
Brno Radar (Approach): 127.350
Brno Tower: 119.600

LMML Del/Gnd/Twr/App
Luqa, Malta

Feed Status: DOWN
Offline since: 2019-05-20 08:38:03 UTC

LMML 222315Z 29007KT CAVOK 17/15 Q1017 NOSIG

Luqa Approach: 128.150
Luqa Approach/Radar: 118.350
Luqa Ground: 121.600
Luqa Tower: 135.100
Malta Control East: 123.625
Malta Control West: 130.975

Santa Maria Control (Oceanic) (Archives)
Santa Maria Island (Azores), Portugal

Feed Status: UP
Listen in your browser - HTML5 player(in browser, HTML5)
Click here to listen with your own player(launches your MP3 player)

LPAZ 222300Z VRB02KT CAVOK 15/12 Q1024

LPAZ Flight Activity (Flightaware)

Listeners: 0 out of 718 total

Emergency/Guard: 121.500
LPHR (Horta) Approach: 120.600
LPLA (Terceira) Approach: 135.000
LPLA (Terceira) Tower: 122.100
LPPD (Ponta Delgada) Approach: 119.400
Ponta Delgada Ground: 131.600
Santa Maria Approach: 119.100
Santa Maria Control: 132.150

LPLA Gnd/Twr/App (Archives)
Lajes, Portugal

Feed Status: UP
Listen in your browser - HTML5 player(in browser, HTML5)
Click here to listen with your own player(launches your MP3 player)

LPLA 222300Z /////KT CAVOK 17/14 Q1022

LPLA Flight Activity (Flightaware)

Listeners: 1 out of 718 total

Lajes Approach: 135.000
Lajes Ground: 121.900
Lajes Tower: 122.100

LPPR Approach #1 (Archives)
Porto, Portugal

Feed Status: UP
Listen in your browser - HTML5 player(in browser, HTML5)
Click here to listen with your own player(launches your MP3 player)

LPPR 222300Z VRB02KT 9999 BKN007 14/14 Q1020

LPPR Flight Activity (Flightaware)

Listeners: 0 out of 718 total

Porto Approach: 121.105

LPPR Tower (Archives)
Porto, Portugal

Feed Status: UP
Listen in your browser - HTML5 player(in browser, HTML5)
Click here to listen with your own player(launches your MP3 player)

LPPR 222300Z VRB02KT 9999 BKN007 14/14 Q1020

LPPR Flight Activity (Flightaware)

Listeners: 0 out of 718 total

Porto Tower: 118.005

LPPT Approach (Archives)
Lisbon, Portugal

Feed Status: UP
Listen in your browser - HTML5 player(in browser, HTML5)
Click here to listen with your own player(launches your MP3 player)

LPPT 222300Z 32011KT 280V340 9999 FEW012 15/13 Q1019

LPPT Flight Activity (Flightaware)

Listeners: 0 out of 718 total

Lisbon Approach: 119.100

LRCL Twr/App #1 (Archives)
Cluj-Napoca, Romania

Feed Status: UP
Listen in your browser - HTML5 player(in browser, HTML5)
Click here to listen with your own player(launches your MP3 player)

LRCL 222330Z 07004KT 9999 BKN053 13/11 Q1010

LRCL Flight Activity (Flightaware)

Listeners: 0 out of 718 total

Cluj Approach: 126.425
Cluj Tower: 134.400

LRCL Twr/App #2 (Archives)
Cluj-Napoca, Romania

Feed Status: UP
Listen in your browser - HTML5 player(in browser, HTML5)
Click here to listen with your own player(launches your MP3 player)

LRCL 222330Z 07004KT 9999 BKN053 13/11 Q1010

LRCL Flight Activity (Flightaware)

Listeners: 0 out of 718 total

Cluj Approach: 126.425
Cluj Tower: 134.400

LRCL Twr/App/ACC
Cluj-Napoca, Romania

Feed Status: DOWN
Offline since: 2019-05-22 21:44:03 UTC

LRCL 222330Z 07004KT 9999 BKN053 13/11 Q1010

Cluj Approach: 126.425
Cluj Tower: 134.400
Napoc ACC: 127.075

LROP Ground (Archives)
Bucharest, Romania

Feed Status: UP
Listen in your browser - HTML5 player(in browser, HTML5)
Click here to listen with your own player(launches your MP3 player)

LROP 222300Z AUTO 24007KT 9999 FEW099/// 14/12 Q1011 NOSIG

LROP Flight Activity (Flightaware)

Listeners: 0 out of 718 total

Bucharest Ground: 121.855

LROP Radar (Archives)
Bucharest, Romania

Feed Status: UP
Listen in your browser - HTML5 player(in browser, HTML5)
Click here to listen with your own player(launches your MP3 player)

LROP 222300Z AUTO 24007KT 9999 FEW099/// 14/12 Q1011 NOSIG

LROP Flight Activity (Flightaware)

Listeners: 0 out of 718 total

Bucharest Radar (Arges Mid sector): 121.175
Bucharest Radar (Arges Top Sector): 123.265
Bucharest Radar (Lomos Top Sector): 132.865

LROP Tower/Approach (Archives)
Bucharest, Romania

Feed Status: UP
Listen in your browser - HTML5 player(in browser, HTML5)
Click here to listen with your own player(launches your MP3 player)

LROP 222300Z AUTO 24007KT 9999 FEW099/// 14/12 Q1011 NOSIG

LROP Flight Activity (Flightaware)

Listeners: 0 out of 718 total

Bucharest Approach: 119.415
Bucharest Director: 127.155
Bucharest Tower: 118.805

LROP Twr/App/Radar (Archives)
Bucharest, Romania

Feed Status: UP
Listen in your browser - HTML5 player(in browser, HTML5)
Click here to listen with your own player(launches your MP3 player)

LROP 222300Z AUTO 24007KT 9999 FEW099/// 14/12 Q1011 NOSIG

LROP Flight Activity (Flightaware)

Listeners: 0 out of 718 total

Bucharest Approach: 119.415
Bucharest Director: 127.155
Bucharest Radar (Arges Mid sector): 121.175
Bucharest Radar (Arges Top Sector): 123.265
Bucharest Radar (Lomos Top Sector): 132.865
Bucharest Tower: 118.805

Note: Bucharest Radar on right stereo channel and Bucharest Tower/Approach on left stereo channel.

LRSB Tower/CTAF (Archives)
Sibiu, Romania

Feed Status: UP
Listen in your browser - HTML5 player(in browser, HTML5)
Click here to listen with your own player(launches your MP3 player)

LRSB 222300Z 28005KT 9999 FEW069 11/09 Q1012 NOSIG

LRSB Flight Activity (Flightaware)

Listeners: 0 out of 718 total

Sibiu Tower: 121.305

LRTR Tower (Archives)
Timisoara, Romania

Feed Status: UP
Listen in your browser - HTML5 player(in browser, HTML5)
Click here to listen with your own player(launches your MP3 player)

LRTR 222300Z AUTO 25008KT 9999 BKN080/// 15/14 Q1013

LRTR Flight Activity (Flightaware)

Listeners: 1 out of 718 total

ARAD Approach: 127.250
Timisoara Tower: 120.100

LSGG App/Radar (Archives)
Geneva, Switzerland

Feed Status: UP
Listen in your browser - HTML5 player(in browser, HTML5)
Click here to listen with your own player(launches your MP3 player)

LSGG 222320Z AUTO 22002KT CAVOK 10/05 Q1019 NOSIG

LSGG Flight Activity (Flightaware)

Listeners: 0 out of 718 total

Geneva Arrival: 136.250
Swiss Radar (L2 - FL290-FL310): 126.050

LSGG Approach (Archives)
Geneva, Switzerland

Feed Status: UP
Listen in your browser - HTML5 player(in browser, HTML5)
Click here to listen with your own player(launches your MP3 player)

LSGG 222320Z AUTO 22002KT CAVOK 10/05 Q1019 NOSIG

LSGG Flight Activity (Flightaware)

Listeners: 0 out of 718 total

Geneva Arrival: 136.250

LSGG Radar (Archives)
Geneva, Switzerland

Feed Status: UP
Listen in your browser - HTML5 player(in browser, HTML5)
Click here to listen with your own player(launches your MP3 player)

LSGG 222320Z AUTO 22002KT CAVOK 10/05 Q1019 NOSIG

LSGG Flight Activity (Flightaware)

Listeners: 0 out of 718 total

Swiss Radar (L2 - FL290-FL310): 126.050

LSGG Tower
Geneva, Switzerland

Feed Status: DOWN
Offline since: 2019-05-13 21:11:03 UTC

LSGG 222320Z AUTO 22002KT CAVOK 10/05 Q1019 NOSIG

Geneva Tower: 118.700

LSGS Gnd/Twr/App (Archives)
Sion, Switzerland

Feed Status: UP
Listen in your browser - HTML5 player(in browser, HTML5)
Click here to listen with your own player(launches your MP3 player)

LSGS 222320Z AUTO VRB02KT CAVOK 13/06 Q1018

LSGS Flight Activity (Flightaware)

Listeners: 0 out of 718 total

Alpine Jet Service Handling: 131.675
Sion Airport Handling: 131.475
Sion Approach (IFR ARR MIL OFF): 126.825
Sion Ground: 121.700
Sion Tower: 118.275

LiveATC LSGS - About us

LSMD Tower (Archives)
Dubendorf, Switzerland

Feed Status: UP
Listen in your browser - HTML5 player(in browser, HTML5)
Click here to listen with your own player(launches your MP3 player)

LSZH 222320Z 29006KT 9999 FEW050 08/07 Q1020 NOSIG

LSZH Flight Activity (Flightaware)

Listeners: 0 out of 718 total

Dubendorf Tower: 118.975

LSPM AFIS (Archives)
Ambri, Switzerland

Feed Status: UP
Listen in your browser - HTML5 player(in browser, HTML5)
Click here to listen with your own player(launches your MP3 player)

METAR NOT AVAILABLE

LSPM Flight Activity (Flightaware)

Listeners: 0 out of 718 total

Ambri AFIS: 118.525

LSZA Tower
Agno, Switzerland

Feed Status: DOWN
Offline since: 2019-05-22 22:05:02 UTC

LSZA 222320Z AUTO VRB02KT CAVOK 13/12 Q1016

Lugano Tower: 120.250

LSZB Tower/App/Dep (Archives)
Bern, Switzerland

Feed Status: UP
Listen in your browser - HTML5 player(in browser, HTML5)
Click here to listen with your own player(launches your MP3 player)

LSZB 222320Z AUTO VRB01KT 9999 FEW050 09/08 Q1019

LSZB Flight Activity (Flightaware)

Listeners: 0 out of 718 total

LSZB Arrival/Departure (left channel): 127.325
LSZB Tower (right channel): 121.025

LSZG Tower (Archives)
Grenchen, Switzerland

Feed Status: UP
Listen in your browser - HTML5 player(in browser, HTML5)
Click here to listen with your own player(launches your MP3 player)

LSZG 222320Z AUTO 08002KT CAVOK 08/07 Q1020

LSZG Flight Activity (Flightaware)

Listeners: 0 out of 718 total

Grenchen Tower: 120.100

LSZH Approach (East) (Archives)
Zurich, Switzerland

Feed Status: UP
Listen in your browser - HTML5 player(in browser, HTML5)
Click here to listen with your own player(launches your MP3 player)

LSZH 222320Z 29006KT 9999 FEW050 08/07 Q1020 NOSIG

LSZH Flight Activity (Flightaware)

Listeners: 0 out of 718 total

Zurich Approach (East): 135.225

LSZH Approach (West) (Archives)
Zurich, Switzerland

Feed Status: UP
Listen in your browser - HTML5 player(in browser, HTML5)
Click here to listen with your own player(launches your MP3 player)

LSZH 222320Z 29006KT 9999 FEW050 08/07 Q1020 NOSIG

LSZH Flight Activity (Flightaware)

Listeners: 0 out of 718 total

Zurich Approach (West): 118.000

LSZH Apron (South) (Archives)
Zurich, Switzerland

Feed Status: UP
Listen in your browser - HTML5 player(in browser, HTML5)
Click here to listen with your own player(launches your MP3 player)

LSZH 222320Z 29006KT 9999 FEW050 08/07 Q1020 NOSIG

LSZH Flight Activity (Flightaware)

Listeners: 0 out of 718 total

Zurich Apron (South): 121.755

LSZH Apron (West) (Archives)
Zurich, Switzerland

Feed Status: UP
Listen in your browser - HTML5 player(in browser, HTML5)
Click here to listen with your own player(launches your MP3 player)

LSZH 222320Z 29006KT 9999 FEW050 08/07 Q1020 NOSIG

LSZH Flight Activity (Flightaware)

Listeners: 0 out of 718 total

Zurich Apron (West): 121.855

LSZH Clearance Delivery (Archives)
Zurich, Switzerland

Feed Status: UP
Listen in your browser - HTML5 player(in browser, HTML5)
Click here to listen with your own player(launches your MP3 player)

LSZH 222320Z 29006KT 9999 FEW050 08/07 Q1020 NOSIG

LSZH Flight Activity (Flightaware)

Listeners: 0 out of 718 total

Zurich Clearance Delivery: 121.925

LSZH Ground (Archives)
Zurich, Switzerland

Feed Status: UP
Listen in your browser - HTML5 player(in browser, HTML5)
Click here to listen with your own player(launches your MP3 player)

LSZH 222320Z 29006KT 9999 FEW050 08/07 Q1020 NOSIG

LSZH Flight Activity (Flightaware)

Listeners: 0 out of 718 total

Zurich Ground: 121.905

LSZH Radar (Archives)
Zurich, Switzerland

Feed Status: UP
Listen in your browser - HTML5 player(in browser, HTML5)
Click here to listen with your own player(launches your MP3 player)

LSZH 222320Z 29006KT 9999 FEW050 08/07 Q1020 NOSIG

LSZH Flight Activity (Flightaware)

Listeners: 0 out of 718 total

Zurich Radar ACC (-FL240 East): 133.900
Zurich Radar ACC (-FL240 North): 136.150
Zurich Radar ACC (-FL240 South): 128.050
Zurich Radar ACC (-FL240 West): 135.675
Zurich Radar ACC (FL250-280): 133.050
Zurich Radar ACC (FL290-320): 132.815
Zurich Radar ACC (FL330-350): 134.600
Zurich Radar ACC (FL360+): 133.400

LSZH Radar 132.815 (Archives)
Zurich, Switzerland

Feed Status: UP
Listen in your browser - HTML5 player(in browser, HTML5)
Click here to listen with your own player(launches your MP3 player)

LSZH 222320Z 29006KT 9999 FEW050 08/07 Q1020 NOSIG

LSZH Flight Activity (Flightaware)

Listeners: 0 out of 718 total

Zurich Radar: 132.815

LSZH Radar 133.050 (Archives)
Zurich, Switzerland

Feed Status: UP
Listen in your browser - HTML5 player(in browser, HTML5)
Click here to listen with your own player(launches your MP3 player)

LSZH 222320Z 29006KT 9999 FEW050 08/07 Q1020 NOSIG

LSZH Flight Activity (Flightaware)

Listeners: 0 out of 718 total

Zurich Radar: 133.050

LSZH Radar 133.405 (Archives)
Zurich, Switzerland

Feed Status: UP
Listen in your browser - HTML5 player(in browser, HTML5)
Click here to listen with your own player(launches your MP3 player)

LSZH 222320Z 29006KT 9999 FEW050 08/07 Q1020 NOSIG

LSZH Flight Activity (Flightaware)

Listeners: 0 out of 718 total

Zurich Radar: 133.405

LSZH Radar 133.690 (Archives)
Zurich, Switzerland

Feed Status: UP
Listen in your browser - HTML5 player(in browser, HTML5)
Click here to listen with your own player(launches your MP3 player)

LSZH 222320Z 29006KT 9999 FEW050 08/07 Q1020 NOSIG

LSZH Flight Activity (Flightaware)

Listeners: 0 out of 718 total

Zurich Radar: 133.690

LSZH Radar 133.905 (Archives)
Zurich, Switzerland

Feed Status: UP
Listen in your browser - HTML5 player(in browser, HTML5)
Click here to listen with your own player(launches your MP3 player)

LSZH 222320Z 29006KT 9999 FEW050 08/07 Q1020 NOSIG

LSZH Flight Activity (Flightaware)

Listeners: 0 out of 718 total

Zurich Radar (Below FL240 East): 133.905

LSZH Radar 134.605 (Archives)
Zurich, Switzerland

Feed Status: UP
Listen in your browser - HTML5 player(in browser, HTML5)
Click here to listen with your own player(launches your MP3 player)

LSZH 222320Z 29006KT 9999 FEW050 08/07 Q1020 NOSIG

LSZH Flight Activity (Flightaware)

Listeners: 0 out of 718 total

Zurich Radar (FL330-350): 134.605

LSZH Radar 135.680 (Archives)
Zurich, Switzerland

Feed Status: UP
Listen in your browser - HTML5 player(in browser, HTML5)
Click here to listen with your own player(launches your MP3 player)

LSZH 222320Z 29006KT 9999 FEW050 08/07 Q1020 NOSIG

LSZH Flight Activity (Flightaware)

Listeners: 0 out of 718 total


LSZH Radar 136.155 (Archives)
Zurich, Switzerland

Feed Status: UP
Listen in your browser - HTML5 player(in browser, HTML5)
Click here to listen with your own player(launches your MP3 player)

LSZH 222320Z 29006KT 9999 FEW050 08/07 Q1020 NOSIG

LSZH Flight Activity (Flightaware)

Listeners: 0 out of 718 total

Zurich Radar (Below FL240 North): 136.155

LSZH Tower (Archives)
Zurich, Switzerland

Feed Status: UP
Listen in your browser - HTML5 player(in browser, HTML5)
Click here to listen with your own player(launches your MP3 player)

LSZH 222320Z 29006KT 9999 FEW050 08/07 Q1020 NOSIG

LSZH Flight Activity (Flightaware)

Listeners: 0 out of 718 total

Zurich Tower: 118.100

LSZH Tower #3 (Archives)
Zurich, Switzerland

Feed Status: UP
Listen in your browser - HTML5 player(in browser, HTML5)
Click here to listen with your own player(launches your MP3 player)

LSZH 222320Z 29006KT 9999 FEW050 08/07 Q1020 NOSIG

LSZH Flight Activity (Flightaware)

Listeners: 0 out of 718 total

Zurich Tower: 118.100

LSZH Tower (14/32) (Archives)
Zurich, Switzerland

Feed Status: UP
Listen in your browser - HTML5 player(in browser, HTML5)
Click here to listen with your own player(launches your MP3 player)

LSZH 222320Z 29006KT 9999 FEW050 08/07 Q1020 NOSIG

LSZH Flight Activity (Flightaware)

Listeners: 0 out of 718 total

Zurich Tower (Rwy 14 App/32 Takeoff): 120.225

LSZH Twr/Gnd (backup) (Archives)
Zurich, Switzerland

Feed Status: UP
Listen in your browser - HTML5 player(in browser, HTML5)
Click here to listen with your own player(launches your MP3 player)

LSZH 222320Z 29006KT 9999 FEW050 08/07 Q1020 NOSIG

LSZH Flight Activity (Flightaware)

Listeners: 0 out of 718 total

Zurich Twr/Gnd (backup): 119.700

LSZL Tower (Archives)
Locarno, Switzerland

Feed Status: UP
Listen in your browser - HTML5 player(in browser, HTML5)
Click here to listen with your own player(launches your MP3 player)

LSZL Flight Activity (Flightaware)

Listeners: 0 out of 718 total


LSZR Tower
Altenrhein, Switzerland

Feed Status: DOWN
Offline since: 2019-05-22 17:38:03 UTC

LSZR 222320Z AUTO VRB01KT 9999 NCD 09/08 Q1020

Altenrhein Tower: 135.425

LSZW CTAF (Archives)
Thun, Switzerland

Feed Status: UP
Listen in your browser - HTML5 player(in browser, HTML5)
Click here to listen with your own player(launches your MP3 player)

LSZW Flight Activity (Flightaware)

Listeners: 0 out of 718 total

Thun CTAF/Info: 123.250

LTAF Tower/Approach (Archives)
Adana, Turkey

Feed Status: UP
Listen in your browser - HTML5 player(in browser, HTML5)
Click here to listen with your own player(launches your MP3 player)

LTAF 222320Z 21002KT 9999 FEW040 BKN100 22/20 Q1014 NOSIG

LTAF Flight Activity (Flightaware)

Listeners: 0 out of 718 total

Adana Approach: 118.300
Adana Tower: 131.100
Adana Tower: 121.100

LTFJ Del/Gnd/Twr #1 (Archives)
Istanbul, Turkey

Feed Status: UP
Listen in your browser - HTML5 player(in browser, HTML5)
Click here to listen with your own player(launches your MP3 player)

LTFJ 222320Z 25003KT 210V300 9999 FEW040 BKN100 21/11 Q1013 NOSIG

LTFJ Flight Activity (Flightaware)

Listeners: 1 out of 718 total

Gokcen Clearance Delivery: 122.625
Gokcen Ground: 121.750
Gokcen Tower: 118.800

LTFJ Del/Gnd/Twr #2 (Archives)
Istanbul, Turkey

Feed Status: UP
Listen in your browser - HTML5 player(in browser, HTML5)
Click here to listen with your own player(launches your MP3 player)

LTFJ 222320Z 25003KT 210V300 9999 FEW040 BKN100 21/11 Q1013 NOSIG

LTFJ Flight Activity (Flightaware)

Listeners: 0 out of 718 total

Gokcen Clearance Delivery: 122.625
Gokcen Ground: 121.750
Gokcen Tower: 118.800

LUKK ACC #1 (Archives)
Chisinau, Moldova

Feed Status: UP
Listen in your browser - HTML5 player(in browser, HTML5)
Click here to listen with your own player(launches your MP3 player)

LUKK 222330Z VRB02KT CAVOK 11/09 Q1008 R08/CLRD// NOSIG

LUKK Flight Activity (Flightaware)

Listeners: 0 out of 718 total

Chisinau ACC: 130.975

Runway 08 Blog

LUKK ACC #2 (Archives)
Chisinau, Moldova

Feed Status: UP
Listen in your browser - HTML5 player(in browser, HTML5)
Click here to listen with your own player(launches your MP3 player)

LUKK 222330Z VRB02KT CAVOK 11/09 Q1008 R08/CLRD// NOSIG

LUKK Flight Activity (Flightaware)

Listeners: 0 out of 718 total

Chisinau ACC: 128.975

Runway 08 Blog

LUKK Air to Air (Archives)
Chisinau, Moldova

Feed Status: UP
Listen in your browser - HTML5 player(in browser, HTML5)
Click here to listen with your own player(launches your MP3 player)

LUKK 222330Z VRB02KT CAVOK 11/09 Q1008 R08/CLRD// NOSIG

LUKK Flight Activity (Flightaware)

Listeners: 0 out of 718 total

Chisinau Air to Air: 123.450

Runway 08 Blog

LUKK Alternate (Archives)
Chisinau, Moldova

Feed Status: UP
Listen in your browser - HTML5 player(in browser, HTML5)
Click here to listen with your own player(launches your MP3 player)

LUKK 222330Z VRB02KT CAVOK 11/09 Q1008 R08/CLRD// NOSIG

LUKK Flight Activity (Flightaware)

Listeners: 0 out of 718 total

Chisinau Alternate: 129.725

LUKK Approach #1 (Archives)
Chisinau, Moldova

Feed Status: UP
Listen in your browser - HTML5 player(in browser, HTML5)
Click here to listen with your own player(launches your MP3 player)

LUKK 222330Z VRB02KT CAVOK 11/09 Q1008 R08/CLRD// NOSIG

LUKK Flight Activity (Flightaware)

Listeners: 0 out of 718 total

Chisinau Approach: 133.300

LUKK Approach #2 (Archives)
Chisinau, Moldova

Feed Status: UP
Listen in your browser - HTML5 player(in browser, HTML5)
Click here to listen with your own player(launches your MP3 player)

LUKK 222330Z VRB02KT CAVOK 11/09 Q1008 R08/CLRD// NOSIG

LUKK Flight Activity (Flightaware)

Listeners: 0 out of 718 total

Chisinau Approach: 133.300

Runway 08 Blog

LUKK Control (Archives)
Chisinau, Moldova

Feed Status: UP
Listen in your browser - HTML5 player(in browser, HTML5)
Click here to listen with your own player(launches your MP3 player)

LUKK 222330Z VRB02KT CAVOK 11/09 Q1008 R08/CLRD// NOSIG

LUKK Flight Activity (Flightaware)

Listeners: 0 out of 718 total

Chisinau ACC: 128.975
Chisinau ACC: 130.975

LUKK Emergency/Guard (Archives)
Chisinau, Moldova

Feed Status: UP
Listen in your browser - HTML5 player(in browser, HTML5)
Click here to listen with your own player(launches your MP3 player)

LUKK 222330Z VRB02KT CAVOK 11/09 Q1008 R08/CLRD// NOSIG

LUKK Flight Activity (Flightaware)

Listeners: 0 out of 718 total

Emergency/Guard: 121.500

Runway 08 Blog

LUKK Ground #1 (Archives)
Chisinau, Moldova

Feed Status: UP
Listen in your browser - HTML5 player(in browser, HTML5)
Click here to listen with your own player(launches your MP3 player)

LUKK 222330Z VRB02KT CAVOK 11/09 Q1008 R08/CLRD// NOSIG

LUKK Flight Activity (Flightaware)

Listeners: 0 out of 718 total

Chisinau Ground: 121.800

LUKK Ground #2 (Archives)
Chisinau, Moldova

Feed Status: UP
Listen in your browser - HTML5 player(in browser, HTML5)
Click here to listen with your own player(launches your MP3 player)

LUKK 222330Z VRB02KT CAVOK 11/09 Q1008 R08/CLRD// NOSIG

LUKK Flight Activity (Flightaware)

Listeners: 0 out of 718 total

Chisinau Ground: 121.800

Runway 08 Blog

LUKK Handling (Archives)
Chisinau, Moldova

Feed Status: UP
Listen in your browser - HTML5 player(in browser, HTML5)
Click here to listen with your own player(launches your MP3 player)

LUKK 222330Z VRB02KT CAVOK 11/09 Q1008 R08/CLRD// NOSIG

LUKK Flight Activity (Flightaware)

Listeners: 0 out of 718 total

Chisinau Handling: 131.700

Runway 08 Blog

LUKK Tower #1 (Archives)
Chisinau, Moldova

Feed Status: UP
Listen in your browser - HTML5 player(in browser, HTML5)
Click here to listen with your own player(launches your MP3 player)

LUKK 222330Z VRB02KT CAVOK 11/09 Q1008 R08/CLRD// NOSIG

LUKK Flight Activity (Flightaware)

Listeners: 0 out of 718 total

Chisinau Tower: 118.100

LUKK Tower #2 (Archives)
Chisinau, Moldova

Feed Status: UP
Listen in your browser - HTML5 player(in browser, HTML5)
Click here to listen with your own player(launches your MP3 player)

LUKK 222330Z VRB02KT CAVOK 11/09 Q1008 R08/CLRD// NOSIG

LUKK Flight Activity (Flightaware)

Listeners: 0 out of 718 total

Chisinau Tower: 118.100

Runway 08 Blog

LWSK ACC (Lower) (Archives)
Petrovec, Macedonia, Republic of

Feed Status: UP
Listen in your browser - HTML5 player(in browser, HTML5)
Click here to listen with your own player(launches your MP3 player)

LWSK 222330Z 05001KT 9999 FEW060 12/11 Q1014 NOSIG

LWSK Flight Activity (Flightaware)

Listeners: 0 out of 718 total

Skopje Control (Lower): 119.375

LWSK ACC (Upper) (Archives)
Petrovec, Macedonia, Republic of

Feed Status: UP
Listen in your browser - HTML5 player(in browser, HTML5)
Click here to listen with your own player(launches your MP3 player)

LWSK 222330Z 05001KT 9999 FEW060 12/11 Q1014 NOSIG

LWSK Flight Activity (Flightaware)

Listeners: 0 out of 718 total

Skopje Control (Upper): 120.015

LWSK Approach (Archives)
Petrovec, Macedonia, Republic of

Feed Status: UP
Listen in your browser - HTML5 player(in browser, HTML5)
Click here to listen with your own player(launches your MP3 player)

LWSK 222330Z 05001KT 9999 FEW060 12/11 Q1014 NOSIG

LWSK Flight Activity (Flightaware)

Listeners: 0 out of 718 total

Skopje Approach/Departure: 120.300

LWSK ATIS (Archives)
Petrovec, Macedonia, Republic of

Feed Status: UP
Listen in your browser - HTML5 player(in browser, HTML5)
Click here to listen with your own player(launches your MP3 player)

LWSK 222330Z 05001KT 9999 FEW060 12/11 Q1014 NOSIG

LWSK Flight Activity (Flightaware)

Listeners: 0 out of 718 total

Skopje ATIS: 130.125

LWSK Tower (Archives)
Petrovec, Macedonia, Republic of

Feed Status: UP
Listen in your browser - HTML5 player(in browser, HTML5)
Click here to listen with your own player(launches your MP3 player)

LWSK 222330Z 05001KT 9999 FEW060 12/11 Q1014 NOSIG

LWSK Flight Activity (Flightaware)

Listeners: 0 out of 718 total

Skopje Tower: 118.500

LZIB Del/Twr/App (Archives)
Bratislava, Slovakia

Feed Status: UP
Listen in your browser - HTML5 player(in browser, HTML5)
Click here to listen with your own player(launches your MP3 player)

LZIB 222330Z VRB03KT 9999 FEW010 SCT015 BKN021 13/11 Q1013 WS ALL RWY

LZIB Flight Activity (Flightaware)

Listeners: 0 out of 718 total

Stefanik Approach: 120.900
Stefanik Clearance Delivery: 118.975
Stefanik Tower: 118.300
Stefanik Tower (backup): 118.700

(c) LPS

LZKZ Gnd/Twr/App (Archives)
Kosice, Slovakia

Feed Status: UP
Listen in your browser - HTML5 player(in browser, HTML5)
Click here to listen with your own player(launches your MP3 player)

LZKZ 222330Z 07001KT 9999 BKN008 13/12 Q1008

LZKZ Flight Activity (Flightaware)

Listeners: 0 out of 718 total

Kosice Approach: 119.850
Kosice Ground: 121.700
Kosice Handling: 131.850
Kosice Tower: 120.400

LZPE CTAF/UNICOM (Archives)
Prievidza, Slovakia

Feed Status: UP
Listen in your browser - HTML5 player(in browser, HTML5)
Click here to listen with your own player(launches your MP3 player)

LZPE Flight Activity (Flightaware)

Listeners: 0 out of 718 total

Prievidza CTAF/UNICOM: 123.055

LZPP Ground/Tower (Archives)
Piestany, Slovakia

Feed Status: UP
Listen in your browser - HTML5 player(in browser, HTML5)
Click here to listen with your own player(launches your MP3 player)

LZPP 222330Z AUTO 30009KT 9999 SCT031/// OVC065/// 13/10 Q1012

LZPP Flight Activity (Flightaware)

Listeners: 0 out of 718 total

Piestany Ground: 121.700
Piestany Tower: 118.575

LZPT CTAF (Archives)
Partizanske, Slovakia

Feed Status: UP
Listen in your browser - HTML5 player(in browser, HTML5)
Click here to listen with your own player(launches your MP3 player)

LZPT Flight Activity (Flightaware)

Listeners: 0 out of 718 total

Male Bielice CTAF: 123.500

MGGT Gnd/Twr (Archives)
Guatemala City, Guatemala

Feed Status: UP
Listen in your browser - HTML5 player(in browser, HTML5)
Click here to listen with your own player(launches your MP3 player)

MGGT 222300Z 20008KT 6000 VCSH FEW018 SCT025CB BKN200 22/18 Q1020 A3012 CB/PCPN SMC S CB NNW

MGGT Flight Activity (Flightaware)

Listeners: 2 out of 718 total

Guatemala City Ground: 121.900
Guatemala City Tower: 118.100

MGGT Ground (Archives)
Guatemala City, Guatemala

Feed Status: UP
Listen in your browser - HTML5 player(in browser, HTML5)
Click here to listen with your own player(launches your MP3 player)

MGGT 222300Z 20008KT 6000 VCSH FEW018 SCT025CB BKN200 22/18 Q1020 A3012 CB/PCPN SMC S CB NNW

MGGT Flight Activity (Flightaware)

Listeners: 0 out of 718 total

Guatemala City Ground: 121.900

MGGT Tower (Archives)
Guatemala City, Guatemala

Feed Status: UP
Listen in your browser - HTML5 player(in browser, HTML5)
Click here to listen with your own player(launches your MP3 player)

MGGT 222300Z 20008KT 6000 VCSH FEW018 SCT025CB BKN200 22/18 Q1020 A3012 CB/PCPN SMC S CB NNW

MGGT Flight Activity (Flightaware)

Listeners: 1 out of 718 total

Guatemala City Tower: 118.100

MHLC Gnd/Twr/Center (Archives)
La Ceiba, Honduras

Feed Status: UP
Listen in your browser - HTML5 player(in browser, HTML5)
Click here to listen with your own player(launches your MP3 player)

MHLC 222300Z 07009KT 9999 SCT025 BKN080 29/24 Q1007 A2974 RETS NOSIG

MHLC Flight Activity (Flightaware)

Listeners: 0 out of 718 total

CENAMER: 123.900
CENAMER: 124.300
Goloson Ground: 121.900
Goloson Tower: 118.500
La Ceiba Radio: 128.900

MHRO Gnd/Twr/App/Center (Archives)
Roatan, Honduras

Feed Status: UP
Listen in your browser - HTML5 player(in browser, HTML5)
Click here to listen with your own player(launches your MP3 player)

MHRO 222300Z 09012G26KT 9999 FEW016 FEW018CB SCT070 28/24 Q1009 A2980 NOSIG

MHRO Flight Activity (Flightaware)

Listeners: 0 out of 718 total

CENAMER (Center): 124.300
La Ceiba Radio: 128.900
Roatan Ground: 121.600
Roatan Tower: 118.100

MHTG ATIS (Archives)
Tegucigalpa, Honduras

Feed Status: UP
Listen in your browser - HTML5 player(in browser, HTML5)
Click here to listen with your own player(launches your MP3 player)

MHTG 222300Z 23006KT 9999 FEW028CB SCT030TCU BKN080 24/23 Q1013 A2991 RETS RERA NOSIG

MHTG Flight Activity (Flightaware)

Listeners: 0 out of 718 total

Toncontin ATIS: 127.750

MHTG Gnd/Twr/App/Ctr/Ops (Archives)
Tegucigalpa, Honduras

Feed Status: UP
Listen in your browser - HTML5 player(in browser, HTML5)
Click here to listen with your own player(launches your MP3 player)

MHTG 222300Z 23006KT 9999 FEW028CB SCT030TCU BKN080 24/23 Q1013 A2991 RETS RERA NOSIG

MHTG Flight Activity (Flightaware)

Listeners: 0 out of 718 total

American Airlines Ops: 130.700
ARINC ACARS: 131.550
Cenamer Center: 123.900
Cenamer Center: 124.300
Cenamer Center: 124.100
CMP Ops: 129.925
Continental Airlines Ops: 129.925
FAH Ground: 122.900
Taca Ops: 131.300
Taca Ops Sal: 130.300
Tecnologias Unidas: 133.000
Tegucigalpa RDO: 126.700
Toncontin Approach: 119.100
Toncontin Ground: 121.900
Toncontin Tower: 118.700

MMAN Tower (Archives)
Monterrey, Mexico

Feed Status: UP
Listen in your browser - HTML5 player(in browser, HTML5)
Click here to listen with your own player(launches your MP3 player)

MMAN 222240Z 14016KT 5SM SKC 35/20 A2970 RMK HZY ISOL SC

MMAN Flight Activity (Flightaware)

Listeners: 0 out of 718 total

Monterrey Tower: 118.600

MMCU Twr/App (Archives)
Chihuahua, Mexico

Feed Status: UP
Listen in your browser - HTML5 player(in browser, HTML5)
Click here to listen with your own player(launches your MP3 player)

MMCU 222244Z 20020KT 10SM SKC 36/M02 A2975

MMCU Flight Activity (Flightaware)

Listeners: 1 out of 718 total

Chihuahua Approach: 121.000
Chihuahua Tower: 118.400

MMGL Twr/App (Archives)
Guadalajara, Mexico

Feed Status: UP
Listen in your browser - HTML5 player(in browser, HTML5)
Click here to listen with your own player(launches your MP3 player)

MMGL 222241Z 31021KT 8SM BKN300 32/M06 A3000 RMK 8/008

MMGL Flight Activity (Flightaware)

Listeners: 1 out of 718 total

Guadalajara Approach: 120.800
Guadalajara Tower: 118.100

MMHO App/Dep (Archives)
Hermosillo, Mexico

Feed Status: UP
Listen in your browser - HTML5 player(in browser, HTML5)
Click here to listen with your own player(launches your MP3 player)

MMHO 222240Z 22020KT 10SM SKC 31/10 A2973

MMHO Flight Activity (Flightaware)

Listeners: 0 out of 718 total

Hermosillo Approach/Departure: 121.400

MMHO Tower (Archives)
Hermosillo, Mexico

Feed Status: UP
Listen in your browser - HTML5 player(in browser, HTML5)
Click here to listen with your own player(launches your MP3 player)

MMHO 222240Z 22020KT 10SM SKC 31/10 A2973

MMHO Flight Activity (Flightaware)

Listeners: 0 out of 718 total

Hermosillo Tower: 118.700

MMLP Twr/App/Center (Archives)
La Paz, Mexico

Feed Status: UP
Listen in your browser - HTML5 player(in browser, HTML5)
Click here to listen with your own player(launches your MP3 player)

MMLP 222253Z 28006KT 10SM SKC 30/03 A2978

MMLP Flight Activity (Flightaware)

Listeners: 0 out of 718 total

La Paz Approach: 120.600
La Paz Tower: 118.100
Mazatlan Center: 128.000
Mazatlan Center: 124.400
Mazatlan Center: 128.300
Mazatlan Center: 124.200
Mazatlan Center: 126.300
Mazatlan Center: 126.500
San Jose Approach: 120.900

Merida Center (West 123.75) (Archives)
Merida, Mexico

Feed Status: UP
Listen in your browser - HTML5 player(in browser, HTML5)
Click here to listen with your own player(launches your MP3 player)

MMID Flight Activity (Flightaware)

Listeners: 0 out of 718 total

Merida Center (West): 123.750

Merida Center (West 125.8) (Archives)
Merida, Mexico

Feed Status: UP
Listen in your browser - HTML5 player(in browser, HTML5)
Click here to listen with your own player(launches your MP3 player)

MMID Flight Activity (Flightaware)

Listeners: 0 out of 718 total

Merida Center (West): 125.800

MMMD Tower/Approach (Archives)
Merida, Mexico

Feed Status: UP
Listen in your browser - HTML5 player(in browser, HTML5)
Click here to listen with your own player(launches your MP3 player)

MMMD 222244Z 14012KT 7SM BKN025TCU 37/19 A2975 RMK 8/200

MMMD Flight Activity (Flightaware)

Listeners: 0 out of 718 total

Merida Approach: 121.200
Merida Tower: 118.300

MMMM Tower (Archives)
Morelia, Mexico

Feed Status: UP
Listen in your browser - HTML5 player(in browser, HTML5)
Click here to listen with your own player(launches your MP3 player)

MMMM 222244Z 20008KT 5SM SCT030 31/07 A3002 RMK 8/500 HZY CB E AC CI

MMMM Flight Activity (Flightaware)

Listeners: 0 out of 718 total

Morelia Tower: 118.500

MMMX Approach (Archives)
Mexico City, Mexico

Feed Status: UP
Listen in your browser - HTML5 player(in browser, HTML5)
Click here to listen with your own player(launches your MP3 player)

MMMX 222252Z 16008KT 6SM BKN025CB BKN100 29/00 A3011 NOSIG RMK 8/360 HZY ISOL CI

MMMX Flight Activity (Flightaware)

Listeners: 3 out of 718 total

Mexico City Approach: 121.200

MMMX Twr/App (Archives)
Mexico City, Mexico

Feed Status: UP
Listen in your browser - HTML5 player(in browser, HTML5)
Click here to listen with your own player(launches your MP3 player)

MMMX 222252Z 16008KT 6SM BKN025CB BKN100 29/00 A3011 NOSIG RMK 8/360 HZY ISOL CI

MMMX Flight Activity (Flightaware)

Listeners: 7 out of 718 total

Mexico City Approach: 121.200
Mexico City Final Approach: 119.750
Mexico City Helicopters: 118.150
Mexico City Terminal: 129.600
Mexico City Tower: 118.550

MMMY Tower/Approach (Archives)
Monterrey, Mexico

Feed Status: UP
Listen in your browser - HTML5 player(in browser, HTML5)
Click here to listen with your own player(launches your MP3 player)

MMMY 222240Z 12013KT 4SM FEW030 36/22 A2965 RMK 8/100 HZY

MMMY Flight Activity (Flightaware)

Listeners: 0 out of 718 total

Monterrey Approach/Departure: 119.750
Monterrey Tower: 118.100

MMPC CTAF
Pachuca, Mexico

Feed Status: DOWN
Offline since: 2019-03-02 20:24:04 UTC

Pachuca CTAF/AFIS: 122.900

MMQT Tower/App (Archives)
Queretaro, Mexico

Feed Status: UP
Listen in your browser - HTML5 player(in browser, HTML5)
Click here to listen with your own player(launches your MP3 player)

MMQT 222332Z 20013G25KT 1SM HZ BKN018 BKN080 OVC200 27/05 A3007

MMQT Flight Activity (Flightaware)

Listeners: out of 718 total

Queretaro Approach: 127.200
Queretaro Tower: 118.950

MMSP Gnd/Twr/App/Center (Archives)
San Luis Potosi, Mexico

Feed Status: UP
Listen in your browser - HTML5 player(in browser, HTML5)
Click here to listen with your own player(launches your MP3 player)

MMSP 222252Z 12010KT 12SM SCT025 33/00 A3000 RMK 8/100 HZY TCU SE

MMSP Flight Activity (Flightaware)

Listeners: 0 out of 718 total

AMX Ground Ops: 131.000
Mexico Center (North, Sector 6): 126.000
Mexico Center (Northwest, Sector 7): 123.900
Mexico Center (West, Sector 5): 125.100
Potosi Approach: 127.500
Potosi Tower: 118.900
TAO Ground Ops: 133.600

MMTC Twr/App/Center (Archives)
Torreon, Mexico

Feed Status: UP
Listen in your browser - HTML5 player(in browser, HTML5)
Click here to listen with your own player(launches your MP3 player)

MMTC 222240Z 02010KT 10SM SKC 39/M03 A2973 RMK HZY

MMTC Flight Activity (Flightaware)

Listeners: 0 out of 718 total

Mazatlan Center: 124.200
Mazatlan Center: 124.400
Mazatlan Center: 128.000
Mexico Center: 123.900
Monterrey Center: 125.600
Monterrey Center: 125.425
Monterrey Center: 127.400
Torreon Approach: 119.500
Torreon Tower: 118.500

MMTJ Approach (Archives)
Tijuana, Mexico

Feed Status: UP
Listen in your browser - HTML5 player(in browser, HTML5)
Click here to listen with your own player(launches your MP3 player)

MMTJ 222251Z 25011KT 8SM BKN025 16/09 A2982 RMK 8/400 HZY FU SE

MMTJ Flight Activity (Flightaware)

Listeners: 0 out of 718 total

Tijuana Approach: 120.300

MMTJ Twr/Ramp (Archives)
Tijuana, Mexico

Feed Status: UP
Listen in your browser - HTML5 player(in browser, HTML5)
Click here to listen with your own player(launches your MP3 player)

MMTJ 222251Z 25011KT 8SM BKN025 16/09 A2982 RMK 8/400 HZY FU SE

MMTJ Flight Activity (Flightaware)

Listeners: 0 out of 718 total

Tijuana Ramp: 126.100
Tijuana Tower: 118.100

MROC Del/Gnd/Twr (Archives)
San Jose, Costa Rica

Feed Status: UP
Listen in your browser - HTML5 player(in browser, HTML5)
Click here to listen with your own player(launches your MP3 player)

MROC 222300Z 27007KT 3000 RA BR SCT003 BKN030 21/20 A2999 NOSIG

MROC Flight Activity (Flightaware)

Listeners: 0 out of 718 total

Coco Clearance Delivery/Ground: 121.900
Coco Tower: 118.600

MROC Del/Gnd/Twr/App/Center/Misc (Archives)
San Jose, Costa Rica

Feed Status: UP
Listen in your browser - HTML5 player(in browser, HTML5)
Click here to listen with your own player(launches your MP3 player)

MROC 222300Z 27007KT 3000 RA BR SCT003 BKN030 21/20 A2999 NOSIG

MROC Flight Activity (Flightaware)

Listeners: 1 out of 718 total

Central American Center (CENAMER Control): 124.100
Coco Center (Control over CR Airspace): 119.600
Coco Clearance Delivery: 121.300
Coco Ground: 121.900
Coco Terminal Control: 120.500
Coco Tower: 118.600
Coco UNICOM: 126.800
SYQ Ground: 121.700
SYQ Tower: 118.300

MSLP Gnd/Twr/App (Archives)
San Salvador, El Salvador

Feed Status: UP
Listen in your browser - HTML5 player(in browser, HTML5)
Click here to listen with your own player(launches your MP3 player)

MSLP 222250Z 26004KT 170V320 9999 BKN020 SCT037CB 29/25 Q1007 A2975 NOSIG RMK CB LTG N NE NW

MSLP Flight Activity (Flightaware)

Listeners: 0 out of 718 total

Comalapa Ground: 121.700
Comalapa Tower: 118.000
Compalapa Approach: 119.900

MUFH Havana FIR (App/Center) (Archives)
Havana, Cuba

Feed Status: UP
Listen in your browser - HTML5 player(in browser, HTML5)
Click here to listen with your own player(launches your MP3 player)

MUFH Flight Activity (Flightaware)

Listeners: 0 out of 718 total

Hava Approach: 120.300
Havana Center: 120.250
Havana Center: 123.700
Havana Center: 124.550
Havana Center: 133.700
Havana Center: 135.100

OBBI Gnd/Twr/App (Archives)
Muharraq, Bahrain

Feed Status: UP
Listen in your browser - HTML5 player(in browser, HTML5)
Click here to listen with your own player(launches your MP3 player)

OBBI 222330Z 24003KT 210V270 CAVOK 31/19 Q1007 NOSIG


Listeners: 1 out of 718 total

Bahrain Arrival: 127.850
Bahrain Departure: 119.100
Bahrain Ground: 121.850
Bahrain Tower: 118.500

OKBK Gnd/Twr/App/Radar (Archives)
Kuwait City, Kuwait

Feed Status: UP
Listen in your browser - HTML5 player(in browser, HTML5)
Click here to listen with your own player(launches your MP3 player)

OKBK 222300Z 21003KT CAVOK 26/15 Q1008 NOSIG


Listeners: 0 out of 718 total

Kuwait Approach: 121.300
Kuwait Approach: 124.800
Kuwait Ground: 121.700
Kuwait Radar (Center): 125.300
Kuwait Tower: 118.300

OMAA Approach (Archives)
Abu Dhabi, United Arab Emirates

Feed Status: UP
Listen in your browser - HTML5 player(in browser, HTML5)
Click here to listen with your own player(launches your MP3 player)

OMAA 222300Z 25004KT 220V280 CAVOK 27/21 Q1007 WS ALL RWY NOSIG


Listeners: 0 out of 718 total

Abu Dhabi Approach: 124.400

OMDW Approach (Archives)
Jebel Ali, United Arab Emirates

Feed Status: UP
Listen in your browser - HTML5 player(in browser, HTML5)
Click here to listen with your own player(launches your MP3 player)

OMDW 222300Z 18004KT CAVOK 26/21 Q1008 NOSIG


Listeners: 0 out of 718 total

Al Maktoum Approach: 124.025

OPKC Gnd/Twr/Radar (Archives)
Karachi, Pakistan

Feed Status: UP
Listen in your browser - HTML5 player(in browser, HTML5)
Click here to listen with your own player(launches your MP3 player)

OPKC 222255Z 24004KT 6000 NSC 29/23 Q1005 NOSIG


Listeners: 0 out of 718 total

Karachi Ground: 121.600
Karachi Radar: 125.500
Karachi Tower: 118.300

OPLA ATIS (Archives)
Lahore, Pakistan

Feed Status: UP
Listen in your browser - HTML5 player(in browser, HTML5)
Click here to listen with your own player(launches your MP3 player)

OPLA 222259Z 23020KT 3000 TSRA FEW030CB SCT040 OVC100 26/17 Q1005 RMK TEMPO 32020G40KT 0800 DSTSRA FEW030CB RMK A29.68


Listeners: 0 out of 718 total

Lahore ATIS: 126.300

OPLA/OPLH Gnd/Twr/App (Archives)
Lahore, Pakistan

Feed Status: UP
Listen in your browser - HTML5 player(in browser, HTML5)
Click here to listen with your own player(launches your MP3 player)

OPLA 222259Z 23020KT 3000 TSRA FEW030CB SCT040 OVC100 26/17 Q1005 RMK TEMPO 32020G40KT 0800 DSTSRA FEW030CB RMK A29.68


Listeners: 1 out of 718 total

Lahore Approach: 121.300
Lahore Approach: 125.300
Lahore Control: 127.500
Lahore Ground: 118.400
Lahore Tower: 118.100
Lahore Tower: 121.800
Walton (OPLH) Tower: 119.400

OPLA/OPLH Gnd/Twr/App (Archives)
Lahore, Pakistan

Feed Status: UP
Listen in your browser - HTML5 player(in browser, HTML5)
Click here to listen with your own player(launches your MP3 player)

OPLA 222259Z 23020KT 3000 TSRA FEW030CB SCT040 OVC100 26/17 Q1005 RMK TEMPO 32020G40KT 0800 DSTSRA FEW030CB RMK A29.68


Listeners: 1 out of 718 total

Lahore Approach: 121.300
Lahore Approach: 125.300
Lahore Control: 127.500
Lahore Ground: 118.400
Lahore Tower: 118.100
Lahore Tower: 121.800
Walton (OPLH) Tower: 119.400

RCTP Approach
Taipei, Taiwan

Feed Status: DOWN
Offline since: 2019-05-22 22:05:02 UTC

RCTP 222300Z 05003KT 8000 -RA FEW010 BKN020 BKN030 22/21 Q1012 NOSIG RMK A2990

Emergency/Guard: 121.500
Taipei Approach: 125.100
Taipei Approach: 125.600
Taipei Approach: 128.500

RCTP Tower
Taipei, Taiwan

Feed Status: DOWN
Offline since: 2019-05-22 22:05:02 UTC

RCTP 222300Z 05003KT 8000 -RA FEW010 BKN020 BKN030 22/21 Q1012 NOSIG RMK A2990

Taipei Tower: 118.700

RJAA Approach (Archives)
Tokyo, Japan

Feed Status: UP
Listen in your browser - HTML5 player(in browser, HTML5)
Click here to listen with your own player(launches your MP3 player)

RJAA 222300Z 01006KT 320V040 CAVOK 20/09 Q1009 NOSIG

RJAA Flight Activity (Flightaware)

Listeners: 6 out of 718 total

Tokyo Approach: 124.400
Tokyo Approach: 127.700

RJAA Clearance Delivery (Archives)
Tokyo, Japan

Feed Status: UP
Listen in your browser - HTML5 player(in browser, HTML5)
Click here to listen with your own player(launches your MP3 player)

RJAA 222300Z 01006KT 320V040 CAVOK 20/09 Q1009 NOSIG

RJAA Flight Activity (Flightaware)

Listeners: 1 out of 718 total

Narita Clearance Delivery (Asia/Pacific): 121.650
Narita Clearance Delivery (US/Europe): 121.900

RJAA Clearance Delivery #1 (Archives)
Tokyo, Japan

Feed Status: UP
Listen in your browser - HTML5 player(in browser, HTML5)
Click here to listen with your own player(launches your MP3 player)

RJAA 222300Z 01006KT 320V040 CAVOK 20/09 Q1009 NOSIG

RJAA Flight Activity (Flightaware)

Listeners: 0 out of 718 total

Narita Clearance Delivery (Asia/Pacific): 121.650

RJAA Clearance Delivery #2 (Archives)
Tokyo, Japan

Feed Status: UP
Listen in your browser - HTML5 player(in browser, HTML5)
Click here to listen with your own player(launches your MP3 player)

RJAA 222300Z 01006KT 320V040 CAVOK 20/09 Q1009 NOSIG

RJAA Flight Activity (Flightaware)

Listeners: 0 out of 718 total

Narita Clearance Delivery (US/Europe): 121.900

RJAA Company Channels (Archives)
Tokyo, Japan

Feed Status: UP
Listen in your browser - HTML5 player(in browser, HTML5)
Click here to listen with your own player(launches your MP3 player)

RJAA 222300Z 01006KT 320V040 CAVOK 20/09 Q1009 NOSIG

RJAA Flight Activity (Flightaware)

Listeners: 0 out of 718 total

Ops: 130.450
Ops: 130.550
Ops: 130.900
Ops: 131.025
Ops: 131.100
Ops: 131.200
Ops: 131.700
Ops: 131.750

RJAA Departure (Archives)
Tokyo, Japan

Feed Status: UP
Listen in your browser - HTML5 player(in browser, HTML5)
Click here to listen with your own player(launches your MP3 player)

RJAA 222300Z 01006KT 320V040 CAVOK 20/09 Q1009 NOSIG

RJAA Flight Activity (Flightaware)

Listeners: 1 out of 718 total

Tokyo Departure: 119.600
Tokyo Departure: 124.200

RJAA Departure #1 (Archives)
Tokyo, Japan

Feed Status: UP
Listen in your browser - HTML5 player(in browser, HTML5)
Click here to listen with your own player(launches your MP3 player)

RJAA 222300Z 01006KT 320V040 CAVOK 20/09 Q1009 NOSIG

RJAA Flight Activity (Flightaware)

Listeners: 0 out of 718 total

Tokyo Departure: 124.200

RJAA Departure #2 (Archives)
Tokyo, Japan

Feed Status: UP
Listen in your browser - HTML5 player(in browser, HTML5)
Click here to listen with your own player(launches your MP3 player)

RJAA 222300Z 01006KT 320V040 CAVOK 20/09 Q1009 NOSIG

RJAA Flight Activity (Flightaware)

Listeners: 0 out of 718 total

Tokyo Departure: 119.600

RJAA Emergency/Guard (Archives)
Tokyo, Japan

Feed Status: UP
Listen in your browser - HTML5 player(in browser, HTML5)
Click here to listen with your own player(launches your MP3 player)

RJAA 222300Z 01006KT 320V040 CAVOK 20/09 Q1009 NOSIG

RJAA Flight Activity (Flightaware)

Listeners: 0 out of 718 total

Emergency/Guard: 121.500

RJAA Ground #1 (Archives)
Tokyo, Japan

Feed Status: UP
Listen in your browser - HTML5 player(in browser, HTML5)
Click here to listen with your own player(launches your MP3 player)

RJAA 222300Z 01006KT 320V040 CAVOK 20/09 Q1009 NOSIG

RJAA Flight Activity (Flightaware)

Listeners: 0 out of 718 total

Narita Ground: 121.850

RJAA Ground #2 (Archives)
Tokyo, Japan

Feed Status: UP
Listen in your browser - HTML5 player(in browser, HTML5)
Click here to listen with your own player(launches your MP3 player)

RJAA 222300Z 01006KT 320V040 CAVOK 20/09 Q1009 NOSIG

RJAA Flight Activity (Flightaware)

Listeners: 0 out of 718 total

Narita Ground: 121.950

RJAA Radar (Archives)
Tokyo, Japan

Feed Status: UP
Listen in your browser - HTML5 player(in browser, HTML5)
Click here to listen with your own player(launches your MP3 player)

RJAA 222300Z 01006KT 320V040 CAVOK 20/09 Q1009 NOSIG

RJAA Flight Activity (Flightaware)

Listeners: 0 out of 718 total

Tokyo Radar: 120.200

RJAA Ramp #1 (Archives)
Tokyo, Japan

Feed Status: UP
Listen in your browser - HTML5 player(in browser, HTML5)
Click here to listen with your own player(launches your MP3 player)

RJAA 222300Z 01006KT 320V040 CAVOK 20/09 Q1009 NOSIG

RJAA Flight Activity (Flightaware)

Listeners: 0 out of 718 total

Narita Ramp: 121.600

RJAA Ramp #2 (Archives)
Tokyo, Japan

Feed Status: UP
Listen in your browser - HTML5 player(in browser, HTML5)
Click here to listen with your own player(launches your MP3 player)

RJAA 222300Z 01006KT 320V040 CAVOK 20/09 Q1009 NOSIG

RJAA Flight Activity (Flightaware)

Listeners: 0 out of 718 total

Narita Ramp: 121.750

RJAA TCA (Archives)
Tokyo, Japan

Feed Status: UP
Listen in your browser - HTML5 player(in browser, HTML5)
Click here to listen with your own player(launches your MP3 player)

RJAA 222300Z 01006KT 320V040 CAVOK 20/09 Q1009 NOSIG

RJAA Flight Activity (Flightaware)

Listeners: 1 out of 718 total

Tokyo TCA (Terminal Control Area): 119.450

RJAA Tokyo Control (Archives)
Tokyo, Japan

Feed Status: UP
Listen in your browser - HTML5 player(in browser, HTML5)
Click here to listen with your own player(launches your MP3 player)

RJAA 222300Z 01006KT 320V040 CAVOK 20/09 Q1009 NOSIG

RJAA Flight Activity (Flightaware)

Listeners: 0 out of 718 total

Tokyo Control: 125.900

RJAA Tower #1 (Archives)
Tokyo, Japan

Feed Status: UP
Listen in your browser - HTML5 player(in browser, HTML5)
Click here to listen with your own player(launches your MP3 player)

RJAA 222300Z 01006KT 320V040 CAVOK 20/09 Q1009 NOSIG

RJAA Flight Activity (Flightaware)

Listeners: 1 out of 718 total

Narita Tower (Rwy 16R/34L): 118.200

RJAA Tower #2 (Archives)
Tokyo, Japan

Feed Status: UP
Listen in your browser - HTML5 player(in browser, HTML5)
Click here to listen with your own player(launches your MP3 player)

RJAA 222300Z 01006KT 320V040 CAVOK 20/09 Q1009 NOSIG

RJAA Flight Activity (Flightaware)

Listeners: 3 out of 718 total

Narita Tower (Rwy 16L/34R): 118.350

RJOO Tower (Archives)
Osaka, Japan

Feed Status: UP
Listen in your browser - HTML5 player(in browser, HTML5)
Click here to listen with your own player(launches your MP3 player)

RJOO 222300Z VRB02KT CAVOK 20/08 Q1011

RJOO Flight Activity (Flightaware)

Listeners: 2 out of 718 total

Osaka Tower: 118.100

RJSF RDO (Archives)
Sukagawa, Japan

Feed Status: UP
Listen in your browser - HTML5 player(in browser, HTML5)
Click here to listen with your own player(launches your MP3 player)

RJSF 222300Z 34003KT 280V030 CAVOK 17/07 Q1010

RJSF Flight Activity (Flightaware)

Listeners: 3 out of 718 total

Fukushima Radio: 118.050

RJTT App/Dep (Archives)
Tokyo, Japan

Feed Status: UP
Listen in your browser - HTML5 player(in browser, HTML5)
Click here to listen with your own player(launches your MP3 player)

RJTT 222300Z 35008KT 9999 FEW030 21/11 Q1009 NOSIG

RJTT Flight Activity (Flightaware)

Listeners: 11 out of 718 total

Tokyo Approach: 119.100
Tokyo Approach: 119.400
Tokyo Departure: 120.800
Tokyo Departure: 126.000

RJTT Approach (Archives)
Tokyo, Japan

Feed Status: UP
Listen in your browser - HTML5 player(in browser, HTML5)
Click here to listen with your own player(launches your MP3 player)

RJTT 222300Z 35008KT 9999 FEW030 21/11 Q1009 NOSIG

RJTT Flight Activity (Flightaware)

Listeners: 10 out of 718 total

Tokyo Approach: 119.100
Tokyo Approach: 119.400

RJTT ATIS (Archives)
Tokyo, Japan

Feed Status: UP
Listen in your browser - HTML5 player(in browser, HTML5)
Click here to listen with your own player(launches your MP3 player)

RJTT 222300Z 35008KT 9999 FEW030 21/11 Q1009 NOSIG

RJTT Flight Activity (Flightaware)

Listeners: 0 out of 718 total

Tokyo ATIS: 128.800

RJTT Company Channels (Archives)
Tokyo, Japan

Feed Status: UP
Listen in your browser - HTML5 player(in browser, HTML5)
Click here to listen with your own player(launches your MP3 player)

RJTT 222300Z 35008KT 9999 FEW030 21/11 Q1009 NOSIG

RJTT Flight Activity (Flightaware)

Listeners: 6 out of 718 total

Company TBD: 128.500
Company TBD: 131.850
Company TBD: 129.725
Company TBD: 129.700
Company TBD: 131.900
Company TBD: 129.850
Company TBD: 128.975
Company TBD: 123.675
Company TBD: 132.075

RJTT Del/Ground (Archives)
Tokyo, Japan

Feed Status: UP
Listen in your browser - HTML5 player(in browser, HTML5)
Click here to listen with your own player(launches your MP3 player)

RJTT 222300Z 35008KT 9999 FEW030 21/11 Q1009 NOSIG

RJTT Flight Activity (Flightaware)

Listeners: 0 out of 718 total

Tokyo Clearance Delivery: 121.825
Tokyo Ground: 121.700
Tokyo Ground: 118.225
Tokyo Ground: 121.625
Tokyo Ground: 121.975

RJTT Del/Twr/TCA/Gnd (Archives)
Tokyo, Japan

Feed Status: UP
Listen in your browser - HTML5 player(in browser, HTML5)
Click here to listen with your own player(launches your MP3 player)

RJTT 222300Z 35008KT 9999 FEW030 21/11 Q1009 NOSIG

RJTT Flight Activity (Flightaware)

Listeners: 8 out of 718 total

Tokyo Clearance Delivery: 121.825
Tokyo Ground: 121.975
Tokyo Ground: 121.625
Tokyo Ground: 121.700
Tokyo Ground: 118.225
Tokyo TCA: 124.750
Tokyo Tower: 118.100
Tokyo Tower: 118.575
Tokyo Tower: 118.725
Tokyo Tower: 124.350

RJTT Departure (Archives)
Tokyo, Japan

Feed Status: UP
Listen in your browser - HTML5 player(in browser, HTML5)
Click here to listen with your own player(launches your MP3 player)

RJTT 222300Z 35008KT 9999 FEW030 21/11 Q1009 NOSIG

RJTT Flight Activity (Flightaware)

Listeners: 4 out of 718 total

Tokyo Departure: 120.800
Tokyo Departure: 126.000

RJTT Tokyo Control (Archives)
Tokyo, Japan

Feed Status: UP
Listen in your browser - HTML5 player(in browser, HTML5)
Click here to listen with your own player(launches your MP3 player)

RJTT 222300Z 35008KT 9999 FEW030 21/11 Q1009 NOSIG

RJTT Flight Activity (Flightaware)

Listeners: 8 out of 718 total

Tokyo Control: 133.700
Tokyo Control: 125.900
Tokyo Control: 120.500

RJTT Twr/TCA (Archives)
Tokyo, Japan

Feed Status: UP
Listen in your browser - HTML5 player(in browser, HTML5)
Click here to listen with your own player(launches your MP3 player)

RJTT 222300Z 35008KT 9999 FEW030 21/11 Q1009 NOSIG

RJTT Flight Activity (Flightaware)

Listeners: 4 out of 718 total

Tokyo TCA: 124.750
Tokyo Tower: 118.100
Tokyo Tower: 118.575
Tokyo Tower: 118.725
Tokyo Tower: 124.350

RJTY Approach (Archives)
Tokyo, Japan

Feed Status: UP
Listen in your browser - HTML5 player(in browser, HTML5)
Click here to listen with your own player(launches your MP3 player)

RJTY 222256Z AUTO 00000KT 10SM CLR 21/11 A2986 RMK AO2 SLP111 T02110108 FZRANO $

RJTY Flight Activity (Flightaware)

Listeners: 4 out of 718 total

Yokota Approach: 118.300
Yokota APproach: 123.800
Yokota Approach: 120.700

RJTY ATIS (Archives)
Tokyo, Japan

Feed Status: UP
Listen in your browser - HTML5 player(in browser, HTML5)
Click here to listen with your own player(launches your MP3 player)

RJTY 222256Z AUTO 00000KT 10SM CLR 21/11 A2986 RMK AO2 SLP111 T02110108 FZRANO $

RJTY Flight Activity (Flightaware)

Listeners: 0 out of 718 total

Yokota ATIS: 126.400

RJTY Ground (Archives)
Tokyo, Japan

Feed Status: UP
Listen in your browser - HTML5 player(in browser, HTML5)
Click here to listen with your own player(launches your MP3 player)

RJTY 222256Z AUTO 00000KT 10SM CLR 21/11 A2986 RMK AO2 SLP111 T02110108 FZRANO $

RJTY Flight Activity (Flightaware)

Listeners: 0 out of 718 total

Yokota Ground: 133.200

RJTY Ground/Tower (Archives)
Tokyo, Japan

Feed Status: UP
Listen in your browser - HTML5 player(in browser, HTML5)
Click here to listen with your own player(launches your MP3 player)

RJTY 222256Z AUTO 00000KT 10SM CLR 21/11 A2986 RMK AO2 SLP111 T02110108 FZRANO $

RJTY Flight Activity (Flightaware)

Listeners: 0 out of 718 total

Yokota Ground: 133.200
Yokota Tower: 134.300

RJTY Tower (Archives)
Tokyo, Japan

Feed Status: UP
Listen in your browser - HTML5 player(in browser, HTML5)
Click here to listen with your own player(launches your MP3 player)

RJTY 222256Z AUTO 00000KT 10SM CLR 21/11 A2986 RMK AO2 SLP111 T02110108 FZRANO $

RJTY Flight Activity (Flightaware)

Listeners: 2 out of 718 total

Yokota Tower: 134.300

RKSG Gnd/Twr/App (Archives)
Pyeongtaek, Korea, Republic of

Feed Status: UP
Listen in your browser - HTML5 player(in browser, HTML5)
Click here to listen with your own player(launches your MP3 player)

RKSG 222255Z 13003KT 4SM HZ SKC 18/10 A2982 RMK AO2A SLP096 WND DATA ESTMD ALSTG/SLP ESTMD $

RKSG Flight Activity (Flightaware)

Listeners: 1 out of 718 total

Desiderio Final: 255.800
Desiderio GCA: 226.800
Desiderio GCA: 127.000
Desiderio Ground (Camp Humphreys A-511 AAF): 119.500
Desiderio Ground UHF: 229.700
Desiderio Ops: 294.100
Desiderio Tower (Camp Humphreys A-511 AAF): 122.500
Desiderio Tower UHF: 257.800

RKRR Incheon Control (Archives)
Incheon, Korea, Republic of

Feed Status: UP
Listen in your browser - HTML5 player(in browser, HTML5)
Click here to listen with your own player(launches your MP3 player)

RKSI 222300Z 15006KT 5000 HZ NSC 17/12 Q1009 NOSIG

RKSI Flight Activity (Flightaware)

Listeners: 4 out of 718 total

Incheon Control North Sector (Primary): 128.700
Incheon Control North Sector (Secondary): 132.800
Incheon Control Northwest Sector (Primary): 126.175
Incheon Control Northwest Sector (Secondary): 123.725

RKSO Gnd/Twr/App (Archives)
Pyeongtaek, Korea, Republic of

Feed Status: UP
Listen in your browser - HTML5 player(in browser, HTML5)
Click here to listen with your own player(launches your MP3 player)

RKSO 222258Z 10005KT 6SM HZ CLR 18/10 A2980 RMK AO2A SLP094 T01760100 $

RKSO Flight Activity (Flightaware)

Listeners: 2 out of 718 total

25 FS Ops: 229.000
36FS Ops: 371.300
Osan Air Base Approach/Departure: 127.900
Osan Air Base Approach/Departure: 133.650
Osan Air Base Ground: 132.450
Osan Air Base Tower: 122.100
Osan App/Dep UHF: 306.600
Osan App/Dep UHF: 234.300
Osan App/Dep UHF (possibly inactive): 306.300
Osan App/Dep UHF (possibly inactive): 363.100
Osan Ground UHF: 253.700
Osan SAR: 282.800
Osan SAR: 381.000
Osan SOF: 299.800
Osan Tower UHF: 308.800
Stallion Ops: 276.200

RPLL Approach/Departure #1 (Archives)
Manila, Philippines

Feed Status: UP
Listen in your browser - HTML5 player(in browser, HTML5)
Click here to listen with your own player(launches your MP3 player)

RPLL 222300Z 03002KT 8000 FEW023 SCT300 27/25 Q1010 NOSIG RMK A2983

RPLL Flight Activity (Flightaware)

Listeners: 0 out of 718 total

Manila Approach/Departure: 121.100

RPLL Approach/Departure #2 (Archives)
Manila, Philippines

Feed Status: UP
Listen in your browser - HTML5 player(in browser, HTML5)
Click here to listen with your own player(launches your MP3 player)

RPLL 222300Z 03002KT 8000 FEW023 SCT300 27/25 Q1010 NOSIG RMK A2983

RPLL Flight Activity (Flightaware)

Listeners: 0 out of 718 total

Manila Approach/Departure: 119.700

RPLL Approach/Departure #3 (Archives)
Manila, Philippines

Feed Status: UP
Listen in your browser - HTML5 player(in browser, HTML5)
Click here to listen with your own player(launches your MP3 player)

RPLL 222300Z 03002KT 8000 FEW023 SCT300 27/25 Q1010 NOSIG RMK A2983

RPLL Flight Activity (Flightaware)

Listeners: 1 out of 718 total

Manila Approach/.Departure: 124.400

RPLL ATIS (Archives)
Manila, Philippines

Feed Status: UP
Listen in your browser - HTML5 player(in browser, HTML5)
Click here to listen with your own player(launches your MP3 player)

RPLL 222300Z 03002KT 8000 FEW023 SCT300 27/25 Q1010 NOSIG RMK A2983

RPLL Flight Activity (Flightaware)

Listeners: 0 out of 718 total

Manila ATIS: 126.400

RPLL Clearance Delivery (Archives)
Manila, Philippines

Feed Status: UP
Listen in your browser - HTML5 player(in browser, HTML5)
Click here to listen with your own player(launches your MP3 player)

RPLL 222300Z 03002KT 8000 FEW023 SCT300 27/25 Q1010 NOSIG RMK A2983

RPLL Flight Activity (Flightaware)

Listeners: 0 out of 718 total

Manila Clearance Delivery (Primary): 125.100
Manila Clearance Delivery (Secondary): 125.500

RPLL Ground (Archives)
Manila, Philippines

Feed Status: UP
Listen in your browser - HTML5 player(in browser, HTML5)
Click here to listen with your own player(launches your MP3 player)

RPLL 222300Z 03002KT 8000 FEW023 SCT300 27/25 Q1010 NOSIG RMK A2983

RPLL Flight Activity (Flightaware)

Listeners: 0 out of 718 total

Manila Ground: 121.800

RPLL Ramp/Taxi (Archives)
Manila, Philippines

Feed Status: UP
Listen in your browser - HTML5 player(in browser, HTML5)
Click here to listen with your own player(launches your MP3 player)

RPLL 222300Z 03002KT 8000 FEW023 SCT300 27/25 Q1010 NOSIG RMK A2983

RPLL Flight Activity (Flightaware)

Listeners: 0 out of 718 total

Manila Ramp/Taxi: 121.350
Manila Ramp/Taxi: 121.700

RPLL Tower (Archives)
Manila, Philippines

Feed Status: UP
Listen in your browser - HTML5 player(in browser, HTML5)
Click here to listen with your own player(launches your MP3 player)

RPLL 222300Z 03002KT 8000 FEW023 SCT300 27/25 Q1010 NOSIG RMK A2983

RPLL Flight Activity (Flightaware)

Listeners: 2 out of 718 total

Manila Tower: 118.100

SABE Gnd/Twr/App (Archives)
Buenos Aires, Argentina

Feed Status: UP
Listen in your browser - HTML5 player(in browser, HTML5)
Click here to listen with your own player(launches your MP3 player)

SABE 222300Z 17003KT CAVOK 15/08 Q1021 NOSIG

SABE Flight Activity (Flightaware)

Listeners: 5 out of 718 total

Aerolineas Argentinas Ops: 131.950
Aerolineas Argentinas Ops: 131.100
Aeroparque Ground: 121.900
Aeroparque Tower: 120.600
Aeroparque Tower: 118.250
Aeroparque Tower: 128.850
Aeroparque Tower: 118.850
Aeroparque Tower: 129.300
Air to Air: 123.450
Baires: 125.900
Baires: 125.300
Baires: 124.900
Cordoba South: 126.500
Ezeiza Ground: 121.750
Ezeiza North: 133.350
Ezeiza North: 124.500
Ezeiza North: 125.600
Ezeiza North: 135.500
Ezeiza South: 124.100
Ezeiza South: 125.200
LAN Ops: 131.700

Powered by aeropuertotucuman.blogspot.com

SAEZ ATIS (Archives)
Buenos Aires, Argentina

Feed Status: UP
Listen in your browser - HTML5 player(in browser, HTML5)
Click here to listen with your own player(launches your MP3 player)

SAEZ 222300Z 22004KT CAVOK 11/08 Q1021 NOSIG

SAEZ Flight Activity (Flightaware)

Listeners: 0 out of 718 total

Ezeiza ATIS: 127.800

NOTE: All operating frequencies were removed due to repeated unauthorized inappropriate use

SANT Tower/Apps (Archives)
Tucuman, Argentina

Feed Status: UP
Listen in your browser - HTML5 player(in browser, HTML5)
Click here to listen with your own player(launches your MP3 player)

SANT 222300Z 00000KT 6000 -RA BKN007 OVC030 10/08 Q1025

SANT Flight Activity (Flightaware)

Listeners: 0 out of 718 total

Aeroclub Tucuman: 119.000
Aerolineas Argentinas SOC Salta: 131.100
Aerolineas Argentinas SOC Tucuman: 131.950
Air To Air: 123.450
Andes Lineas Aereas: 132.000
Campo Arenal: 130.950
Catamarca Tower: 118.150
Copa Airlines: 129.400
Cordoba Centro Norte: 125.100
Cordoba Centro Sur: 126.500
Emergency/Guard: 121.500
Lan Argentina Operaciones: 131.700
Lan Peru: 131.300
Salta Tower: 128.850
Santiago del Estero Tower: 118.700
Taca Peru: 126.450
Termas de Rio Hondo: 118.200
Termas de Rio Hondo: 119.850
Tucuman Ground: 121.750
Tucuman Ground: 121.750
Tucuman Tower: 118.350
Tucuman Tower: 119.500

Powered by:

aeropuertotucuman.blogspot.com

SASA Twr/App (Archives)
Salta, Argentina

Feed Status: UP
Listen in your browser - HTML5 player(in browser, HTML5)
Click here to listen with your own player(launches your MP3 player)

SASA 222300Z 32006KT 9000 SCT008 OVC015 07/06 Q1022

SASA Flight Activity (Flightaware)

Listeners: 0 out of 718 total

Cordoba Approach (North): 125.100
Salta Approach: 124.600
Salta Tower: 126.000
Salta Tower/Ground: 128.850

SAZS Tower/Approach (Archives)
Rio Negro, Argentina

Feed Status: UP
Listen in your browser - HTML5 player(in browser, HTML5)
Click here to listen with your own player(launches your MP3 player)

SAZS 222300Z 19004KT CAVOK 02/M01 Q1021

SAZS Flight Activity (Flightaware)

Listeners: 0 out of 718 total

Bariloche Twr/App: 119.100
Bariloche Twr/App (Aux): 118.650
Chapelco Tower/Approach: 119.600
Comodoro Rivadavia Control: 125.500
Emergency: 121.500
Ezeiza South: 125.200
Puerto Mont Radar North: 121.300
Puerto Mont Radar South: 128.300
Puerto Mont Radio: 126.900


Feed courtesy of: Juan Jose Porta - Bariloche

SBBE Twr/App/SBAZ
Belem, Brazil

Feed Status: DOWN
Offline since: 2019-05-16 23:29:03 UTC

SBBE 222300Z 12003KT 9999 SCT017 BKN080 24/22 Q1011

Amazonica FIR (SBAZ): 126.500
Amazonica FIR (SBAZ): 128.000
Amazonica FIR (SBAZ): 123.950
Amazonica FIR (SBAZ): 126.150
Amazonica FIR (SBAZ): 126.650
Amazonica FIR (SBAZ): 133.700
Belem Approach: 119.050
Belem Approach: 119.500
Belem Tower: 118.700

SBBH ACC-BS 127.0 (Archives)
Belo Horizonte, Brazil

Feed Status: UP
Listen in your browser - HTML5 player(in browser, HTML5)
Click here to listen with your own player(launches your MP3 player)

SBBH 222300Z 00000KT CAVOK 20/16 Q1018

SBBH Flight Activity (Flightaware)

Listeners: 0 out of 718 total

Brasilia ACC-BS (Air Control Center): 127.000

SBBH ACC-BS 127.3 (Archives)
Belo Horizonte, Brazil

Feed Status: UP
Listen in your browser - HTML5 player(in browser, HTML5)
Click here to listen with your own player(launches your MP3 player)

SBBH 222300Z 00000KT CAVOK 20/16 Q1018

SBBH Flight Activity (Flightaware)

Listeners: 0 out of 718 total

Brasilia ACC-BS (Air Control Center): 127.300

SBBH App (Sector 1) (Archives)
Belo Horizonte, Brazil

Feed Status: UP
Listen in your browser - HTML5 player(in browser, HTML5)
Click here to listen with your own player(launches your MP3 player)

SBBH 222300Z 00000KT CAVOK 20/16 Q1018

SBBH Flight Activity (Flightaware)

Listeners: 0 out of 718 total

Belo Horizonte Approach (Sector 1): 129.100

SBBH App (Sector 2) (Archives)
Belo Horizonte, Brazil

Feed Status: UP
Listen in your browser - HTML5 player(in browser, HTML5)
Click here to listen with your own player(launches your MP3 player)

SBBH 222300Z 00000KT CAVOK 20/16 Q1018

SBBH Flight Activity (Flightaware)

Listeners: 0 out of 718 total

Belo Horizonte Approach (Sector 2): 129.400

SBBH App/Dep (Archives)
Belo Horizonte, Brazil

Feed Status: UP
Listen in your browser - HTML5 player(in browser, HTML5)
Click here to listen with your own player(launches your MP3 player)

SBBH 222300Z 00000KT CAVOK 20/16 Q1018

SBBH Flight Activity (Flightaware)

Listeners: 0 out of 718 total

Belo Horizonte Approach: 128.550

SBBI Gnd/Twr (Archives)
Curitiba, Brazil

Feed Status: UP
Listen in your browser - HTML5 player(in browser, HTML5)
Click here to listen with your own player(launches your MP3 player)

SBBI 222300Z 33004KT CAVOK 20/16 Q1018

SBBI Flight Activity (Flightaware)

Listeners: 0 out of 718 total

Bacacheri Ground: 121.800
Bacacheri Tower: 118.900

SBBV Approach (Archives)
Boa Vista, Brazil

Feed Status: UP
Listen in your browser - HTML5 player(in browser, HTML5)
Click here to listen with your own player(launches your MP3 player)

SBBV 222300Z 14003KT 9999 FEW008 BKN025 FEW030TCU BKN080 25/24 Q1011

SBBV Flight Activity (Flightaware)

Listeners: 1 out of 718 total

Boa Vista Approach: 120.100

SBBV Tower (Archives)
Boa Vista, Brazil

Feed Status: UP
Listen in your browser - HTML5 player(in browser, HTML5)
Click here to listen with your own player(launches your MP3 player)

SBBV 222300Z 14003KT 9999 FEW008 BKN025 FEW030TCU BKN080 25/24 Q1011

SBBV Flight Activity (Flightaware)

Listeners: 2 out of 718 total

Boa Vista Tower: 118.100

SBCT Gnd/Twr/App (Archives)
Curitiba, Brazil

Feed Status: UP
Listen in your browser - HTML5 player(in browser, HTML5)
Click here to listen with your own player(launches your MP3 player)

SBCT 222300Z 02004KT 9999 SCT045 BKN100 20/17 Q1018

SBCT Flight Activity (Flightaware)

Listeners: 0 out of 718 total

Curitiba Approach: 119.950
Curitiba Ground: 121.900
Curitiba Tower: 118.150
Curitiba Tower: 118.900

SBDN Twr/App (Archives)
Presidente Prudente/Sao Paulo, Brazil

Feed Status: UP
Listen in your browser - HTML5 player(in browser, HTML5)
Click here to listen with your own player(launches your MP3 player)

SBDN 222300Z 06002KT CAVOK 23/11 Q1014

SBDN Flight Activity (Flightaware)

Listeners: 0 out of 718 total

Air-to-Air: 123.450
Curitiba Sector 13: 133.595
Prudente Approach: 118.450
Prudente Tower: 125.450

SBEG Tower/App
Manaus, Brazil

Feed Status: DOWN
Offline since: 2019-05-22 18:18:03 UTC

SBEG 222300Z 29002KT 9999 SCT009 BKN100 24/23 Q1010

Emergency/Guard: 121.500
Manaus Approach : 119.250
Manaus Approach: 120.400
Manaus Approach: 119.700
Manaus Tower: 118.300

SBFI Twr/App/Ctr/Misc (Archives)
Foz do Iguacu, Brazil

Feed Status: UP
Listen in your browser - HTML5 player(in browser, HTML5)
Click here to listen with your own player(launches your MP3 player)

SBFI 222300Z 22003KT 9999 SCT014 BKN020 19/19 Q1014

SBFI Flight Activity (Flightaware)

Listeners: 1 out of 718 total

Asuncion Center (Paraguay): 126.900
Asuncion Center (Paraguay): 128.400
Curitiba Center: 127.200
Curitiba Center: 125.800
Emergency/Guard: 121.500
Foz do Iguacu Approach/Departure: 120.300
Foz do Iguacu Approach/Departure: 119.150
Foz do Iguacu Tower: 118.800
Guarani Approach (Paraguay): 119.300
Puerto Iguazu - Cataratas Tower (Argentina) : 120.700
Resistencia Center (Argentina): 124.300
UNICOM: 123.450

SBFZ Twr/App/Center (Archives)
Fortaleza, Brazil

Feed Status: UP
Listen in your browser - HTML5 player(in browser, HTML5)
Click here to listen with your own player(launches your MP3 player)

SBFZ 222300Z 10004KT CAVOK 27/24 Q1012

SBFZ Flight Activity (Flightaware)

Listeners: 2 out of 718 total

ACC-RE (Fortaleza Sector): 125.150
ACC-RE (Fortaleza Sector): 126.350
ACC-RE (Fortaleza Sector): 135.250
Fortaleza Approach: 133.000
Fortaleza Tower: 129.000

SBGO Gnd/Twr/App (Archives)
Goiania, Brazil

Feed Status: UP
Listen in your browser - HTML5 player(in browser, HTML5)
Click here to listen with your own player(launches your MP3 player)

SBGO 222300Z VRB02KT CAVOK 23/17 Q1017

SBGO Flight Activity (Flightaware)

Listeners: 0 out of 718 total

Anapolis Approach: 119.150
Anapolis Approach: 120.550
Anapolis Approach: 133.000
Anapolis Approach: 129.450
Emergency/Guard: 121.500
Goiania Ground: 121.700
Goiania Tower: 118.700
Goiania Tower: 121.050

SBGR Twr/App/ACC
Sao Paulo, Brazil

Feed Status: DOWN
Offline since: 2019-05-15 14:24:02 UTC

SBGR 222300Z 00000KT CAVOK 17/15 Q1018

Brasilia Center: 126.150
Brasilia Center: 134.000
Curitiba Center: 126.500
Guarulhos Tower: 135.200
Marte Tower (SBMT): 118.700
Sao Paulo Departure: 120.450
Sao Paulo Final Approach (Guarulhos): 129.750

Sponsored by: aerocus.com

SBJP Twr/Control/Airlines (Archives)
Joao Pessoa, Brazil

Feed Status: UP
Listen in your browser - HTML5 player(in browser, HTML5)
Click here to listen with your own player(launches your MP3 player)

SBJP 222300Z 17003KT CAVOK 26/25 Q1013

SBJP Flight Activity (Flightaware)

Listeners: 0 out of 718 total

AZUL: 130.900
GOL: 131.225
Joao Pessoa Tower: 118.300
Recife Control: 119.500
TAM: 130.500

SBJU Tower/Center (Archives)
Juazeiro do Norte, Brazil

Feed Status: UP
Listen in your browser - HTML5 player(in browser, HTML5)
Click here to listen with your own player(launches your MP3 player)

SBJU 222300Z 00000KT 9999 FEW020 27/21 Q1016

SBJU Flight Activity (Flightaware)

Listeners: 0 out of 718 total

Pilot-to-Pilot: 123.450
Radio Juazeiro: 131.750
Recife Center: 135.250
Recife Center: 125.150

Sponsored by:

SBLO Twr/App/Center
Londrina, Brazil

Feed Status: DOWN
Offline since: 2019-03-24 01:36:03 UTC

SBLO 222300Z 00000KT CAVOK 24/15 Q1016

Curitiba Center: 128.350
Curitiba Center: 135.100
Curitiba Center: 125.800
Curitiba Center: 126.950
Emergency/Guard: 121.500
Londrina Approach: 129.700
Londrina Tower: 118.400
UNICOM: 123.450

TMA Londrina Blog

SBMG Twr/App/Misc (Archives)
Maringa, Brazil

Feed Status: UP
Listen in your browser - HTML5 player(in browser, HTML5)
Click here to listen with your own player(launches your MP3 player)

SBMG 222200Z 00000KT CAVOK 24/16 Q1014

SBMG Flight Activity (Flightaware)

Listeners: 0 out of 718 total

Air to Air: 123.450
Londrina Approach: 129.700
Maringa Tower: 118.750

SBMK RDO/Center
Montes Claros, Brazil

Feed Status: DOWN
Offline since: 2019-05-22 03:45:02 UTC

Brasilia Center (Sector 15): 127.300
Montes Claros RDO: 131.700

SBMQ Tower/App/Center (Archives)
Macapa, Brazil

Feed Status: UP
Listen in your browser - HTML5 player(in browser, HTML5)
Click here to listen with your own player(launches your MP3 player)

SBMQ 222300Z 04002KT 9999 SCT017 BKN100 27/27 Q1011

SBMQ Flight Activity (Flightaware)

Listeners: 0 out of 718 total

Amazonico Center: 123.950
Amazonico Center: 128.000
Macapa Approach: 119.000
Macapa Tower: 118.000

SBNF Tower (Archives)
Navegantes, Brazil

Feed Status: UP
Listen in your browser - HTML5 player(in browser, HTML5)
Click here to listen with your own player(launches your MP3 player)

SBNF 222300Z 14004KT 9999 FEW006 SCT025 BKN045 21/20 Q1014

SBNF Flight Activity (Flightaware)

Listeners: 1 out of 718 total

Navegantes Tower: 118.200

SBPA Gnd/Twr/App
Porto Alegre, Brazil

Feed Status: DOWN
Offline since: 2019-05-22 22:05:02 UTC

SBPA 222300Z 11007KT 4000 -RA BR BKN009 BKN030 OVC040 19/19 Q1014

BACO (Canoas) Ground: 121.700
BACO (Canoas) Tower: 122.800
BACO (Canoas) Tower: 118.500
Emergency/Guard: 121.500
Porto Alegre Approach Sector 2: 119.000
Porto Alegre Approach Sector 1: 120.100
Porto Alegre Approach Sector 3: 120.550
Porto Alegre Approach Sector 4: 128.900
Porto Alegre Center: 126.750
Porto Alegre Center: 127.400
Porto Alegre Center: 135.850
Porto Alegre Center: 128.450
Salgado Filho Ground: 121.900
Salgado Filho Tower: 118.100

NOTE: Feed site maintenance Nov 13-30, 2016

SBPL RDO (Archives)
Petrolina, Brazil

Feed Status: UP
Listen in your browser - HTML5 player(in browser, HTML5)
Click here to listen with your own player(launches your MP3 player)

SBPL 222300Z 13007KT 9999 SCT025 BKN070 26/23 Q1014

SBPL Flight Activity (Flightaware)

Listeners: 2 out of 718 total

Petrolina RDO: 125.700

Sponsored by PNZSpotter

SBQV AFIS/App (Archives)
Vitoria da Conquista, Brazil

Feed Status: UP
Listen in your browser - HTML5 player(in browser, HTML5)
Click here to listen with your own player(launches your MP3 player)

SBQV 222300Z 13007KT CAVOK 22/17 Q1019

SBQV Flight Activity (Flightaware)

Listeners: 0 out of 718 total

Conquista AFIS: 130.300
Despacho Azul: 131.875
Despacho Passaredo: 132.000

SBRF App 129.60 (Archives)
Recife, Brazil

Feed Status: UP
Listen in your browser - HTML5 player(in browser, HTML5)
Click here to listen with your own player(launches your MP3 player)

SBRF 222300Z 14005KT 100V170 9999 FEW023 28/23 Q1013

SBRF Flight Activity (Flightaware)

Listeners: 2 out of 718 total

Recife Approach: 129.600

SBRF Ground (Archives)
Recife, Brazil

Feed Status: UP
Listen in your browser - HTML5 player(in browser, HTML5)
Click here to listen with your own player(launches your MP3 player)

SBRF 222300Z 14005KT 100V170 9999 FEW023 28/23 Q1013

SBRF Flight Activity (Flightaware)

Listeners: 0 out of 718 total

Recife Ground: 121.850

SBRF Recife ACC (Archives)
Recife, Brazil

Feed Status: UP
Listen in your browser - HTML5 player(in browser, HTML5)
Click here to listen with your own player(launches your MP3 player)

SBRF 222300Z 14005KT 100V170 9999 FEW023 28/23 Q1013

SBRF Flight Activity (Flightaware)

Listeners: 2 out of 718 total

Recife Center: 128.700
Recife Center: 133.650
Recife Center: 134.800

SBRF Tower (Archives)
Recife, Brazil

Feed Status: UP
Listen in your browser - HTML5 player(in browser, HTML5)
Click here to listen with your own player(launches your MP3 player)

SBRF 222300Z 14005KT 100V170 9999 FEW023 28/23 Q1013

SBRF Flight Activity (Flightaware)

Listeners: 4 out of 718 total

Recife Tower: 125.250
Recife Tower: 118.350
Recife Tower: 118.900

SBRP Tower/Center (Archives)
Ribeirao Preto, Brazil

Feed Status: UP
Listen in your browser - HTML5 player(in browser, HTML5)
Click here to listen with your own player(launches your MP3 player)

SBRP 222300Z 06005KT CAVOK 20/14 Q1016

SBRP Flight Activity (Flightaware)

Listeners: 3 out of 718 total

Leite Lopes Tower: 118.000
Pirassununga Center (North): 119.550

SBSN Twr/App/ACC (Archives)
Santarem, Brazil

Feed Status: UP
Listen in your browser - HTML5 player(in browser, HTML5)
Click here to listen with your own player(launches your MP3 player)

SBSN 222300Z 12005KT 9999 SCT015 FEW017TCU SCT100 26/25 Q1011

SBSN Flight Activity (Flightaware)

Listeners: 0 out of 718 total

Brasilia Center/ACC: 123.650
Brasilia Center/ACC: 125.050
Santarem Approach: 119.300
Santarem Tower: 118.100

SBSR AFIS/App/Center (Archives)
Sao Jose do Rio Preto, Brazil

Feed Status: UP
Listen in your browser - HTML5 player(in browser, HTML5)
Click here to listen with your own player(launches your MP3 player)

SBSR 222300Z 18002KT CAVOK 24/11 Q1016

SBSR Flight Activity (Flightaware)

Listeners: 2 out of 718 total

Academia Approach (North Sector): 119.750
Academia Approach (North Sector): 120.400
Brasilia Center: 135.150
Rio Preto Radio AFIS: 130.850

SBTE Twr/App
Teresina, Brazil

Feed Status: DOWN
Offline since: 2019-05-22 22:05:02 UTC

SBTE 222300Z 35005KT CAVOK 26/24 Q1011

Teresina Approach: 119.600
Teresina Tower: 118.800

Sponsored by:

Pistadoiszero

SBRE Recife ACC (Archives)
Paulo Afonso, Brazil

Feed Status: UP
Listen in your browser - HTML5 player(in browser, HTML5)
Click here to listen with your own player(launches your MP3 player)

SBRE Flight Activity (Flightaware)

Listeners: 0 out of 718 total

Recife Center (ACC): 125.400
Recife Center (ACC): 125.450
Recife Center (ACC): 126.850
Recife Center (ACC): 133.650
Recife Center (ACC): 134.500
Recife Center (ACC): 134.900

SBUF AFIS/Center (Archives)
Paulo Afonso, Brazil

Feed Status: UP
Listen in your browser - HTML5 player(in browser, HTML5)
Click here to listen with your own player(launches your MP3 player)

SBUF 221900Z 13008KT 9999 FEW020 SCT070 31/20 Q1012

SBUF Flight Activity (Flightaware)

Listeners: 0 out of 718 total

Paulo Afonso Radio: 125.850
Recife Center: 133.650
Recife Center: 134.500
Recife Center: 125.450

SBVT Center/Misc
Vitoria, Brazil

Feed Status: DOWN
Offline since: 2019-04-22 10:15:03 UTC

SBVT 222300Z 16001KT 9999 BKN047 26/24 Q1015

AZUL Coordination: 130.900
Brasilia Center (Sector S-10): 126.750
Brasilia Center (Sector S-10): 127.300
CHAT Coordination: 123.400
Curitiba Center (Sector S-11): 133.600
Curitiba Center (Sector S-11): 133.400
Emergency/Guard: 121.500
GOL Coordination: 131.225
LIDER Coordination: 130.400
Recife Center (Sector S-14): 124.250
Recife Center (Sector S-14): 126.550
Recife Center (Sector S-15): 134.750
Recife Center (Sector S-15): 126.550
TAM Coordination: 130.500
TRIP Coordination: 131.375

Visit Vitoria Airport Web Site

SBVT Gnd/Twr/App
Vitoria, Brazil

Feed Status: DOWN
Offline since: 2019-04-22 10:15:03 UTC

SBVT 222300Z 16001KT 9999 BKN047 26/24 Q1015

SBVT Approach: 119.850
SBVT Ground: 121.950
SBVT Tower: 118.100

Visit Vitoria Airport Web Site

SCEL Gnd/Twr/Radar
Santiago, Chile

Feed Status: DOWN
Offline since: 2019-05-22 23:52:05 UTC

SCEL 222300Z 00000KT CAVOK 13/M03 Q1020 NOSIG

Santiago Authorizations: 121.700
Santiago Control (Lat 3323S North): 128.100
Santiago Control (Lat 3323S South): 126.300
Santiago Ground (Primary): 122.200
Santiago Ground (Secondary): 122.500
Santiago Radar (Arrival, Primary): 129.700
Santiago Radar (Arrival, Secondary): 119.700
Santiago Radar (Arrival, Secondary): 123.800
Santiago Radar (Departure, Primary): 121.100
Santiago Radar (Departure, Secondary): 123.800
Santiago Radar (Information, Primary): 122.400
Santiago Radar (Information, Secondary): 120.800
Santiago Radar (Information, Secondary): 123.800
Santiago Tower (Primary): 118.100
Santiago Tower (Secondary): 118.350
SCTB Tobalaba Tower: 118.700

SCJO Gnd/Twr
Osorno, Chile

Feed Status: DOWN
Offline since: 2019-03-05 19:11:02 UTC

SCJO 222200Z 13002KT 9999 BKN020 07/05 Q1024

Osorno Ground: 121.700
Osorno Tower: 118.900

Sponsored by: Serticom

SEGU App/Dep (Archives)
Guayaquil, Ecuador

Feed Status: UP
Listen in your browser - HTML5 player(in browser, HTML5)
Click here to listen with your own player(launches your MP3 player)

SEGU 222300Z 200/7KT 9999 BKN026 BKN100 28/22 Q1008 NOSIG RMK A2977

SEGU Flight Activity (Flightaware)

Listeners: 0 out of 718 total

Guayaquil Approach: 120.700

SEGU Gnd/Twr (Archives)
Guayaquil, Ecuador

Feed Status: UP
Listen in your browser - HTML5 player(in browser, HTML5)
Click here to listen with your own player(launches your MP3 player)

SEGU 222300Z 200/7KT 9999 BKN026 BKN100 28/22 Q1008 NOSIG RMK A2977

SEGU Flight Activity (Flightaware)

Listeners: 0 out of 718 total

Guayaquil Ground: 121.900
Guayaquil Tower: 118.300

SEGU Gnd/Twr/App (Archives)
Guayaquil, Ecuador

Feed Status: UP
Listen in your browser - HTML5 player(in browser, HTML5)
Click here to listen with your own player(launches your MP3 player)

SEGU 222300Z 200/7KT 9999 BKN026 BKN100 28/22 Q1008 NOSIG RMK A2977

SEGU Flight Activity (Flightaware)

Listeners: 2 out of 718 total

Guayaquil Approach: 120.700
Guayaquil Ground: 121.900
Guayaquil Tower: 118.300

SEGU Guayaquil Center (Archives)
Guayaquil, Ecuador

Feed Status: UP
Listen in your browser - HTML5 player(in browser, HTML5)
Click here to listen with your own player(launches your MP3 player)

SEGU 222300Z 200/7KT 9999 BKN026 BKN100 28/22 Q1008 NOSIG RMK A2977

SEGU Flight Activity (Flightaware)

Listeners: 0 out of 718 total

Guayaquil Center: 127.950
Guayaquil Center: 128.300

SEQM ATIS (Archives)
Quito, Ecuador

Feed Status: UP
Listen in your browser - HTML5 player(in browser, HTML5)
Click here to listen with your own player(launches your MP3 player)

SEQM 222300Z 03009KT 9999 SCT033 SCT100 17/13 Q1023 NOSIG RMK A3022

SEQM Flight Activity (Flightaware)

Listeners: 0 out of 718 total

Quito ATIS: 118.700

SEQM Gnd/Twr/App (Archives)
Quito, Ecuador

Feed Status: UP
Listen in your browser - HTML5 player(in browser, HTML5)
Click here to listen with your own player(launches your MP3 player)

SEQM 222300Z 03009KT 9999 SCT033 SCT100 17/13 Q1023 NOSIG RMK A3022

SEQM Flight Activity (Flightaware)

Listeners: 0 out of 718 total

Quito Approach/Departure: 119.700
Quito Approach/Departure: 121.200
Quito Ground: 121.900
Quito Tower: 118.100
Quito Tower (Secondary): 118.350

SEQM Tower (Archives)
Quito, Ecuador

Feed Status: UP
Listen in your browser - HTML5 player(in browser, HTML5)
Click here to listen with your own player(launches your MP3 player)

SEQM 222300Z 03009KT 9999 SCT033 SCT100 17/13 Q1023 NOSIG RMK A3022

SEQM Flight Activity (Flightaware)

Listeners: 0 out of 718 total

Quito Tower: 118.100
Quito Tower (Secondary): 118.350

SGAS Gnd/Twr/App/Center
Asuncion, Paraguay

Feed Status: DOWN
Offline since: 2019-05-13 11:53:02 UTC

SGAS 222300Z VRB04KT 9999 BKN015 OVC070 18/16 Q1016

Asuncion Approach: 119.700
Asuncion Control: 126.900
Asuncion Ground: 121.900
Asuncion Tower: 118.100

SKBO Del/Gnd/Twr/App
Bogota, Colombia

Feed Status: DOWN
Offline since: 2019-05-12 23:44:02 UTC

SKBO 222300Z 30005KT 9999 BKN022TCU 17/11 A3026 NOSIG RMK TCU/NW

Bogota Approach: 119.500
Bogota Clearance Delivery: 121.600
Bogota Departure (North): 121.300
Bogota Departure (South): 119.650
Bogota Ground (North): 121.800
Bogota Ground (South): 122.750
Bogota Information: 126.900
Bogota Tower (North): 118.100
Bogota Tower (South): 118.250
Guaymaral Ground: 121.700
Guaymaral Tower: 118.800

SKBQ Approach (Archives)
Barranquilla, Colombia

Feed Status: UP
Listen in your browser - HTML5 player(in browser, HTML5)
Click here to listen with your own player(launches your MP3 player)

SKBQ 222300Z 36006KT 280V030 9999 SCT015CB BKN070 29/25 A2977 NOSIG RMK CB/S

SKBQ Flight Activity (Flightaware)

Listeners: 3 out of 718 total

Barranquilla Approach/Departure: 119.100

SKBQ Gnd/Twr
Barranquilla, Colombia

Feed Status: DOWN
Offline since: 2019-05-17 17:03:03 UTC

SKBQ 222300Z 36006KT 280V030 9999 SCT015CB BKN070 29/25 A2977 NOSIG RMK CB/S

Barranquilla Ground: 121.900
Barranquilla Tower: 118.450
Barranquilla Tower: 118.100

HF CWP/SEA (Archives)
Pyeongtaek, Korea, Republic of

Feed Status: UP
Listen in your browser - HTML5 player(in browser, HTML5)
Click here to listen with your own player(launches your MP3 player)


Listeners: 0 out of 718 total

CWP 1 (Tokyo): 11.384
CWP 1/2 (Tokyo): 13.300
CWP-1/2 (San Francisco): 17.904
CWP-1/2 (Tokyo/Manila): 8.903
CWP-1/2 (Tokyo/San Francisco): 21.985
SEA-2 (Manila): 8.942

Receiver location: Seoul, Korea

SPJC Approach (Archives)
Lima, Peru

Feed Status: UP
Listen in your browser - HTML5 player(in browser, HTML5)
Click here to listen with your own player(launches your MP3 player)

SPJC 222300Z 28004KT 240V310 9999 OVC012 18/16 Q1012 NOSIG RMK FU INDUSTRIAL RWY 15 PP000

SPJC Flight Activity (Flightaware)

Listeners: 6 out of 718 total

Lima Approach: 119.700

SPJC Ground (Archives)
Lima, Peru

Feed Status: UP
Listen in your browser - HTML5 player(in browser, HTML5)
Click here to listen with your own player(launches your MP3 player)

SPJC 222300Z 28004KT 240V310 9999 OVC012 18/16 Q1012 NOSIG RMK FU INDUSTRIAL RWY 15 PP000

SPJC Flight Activity (Flightaware)

Listeners: 1 out of 718 total

Lima Ground: 121.900

SPJC Tower (Archives)
Lima, Peru

Feed Status: UP
Listen in your browser - HTML5 player(in browser, HTML5)
Click here to listen with your own player(launches your MP3 player)

SPJC 222300Z 28004KT 240V310 9999 OVC012 18/16 Q1012 NOSIG RMK FU INDUSTRIAL RWY 15 PP000

SPJC Flight Activity (Flightaware)

Listeners: 1 out of 718 total

Lima Tower: 118.100

SPST Tower (Archives)
Tarapoto, Peru

Feed Status: UP
Listen in your browser - HTML5 player(in browser, HTML5)
Click here to listen with your own player(launches your MP3 player)

SPST 222300Z 02003KT 9999 SCT025 29/23 Q1009 RMK BIRD HAZARD RWY 17/35 PP000

SPST Flight Activity (Flightaware)

Listeners: 1 out of 718 total

Tarapoto Tower: 118.400

SSBL Air to Air (Archives)
Blumenau, Brazil

Feed Status: UP
Listen in your browser - HTML5 player(in browser, HTML5)
Click here to listen with your own player(launches your MP3 player)

METAR NOT AVAILABLE

SSBL Flight Activity (Flightaware)

Listeners: 0 out of 718 total

Air to Air: 123.450

SUMU Twr/App (Archives)
Montevideo, Uruguay

Feed Status: UP
Listen in your browser - HTML5 player(in browser, HTML5)
Click here to listen with your own player(launches your MP3 player)

SUMU 222300Z 16004KT 9999 FEW015 15/11 Q1020 NOSIG

SUMU Flight Activity (Flightaware)

Listeners: 0 out of 718 total

SUMU Approach: 119.200
SUMU Tower: 118.100

Sponsored by Aeroclub Aerosur - Escuela de Vuelo

SUMU Twr/App/Radar (Archives)
Montevideo, Uruguay

Feed Status: UP
Listen in your browser - HTML5 player(in browser, HTML5)
Click here to listen with your own player(launches your MP3 player)

SUMU 222300Z 16004KT 9999 FEW015 15/11 Q1020 NOSIG

SUMU Flight Activity (Flightaware)

Listeners: 0 out of 718 total

SUMU Approach: 120.200
SUMU Approach: 119.200
SUMU Info: 121.800
SUMU Informacion: 121.800
SUMU Radar Control: 128.500
SUMU Radar Control: 126.300
SUMU Radar Control: 128.000
SUMU Tower: 118.100

Feed provided by:

Volemos.com.uy

Aviación Uruguaya - Volemos.com.uy

SUPU/SUPC Misc (Archives)
Paysandu, Uruguay

Feed Status: UP
Listen in your browser - HTML5 player(in browser, HTML5)
Click here to listen with your own player(launches your MP3 player)

SUPU 040900Z 10005KT 9999 FEW020TCU BKN070 FEW200 23/23 Q1010

SUPU Flight Activity (Flightaware)

Listeners: 0 out of 718 total

Chalkling Tower: 118.700
Paysandu Tower: 118.200

Courtesy of: Aeroclub Paysandu

SVPR Twr/App/FIR (Archives)
Ciudad Guayana, Venezuela

Feed Status: UP
Listen in your browser - HTML5 player(in browser, HTML5)
Click here to listen with your own player(launches your MP3 player)

SVPR Flight Activity (Flightaware)

Listeners: 1 out of 718 total

Emergency/Guard: 121.500
FIR 6: 126.000
Guayana Approach (Primary): 119.500
Guayana Approach (Secondary): 120.300
Guayana Tower (Primary): 118.000
Guayana Tower (Secondary): 123.500
SMC: 121.900

SVVA Gnd/Twr/App
Valencia, Venezuela

Feed Status: DOWN
Offline since: 2019-04-24 04:48:03 UTC

SVVA 221700Z /////KT 9999 OVC016 25/21 Q1015 REDZ

Libertador Approach: 119.300
Valencia Ground: 121.900
Valencia Tower: 121.200

TBPB Gnd/Twr/Radar/Center (Archives)
Bridgetown, Barbados

Feed Status: UP
Listen in your browser - HTML5 player(in browser, HTML5)
Click here to listen with your own player(launches your MP3 player)

TBPB 222300Z 10017KT 9999 FEW020 27/22 Q1013 NOSIG

TBPB Flight Activity (Flightaware)

Listeners: 1 out of 718 total

Adams Approach/Departure: 129.350
Adams Approach/Departure: 128.850
Adams Ground: 121.900
Adams Tower: 118.700
Piarco Center: 123.700

TNCA Twr/Apron/FIR (Archives)
Oranjestad, Aruba

Feed Status: UP
Listen in your browser - HTML5 player(in browser, HTML5)
Click here to listen with your own player(launches your MP3 player)

TNCA 222300Z 08019KT 9999 FEW019 28/24 Q1008 NOSIG

TNCA Flight Activity (Flightaware)

Listeners: 0 out of 718 total

Beatrix Ground (Apron): 121.600
Beatrix Tower: 120.900
Beatrix Tower (secondary): 118.000
Curacao Control: 127.100
Emergency/Guard: 121.500
Search/Rescue: 123.100

NOTES: OurAirports.com

TNCB Tower
Kralendijk, Bonaire

Feed Status: DOWN
Offline since: 2019-05-22 22:05:02 UTC

TNCB 222255Z 09017KT 9999 FEW014 28/23 Q1009

Bonaire Tower: 118.700

TNCC Curacao Control (Archives)
Willemstad, Curacao

Feed Status: UP
Listen in your browser - HTML5 player(in browser, HTML5)
Click here to listen with your own player(launches your MP3 player)

TNCC 222300Z 10013KT 9999 FEW018 28/23 Q1009 NOSIG=

TNCC Flight Activity (Flightaware)

Listeners: 0 out of 718 total

Curacao Control: 124.100
Curacao Control: 127.100

TNCC Tower/Radar (Archives)
Willemstad, Curacao

Feed Status: UP
Listen in your browser - HTML5 player(in browser, HTML5)
Click here to listen with your own player(launches your MP3 player)

TNCC 222300Z 10013KT 9999 FEW018 28/23 Q1009 NOSIG=

TNCC Flight Activity (Flightaware)

Listeners: 0 out of 718 total

Hato Radar: 119.600
Hato Tower: 118.300

TNCC Twr/Radar/Control (Archives)
Willemstad, Curacao

Feed Status: UP
Listen in your browser - HTML5 player(in browser, HTML5)
Click here to listen with your own player(launches your MP3 player)

TNCC 222300Z 10013KT 9999 FEW018 28/23 Q1009 NOSIG=

TNCC Flight Activity (Flightaware)

Listeners: 1 out of 718 total

Curacao Control: 127.100
Hato Radar: 119.600
Hato Tower: 118.300

TNCE Info (Archives)
Oranjestad, Sint Eustatius

Feed Status: UP
Listen in your browser - HTML5 player(in browser, HTML5)
Click here to listen with your own player(launches your MP3 player)

TNCE 222255Z AUTO 08010KT 050V110 //// // ///////// 27/22 Q1014 RE//

TNCE Flight Activity (Flightaware)

Listeners: 0 out of 718 total

Statia Info: 118.100

TTCP Gnd/Twr/App (Archives)
Scarborough, Trinidad and Tobago

Feed Status: UP
Listen in your browser - HTML5 player(in browser, HTML5)
Click here to listen with your own player(launches your MP3 player)

TTCP 222300Z 08007KT 9999 FEW016 28/21 Q1011 NOSIG

TTCP Flight Activity (Flightaware)

Listeners: 0 out of 718 total

Piarco Approach: 119.000
Robinson Ground: 121.700
Robinson Tower: 118.400

TTPP Apron/Gnd/Twr (Archives)
Port of Spain, Trinidad and Tobago

Feed Status: UP
Listen in your browser - HTML5 player(in browser, HTML5)
Click here to listen with your own player(launches your MP3 player)

TTPP 222300Z 11008KT 080V150 9999 VCSH FEW016 BKN034 27/23 Q1012 NOSIG RMK VCSH NE NW

TTPP Flight Activity (Flightaware)

Listeners: 0 out of 718 total

Piarco Apron: 121.750
Piarco Ground: 121.900
Piarco Tower: 118.100

TTPP Piarco Approach (Archives)
Port of Spain, Trinidad and Tobago

Feed Status: UP
Listen in your browser - HTML5 player(in browser, HTML5)
Click here to listen with your own player(launches your MP3 player)

TTPP 222300Z 11008KT 080V150 9999 VCSH FEW016 BKN034 27/23 Q1012 NOSIG RMK VCSH NE NW

TTPP Flight Activity (Flightaware)

Listeners: 0 out of 718 total

Piarco Approach: 119.550
Piarco Approach: 119.000
Piarco Approach (backup): 124.000

TTPP Piarco Center (Archives)
Port of Spain, Trinidad and Tobago

Feed Status: UP
Listen in your browser - HTML5 player(in browser, HTML5)
Click here to listen with your own player(launches your MP3 player)

TTPP 222300Z 11008KT 080V150 9999 VCSH FEW016 BKN034 27/23 Q1012 NOSIG RMK VCSH NE NW

TTPP Flight Activity (Flightaware)

Listeners: 0 out of 718 total

Piarco Center: 123.700
Piarco Center (Oceanic): 126.500
Piarco Center (South Sector): 125.400
Piarco Center Oceanic (Backup): 133.100

TXKF Tower/Ground (Archives)
Hamilton, Bermuda

Feed Status: UP
Listen in your browser - HTML5 player(in browser, HTML5)
Click here to listen with your own player(launches your MP3 player)

TXKF 222255Z 36017KT 9999 SCT040 BKN300 21/12 Q1016

TXKF Flight Activity (Flightaware)

Listeners: 0 out of 718 total

Bermuda CTAF: 122.800
Bermuda Ground/Clearance: 124.500
Bermuda Tower: 118.100

ZNY Bermuda Sector (Archives)
Hamilton, Bermuda

Feed Status: UP
Listen in your browser - HTML5 player(in browser, HTML5)
Click here to listen with your own player(launches your MP3 player)

TXKF 222255Z 36017KT 9999 SCT040 BKN300 21/12 Q1016

TXKF Flight Activity (Flightaware)

Listeners: 1 out of 718 total

New York Approach (Bermuda Sector) : 119.100
New York Center (Bermuda Sector): 128.500

UAAA Approach (Archives)
Almaty, Kazakhstan

Feed Status: UP
Listen in your browser - HTML5 player(in browser, HTML5)
Click here to listen with your own player(launches your MP3 player)

UAAA 222300Z VRB01MPS 9999 SCT050 OVC100 11/09 Q1018 R88/2/0150 NOSIG

UAAA Flight Activity (Flightaware)

Listeners: 0 out of 718 total

Almaty Approach: 124.800

UAAA Tower (Archives)
Almaty, Kazakhstan

Feed Status: UP
Listen in your browser - HTML5 player(in browser, HTML5)
Click here to listen with your own player(launches your MP3 player)

UAAA 222300Z VRB01MPS 9999 SCT050 OVC100 11/09 Q1018 R88/2/0150 NOSIG

UAAA Flight Activity (Flightaware)

Listeners: 0 out of 718 total

Almaty Tower: 119.400

UAAA Tower/Approach (Archives)
Almaty, Kazakhstan

Feed Status: UP
Listen in your browser - HTML5 player(in browser, HTML5)
Click here to listen with your own player(launches your MP3 player)

UAAA 222300Z VRB01MPS 9999 SCT050 OVC100 11/09 Q1018 R88/2/0150 NOSIG

UAAA Flight Activity (Flightaware)

Listeners: 0 out of 718 total

Almaty Approach: 124.800
Almaty Tower: 119.400

UKKK Gnd/Twr/ACC (Archives)
Kyiv, Ukraine

Feed Status: UP
Listen in your browser - HTML5 player(in browser, HTML5)
Click here to listen with your own player(launches your MP3 player)

UKKK 222300Z 00000MPS CAVOK 14/13 Q1008 R08/CLRD70 NOSIG

UKKK Flight Activity (Flightaware)

Listeners: 0 out of 718 total

Emergency/Guard: 121.500
Kyiv Radar ACC: 122.775
Kyiv Radar ACC: 124.675
Kyiv Radar ACC: 127.725
Kyiv Radar ACC: 128.175
Kyiv Radar ACC: 125.300
Kyiv Zhuliany Ground: 119.000
Kyiv Zhuliany Tower: 120.700

UNNT Gnd/Twr/App/Radar/Misc (Archives)
Novosibirsk, Russia

Feed Status: UP
Listen in your browser - HTML5 player(in browser, HTML5)
Click here to listen with your own player(launches your MP3 player)

UNNT 222300Z 26002MPS 9999 BKN049CB 07/04 Q1009 R25/290160 R16/090070 NOSIG RMK QFE747/0996

UNNT Flight Activity (Flightaware)

Listeners: 5 out of 718 total

ACC_Novosibirsk-Control [5th military channel]: 128.500
ACC_Novosibirsk-Control [Southeast]: 126.100
ACC_Novosibirsk-Control [West]: 127.000
GPA_Kristallik [Severniy airfield]: 123.425
GPA_Sernisiy [Chkalovskiy airfield]: 124.750
GPA_Tomsk Information 1: 134.500
MIL_3 [3rd military channel]: 130.750
MIL_Larek [Shilovo facility]: 123.750
MIL_Maneken [Chkalovskiy airfield]: 123.550
MIL_Novosibirsk-1 [1st military channel]: 124.000
MIL_Noyabr' 31: 124.900
MIL_Trimaran: 124.500
SP_Air-to-Air: 123.450
SP_Air-to-Air 2: 123.400
SP_Common backup frequency: 129.000
SP_Emergency: 121.500
SP_Emergency 2: 123.100
SP_Flyoff: 124.375
SURF_Boarding: 163.425
SURF_Duty chart: 163.800
SURF_O&D Service: 163.325
SURF_Search & Rescue: 164.000
SURF_Security: 163.750
SURF_Tower surf: 163.650
SURF_Vehicles: 163.850
UNNT_Backup frequency: 127.100
UNNT_Novosibirsk-Approach: 127.500
UNNT_Novosibirsk-Ground: 121.700
UNNT_Novosibirsk-Radar: 122.000
UNNT_Novosibirsk-Tower: 118.500
UNNT_Novosibirsk-Transit: 131.600
UNNT_S7 FOCC: 131.925

UNOO Gnd/Tower/App (Archives)
Omsk, Russia

Feed Status: UP
Listen in your browser - HTML5 player(in browser, HTML5)
Click here to listen with your own player(launches your MP3 player)

UNOO 222300Z 29003MPS CAVOK 02/M00 Q1014 R25/220060 NOSIG RMK QFE752

UNOO Flight Activity (Flightaware)

Listeners: 0 out of 718 total

Aerodrom Kalachevo: 123.300
Aerodrom Marianovka: 123.000
Emergency/Guard: 121.500
Novosibirsk Control (Sector 7): 132.500
Novosibirsk Control (Sector 8): 132.900
Omsk Approach (FL060-FL265): 131.200
Omsk Apron: 118.800
Omsk Start/Radar: 119.000
Omsk Taxiing: 121.700
Omsk Transit: 131.700
UNOS/OMSK-Severny: 124.000

UNTT Gnd/Info/Radar/Control (Archives)
Tomsk, Russia

Feed Status: UP
Listen in your browser - HTML5 player(in browser, HTML5)
Click here to listen with your own player(launches your MP3 player)

UNTT Flight Activity (Flightaware)

Listeners: 1 out of 718 total

Common Backup Frequency: 129.000
Emergency/Guard: 121.500
Novosibirsk Control (Sector 2): 126.100
Novosibirsk Control (Sector 3): 129.300
Novosibirsk Control (Sector 5): 132.300
Tomsk Ground: 118.800
Tomsk Information 1: 134.500
Tomsk Krug (Radar): 127.300
Tomsk Transit: 131.875
Troynik (Golovino): 122.400

URKK Gnd/Twr/App (Archives)
Krasnodar, Russia

Feed Status: UP
Listen in your browser - HTML5 player(in browser, HTML5)
Click here to listen with your own player(launches your MP3 player)

URKK 222300Z 27003MPS CAVOK 18/14 Q1013 R23L/CLRD70 NOSIG RMK QFE756

URKK Flight Activity (Flightaware)

Listeners: 1 out of 718 total

Krasnodar Approach: 129.600
Krasnodar Ground: 119.000
Krasnodar Radar: 121.300
Krasnodar Tower: 118.200

URMT Twr/App/Control (Archives)
Stavropol, Russia

Feed Status: UP
Listen in your browser - HTML5 player(in browser, HTML5)
Click here to listen with your own player(launches your MP3 player)

URMT 222300Z 26003MPS CAVOK 13/12 Q1014 R25/190060 NOSIG RMK QFE722

URMT Flight Activity (Flightaware)

Listeners: 0 out of 718 total

Stavropol Approach: 120.300
Stavropol Control: 118.250
Stavropol Tower: 120.900

URSS Gnd/Twr/App (Archives)
Sochi, Russia

Feed Status: UP
Listen in your browser - HTML5 player(in browser, HTML5)
Click here to listen with your own player(launches your MP3 player)

URSS 222300Z 06003MPS 9999 BKN100 16/14 Q1014 R02/010070 R06/010070 NOSIG RMK R06/07003MPS QFE759

URSS Flight Activity (Flightaware)

Listeners: 0 out of 718 total

Sochi Approach: 118.300
Sochi Approach: 119.700
Sochi District (Small Aircraft): 118.500
Sochi Start: 121.200
Sochi Taxi: 119.000
Sochi Tower: 124.600

USCC Twr/App/Control
Chelyabinsk, Russia

Feed Status: DOWN
Offline since: 2019-05-09 12:01:03 UTC

USCC 222300Z 23003MPS CAVOK 09/M01 Q1012 R27/000060 NOSIG RMK QFE739

Airfield Services: 163.380
Airfield Services: 163.500
Airfield Services: 163.950
Airfield Services: 164.150
Chelyabinsk Approach: 124.700
Chelyabinsk Control (North): 125.400
Chelyabinsk Control (South): 125.500
Chelyabinsk Tower: 125.200
Chelyabinsk Transit: 131.600
Emergency/Guard: 121.500

USDD Gnd/Twr/App/Control (Archives)
Salekhard, Russia

Feed Status: UP
Listen in your browser - HTML5 player(in browser, HTML5)
Click here to listen with your own player(launches your MP3 player)

USDD 150530Z 05007MPS 9999 -SHRA BKN009CB 09/07 Q1002 R04/290060 NOSIG RMK QFE746/0994

USDD Flight Activity (Flightaware)

Listeners: 0 out of 718 total

Salekhard Control: 132.300
Salekhard Ground: 118.800
Salekhard Info: 125.200
Salekhard Krug: 120.800
Salekhard Tower: 118.600
Salekhard Transit: 131.700

USTR Gnd/Twr/App (Archives)
Tyumen, Russia

Feed Status: UP
Listen in your browser - HTML5 player(in browser, HTML5)
Click here to listen with your own player(launches your MP3 player)

USTR 222300Z 22003MPS CAVOK 04/02 Q1011 R21/CLRD65 NOSIG RMK QFE749/0998

USTR Flight Activity (Flightaware)

Listeners: 0 out of 718 total

Tyumen Approach: 126.100
Tyumen Control: 132.600
Tyumen Control: 133.600
Tyumen Info (Regional): 133.400
Tyumen Start: 118.200
Tyumen Transit: 131.800

USUU Twr/App/Control (Archives)
Kurgan, Russia

Feed Status: UP
Listen in your browser - HTML5 player(in browser, HTML5)
Click here to listen with your own player(launches your MP3 player)

USUU Flight Activity (Flightaware)

Listeners: 0 out of 718 total

Aerodromnaya 50: 164.100
Baggage Handling: 164.025
Kurgan Approach: 120.300
Kurgan Tower: 134.300
Kurgan/USUU Transit: 131.700
Kurtamysh: 122.450
Ural Control Sector 4: 119.700
USUL Tower: 129.600

UUDD Twr/App
Moscow, Russia

Feed Status: DOWN
Offline since: 2019-05-01 08:56:02 UTC

UUDD 222300Z VRB01MPS CAVOK 13/09 Q1007 R32L/CLRD70 NOSIG

Domodedovo Tower: 118.600
Moscow Approach: 125.300
Moscow Approach: 127.700

VCBI Director
Colombo, Sri Lanka

Feed Status: DOWN
Offline since: 2019-05-22 17:55:03 UTC

VCBI 222310Z 15004KT CAVOK 26/24 Q1008 NOSIG

Colombo Director: 132.400

VHHH Approach 119.1 #1 (Archives)
Hong Kong, Hong Kong

Feed Status: UP
Listen in your browser - HTML5 player(in browser, HTML5)
Click here to listen with your own player(launches your MP3 player)

VHHH 222330Z 12006KT 080V150 9999 FEW012 SCT030 28/24 Q1010 TEMPO 3000 -TSRA SHRA FEW010CB SCT020 BKN040

VHHH Flight Activity (Flightaware)

Listeners: 0 out of 718 total

Hong Kong Approach: 119.100

VHHH Approach 119.1 #2 (Archives)
Hong Kong, Hong Kong

Feed Status: UP
Listen in your browser - HTML5 player(in browser, HTML5)
Click here to listen with your own player(launches your MP3 player)

VHHH 222330Z 12006KT 080V150 9999 FEW012 SCT030 28/24 Q1010 TEMPO 3000 -TSRA SHRA FEW010CB SCT020 BKN040

VHHH Flight Activity (Flightaware)

Listeners: 1 out of 718 total

Hong Kong Approach: 119.100

VHHH ATIS (Archives)
Hong Kong, Hong Kong

Feed Status: UP
Listen in your browser - HTML5 player(in browser, HTML5)
Click here to listen with your own player(launches your MP3 player)

VHHH 222330Z 12006KT 080V150 9999 FEW012 SCT030 28/24 Q1010 TEMPO 3000 -TSRA SHRA FEW010CB SCT020 BKN040

VHHH Flight Activity (Flightaware)

Listeners: 0 out of 718 total

Hong Kong Arrival ATIS: 128.200

VHHH Clearance Delivery (Archives)
Hong Kong, Hong Kong

Feed Status: UP
Listen in your browser - HTML5 player(in browser, HTML5)
Click here to listen with your own player(launches your MP3 player)

VHHH 222330Z 12006KT 080V150 9999 FEW012 SCT030 28/24 Q1010 TEMPO 3000 -TSRA SHRA FEW010CB SCT020 BKN040

VHHH Flight Activity (Flightaware)

Listeners: 0 out of 718 total

Hong Kong Clearance Delivery: 129.900

VHHH Departure (Primary) (Archives)
Hong Kong, Hong Kong

Feed Status: UP
Listen in your browser - HTML5 player(in browser, HTML5)
Click here to listen with your own player(launches your MP3 player)

VHHH 222330Z 12006KT 080V150 9999 FEW012 SCT030 28/24 Q1010 TEMPO 3000 -TSRA SHRA FEW010CB SCT020 BKN040

VHHH Flight Activity (Flightaware)

Listeners: 0 out of 718 total

Hong Kong Departure: 123.800

VHHH Director #1 (Archives)
Hong Kong, Hong Kong

Feed Status: UP
Listen in your browser - HTML5 player(in browser, HTML5)
Click here to listen with your own player(launches your MP3 player)

VHHH 222330Z 12006KT 080V150 9999 FEW012 SCT030 28/24 Q1010 TEMPO 3000 -TSRA SHRA FEW010CB SCT020 BKN040

VHHH Flight Activity (Flightaware)

Listeners: 0 out of 718 total

Hong Kong Director: 119.500

VHHH Director #2 (Archives)
Hong Kong, Hong Kong

Feed Status: UP
Listen in your browser - HTML5 player(in browser, HTML5)
Click here to listen with your own player(launches your MP3 player)

VHHH 222330Z 12006KT 080V150 9999 FEW012 SCT030 28/24 Q1010 TEMPO 3000 -TSRA SHRA FEW010CB SCT020 BKN040

VHHH Flight Activity (Flightaware)

Listeners: 1 out of 718 total

Hong Kong Director: 119.500

VHHH Ground (Archives)
Hong Kong, Hong Kong

Feed Status: UP
Listen in your browser - HTML5 player(in browser, HTML5)
Click here to listen with your own player(launches your MP3 player)

VHHH 222330Z 12006KT 080V150 9999 FEW012 SCT030 28/24 Q1010 TEMPO 3000 -TSRA SHRA FEW010CB SCT020 BKN040

VHHH Flight Activity (Flightaware)

Listeners: 0 out of 718 total

Hong Kong Ground (North): 121.600
Hong Kong Ground (South): 122.550

VHHH Ground (North) (Archives)
Hong Kong, Hong Kong

Feed Status: UP
Listen in your browser - HTML5 player(in browser, HTML5)
Click here to listen with your own player(launches your MP3 player)

VHHH 222330Z 12006KT 080V150 9999 FEW012 SCT030 28/24 Q1010 TEMPO 3000 -TSRA SHRA FEW010CB SCT020 BKN040

VHHH Flight Activity (Flightaware)

Listeners: 0 out of 718 total

Hong Kong Ground (North): 121.600

VHHH Ground (South) (Archives)
Hong Kong, Hong Kong

Feed Status: UP
Listen in your browser - HTML5 player(in browser, HTML5)
Click here to listen with your own player(launches your MP3 player)

VHHH 222330Z 12006KT 080V150 9999 FEW012 SCT030 28/24 Q1010 TEMPO 3000 -TSRA SHRA FEW010CB SCT020 BKN040

VHHH Flight Activity (Flightaware)

Listeners: 1 out of 718 total

Hong Kong Ground (South): 122.550

VHHH Hong Kong Radar (Archives)
Hong Kong, Hong Kong

Feed Status: UP
Listen in your browser - HTML5 player(in browser, HTML5)
Click here to listen with your own player(launches your MP3 player)

VHHH 222330Z 12006KT 080V150 9999 FEW012 SCT030 28/24 Q1010 TEMPO 3000 -TSRA SHRA FEW010CB SCT020 BKN040

VHHH Flight Activity (Flightaware)

Listeners: 0 out of 718 total

Hong Kong Radar: 121.300
Hong Kong Radar: 118.925
Hong Kong Radar: 123.950

VHHH Tower (Archives)
Hong Kong, Hong Kong

Feed Status: UP
Listen in your browser - HTML5 player(in browser, HTML5)
Click here to listen with your own player(launches your MP3 player)

VHHH 222330Z 12006KT 080V150 9999 FEW012 SCT030 28/24 Q1010 TEMPO 3000 -TSRA SHRA FEW010CB SCT020 BKN040

VHHH Flight Activity (Flightaware)

Listeners: 0 out of 718 total

Hong Kong Tower (North): 118.200
Hong Kong Tower (South): 118.400

VHHH Tower (North) (Archives)
Hong Kong, Hong Kong

Feed Status: UP
Listen in your browser - HTML5 player(in browser, HTML5)
Click here to listen with your own player(launches your MP3 player)

VHHH 222330Z 12006KT 080V150 9999 FEW012 SCT030 28/24 Q1010 TEMPO 3000 -TSRA SHRA FEW010CB SCT020 BKN040

VHHH Flight Activity (Flightaware)

Listeners: 0 out of 718 total

Hong Kong Tower (North): 118.200

VHHH Tower (South) (Archives)
Hong Kong, Hong Kong

Feed Status: UP
Listen in your browser - HTML5 player(in browser, HTML5)
Click here to listen with your own player(launches your MP3 player)

VHHH 222330Z 12006KT 080V150 9999 FEW012 SCT030 28/24 Q1010 TEMPO 3000 -TSRA SHRA FEW010CB SCT020 BKN040

VHHH Flight Activity (Flightaware)

Listeners: 0 out of 718 total

Hong Kong Tower (South): 118.400

VHHH Zone (Archives)
Hong Kong, Hong Kong

Feed Status: UP
Listen in your browser - HTML5 player(in browser, HTML5)
Click here to listen with your own player(launches your MP3 player)

VHHH 222330Z 12006KT 080V150 9999 FEW012 SCT030 28/24 Q1010 TEMPO 3000 -TSRA SHRA FEW010CB SCT020 BKN040

VHHH Flight Activity (Flightaware)

Listeners: 0 out of 718 total

Hong Kong Zone: 120.600

VTBS Approach (East) (Archives)
Bangkok, Thailand

Feed Status: UP
Listen in your browser - HTML5 player(in browser, HTML5)
Click here to listen with your own player(launches your MP3 player)

VTBS 222300Z VRB01KT 9999 FEW020 27/25 Q1008 NOSIG

VTBS Flight Activity (Flightaware)

Listeners: 0 out of 718 total

Bangkok Approach (East): 122.350

VTBS Approach (North) (Archives)
Bangkok, Thailand

Feed Status: UP
Listen in your browser - HTML5 player(in browser, HTML5)
Click here to listen with your own player(launches your MP3 player)

VTBS 222300Z VRB01KT 9999 FEW020 27/25 Q1008 NOSIG

VTBS Flight Activity (Flightaware)

Listeners: 0 out of 718 total

Bangkok Approach (North): 121.700

VTBS Approach 119.1 (Archives)
Bangkok, Thailand

Feed Status: UP
Listen in your browser - HTML5 player(in browser, HTML5)
Click here to listen with your own player(launches your MP3 player)

VTBS 222300Z VRB01KT 9999 FEW020 27/25 Q1008 NOSIG

VTBS Flight Activity (Flightaware)

Listeners: 0 out of 718 total

Bangkok Approach: 119.100

VTBS Approach 119.4 (Archives)
Bangkok, Thailand

Feed Status: UP
Listen in your browser - HTML5 player(in browser, HTML5)
Click here to listen with your own player(launches your MP3 player)

VTBS 222300Z VRB01KT 9999 FEW020 27/25 Q1008 NOSIG

VTBS Flight Activity (Flightaware)

Listeners: 0 out of 718 total

Bangkok Approach: 119.400

VTBS Approach 120.3 (Archives)
Bangkok, Thailand

Feed Status: UP
Listen in your browser - HTML5 player(in browser, HTML5)
Click here to listen with your own player(launches your MP3 player)

VTBS 222300Z VRB01KT 9999 FEW020 27/25 Q1008 NOSIG

VTBS Flight Activity (Flightaware)

Listeners: 0 out of 718 total

Bangkok Approach: 120.300

VTBS Approach/Arrival (Archives)
Bangkok, Thailand

Feed Status: UP
Listen in your browser - HTML5 player(in browser, HTML5)
Click here to listen with your own player(launches your MP3 player)

VTBS 222300Z VRB01KT 9999 FEW020 27/25 Q1008 NOSIG

VTBS Flight Activity (Flightaware)

Listeners: 0 out of 718 total

Bangkok Approach: 124.350
Bangkok Approach: 125.200
Bangkok Approach: 124.700
Bangkok Approach: 126.300
Bangkok Approach: 133.400
Bangkok Arrival (VTBD): 125.500

VTBS Arrival 121.1 (Archives)
Bangkok, Thailand

Feed Status: UP
Listen in your browser - HTML5 player(in browser, HTML5)
Click here to listen with your own player(launches your MP3 player)

VTBS 222300Z VRB01KT 9999 FEW020 27/25 Q1008 NOSIG

VTBS Flight Activity (Flightaware)

Listeners: 0 out of 718 total

Bangkok Arrival: 121.100

VTBS ATIS (Archives)
Bangkok, Thailand

Feed Status: UP
Listen in your browser - HTML5 player(in browser, HTML5)
Click here to listen with your own player(launches your MP3 player)

VTBS 222300Z VRB01KT 9999 FEW020 27/25 Q1008 NOSIG

VTBS Flight Activity (Flightaware)

Listeners: 0 out of 718 total

Bangkok D-ATIS: 133.600

VTBS Control (FIR) (Archives)
Bangkok, Thailand

Feed Status: UP
Listen in your browser - HTML5 player(in browser, HTML5)
Click here to listen with your own player(launches your MP3 player)

VTBS 222300Z VRB01KT 9999 FEW020 27/25 Q1008 NOSIG

VTBS Flight Activity (Flightaware)

Listeners: 0 out of 718 total

Bangkok FIR (Sector 3): 135.500

VTBS Departure (Archives)
Bangkok, Thailand

Feed Status: UP
Listen in your browser - HTML5 player(in browser, HTML5)
Click here to listen with your own player(launches your MP3 player)

VTBS 222300Z VRB01KT 9999 FEW020 27/25 Q1008 NOSIG

VTBS Flight Activity (Flightaware)

Listeners: 0 out of 718 total

Bangkok Departure: 119.250

VTBS Ground (East) (Archives)
Bangkok, Thailand

Feed Status: UP
Listen in your browser - HTML5 player(in browser, HTML5)
Click here to listen with your own player(launches your MP3 player)

VTBS 222300Z VRB01KT 9999 FEW020 27/25 Q1008 NOSIG

VTBS Flight Activity (Flightaware)

Listeners: 0 out of 718 total

Bangkok Ground (East): 121.650

VTBS Ground (Main) (Archives)
Bangkok, Thailand

Feed Status: UP
Listen in your browser - HTML5 player(in browser, HTML5)
Click here to listen with your own player(launches your MP3 player)

VTBS 222300Z VRB01KT 9999 FEW020 27/25 Q1008 NOSIG

VTBS Flight Activity (Flightaware)

Listeners: 0 out of 718 total

Bangkok Ground (Main): 121.750

VTBS Ground (West) (Archives)
Bangkok, Thailand

Feed Status: UP
Listen in your browser - HTML5 player(in browser, HTML5)
Click here to listen with your own player(launches your MP3 player)

VTBS 222300Z VRB01KT 9999 FEW020 27/25 Q1008 NOSIG

VTBS Flight Activity (Flightaware)

Listeners: 0 out of 718 total

Bangkok Ground (West): 121.950

VTBS Tower (Archives)
Bangkok, Thailand

Feed Status: UP
Listen in your browser - HTML5 player(in browser, HTML5)
Click here to listen with your own player(launches your MP3 player)

VTBS 222300Z VRB01KT 9999 FEW020 27/25 Q1008 NOSIG

VTBS Flight Activity (Flightaware)

Listeners: 0 out of 718 total

Bangkok Tower (Rwy 01L/19R): 119.000
Bangkok Tower (Rwy 01R/19L): 118.200

VTBS Tower (Rwy 01L/19R) (Archives)
Bangkok, Thailand

Feed Status: UP
Listen in your browser - HTML5 player(in browser, HTML5)
Click here to listen with your own player(launches your MP3 player)

VTBS 222300Z VRB01KT 9999 FEW020 27/25 Q1008 NOSIG

VTBS Flight Activity (Flightaware)

Listeners: 0 out of 718 total

Bangkok Tower (Rwy 01L/19R): 119.000

VTBS Tower (Rwy 01R/19L) (Archives)
Bangkok, Thailand

Feed Status: UP
Listen in your browser - HTML5 player(in browser, HTML5)
Click here to listen with your own player(launches your MP3 player)

VTBS 222300Z VRB01KT 9999 FEW020 27/25 Q1008 NOSIG

VTBS Flight Activity (Flightaware)

Listeners: 0 out of 718 total

Bangkok Tower (Rwy 01R/19L): 118.200

WAHH Approach
Yogyakarta, Indonesia

Feed Status: DOWN
Offline since: 2019-01-09 17:03:03 UTC

Adisutjipto Approach: 123.400

WBKK Gnd/Twr/App (Archives)
Kota Kinabalu, Malaysia

Feed Status: UP
Listen in your browser - HTML5 player(in browser, HTML5)
Click here to listen with your own player(launches your MP3 player)

WBKK 222300Z VRB02KT 9999 FEW014 SCT140 BKN280 28/25 Q1011 NOSIG


Listeners: 1 out of 718 total

Kinabalu Director: 119.100
Kinabalu Ground: 121.600
Kinabalu Radar: 126.100
Kinabalu Radar: 132.450
Kinabalu Tower: 118.300

WBKK Gnd/Twr/Radar/Control (Archives)
Kota Kinabalu, Malaysia

Feed Status: UP
Listen in your browser - HTML5 player(in browser, HTML5)
Click here to listen with your own player(launches your MP3 player)

WBKK 222300Z VRB02KT 9999 FEW014 SCT140 BKN280 28/25 Q1011 NOSIG


Listeners: 1 out of 718 total

Kinabalu Director: 119.100
Kinabalu Ground: 121.600
Kinabalu Radar: 126.100
Kinabalu Radar: 132.450
Kinabalu Radar: 128.300
Kinabalu Tower: 118.300

WMKB Radar (Archives)
Penang, Malaysia

Feed Status: UP
Listen in your browser - HTML5 player(in browser, HTML5)
Click here to listen with your own player(launches your MP3 player)

WMKB 222300Z VRB02KT 9000 FEW017CB SCT140 BKN270 26/24 Q1010 NOSIG


Listeners: 2 out of 718 total

Butterworth Radar: 125.800

YADG CTAF (Archives)
Sellicks Hill, South Australia, Australia

Feed Status: UP
Listen in your browser - HTML5 player(in browser, HTML5)
Click here to listen with your own player(launches your MP3 player)

YADG Flight Activity (Flightaware)

Listeners: 0 out of 718 total

Aldinga CTAF: 127.150

YBAF Gnd/Twr #2 (Archives)
Brisbane, Queensland, Australia

Feed Status: UP
Listen in your browser - HTML5 player(in browser, HTML5)
Click here to listen with your own player(launches your MP3 player)

YBAF Flight Activity (Flightaware)

Listeners: 0 out of 718 total

Brisbane Ground: 119.900
Brisbane Tower (North): 123.600
Brisbane Tower/CTAF (South): 118.100

YBAS Tower/Center (Archives)
Alice Springs, Northern Territory, Australia

Feed Status: UP
Listen in your browser - HTML5 player(in browser, HTML5)
Click here to listen with your own player(launches your MP3 player)

YBAS 222300Z AUTO 25004KT 9999 // NCD 15/10 Q1026

YBAS Flight Activity (Flightaware)

Listeners: 0 out of 718 total

Alice Tower/CTAF: 118.300
Melbourne Center (above FL280): 128.850
Melbourne Center (below FL280): 119.800

Alice Springs Aircraft Movements

YBBN Brisbane Center (Archives)
Brisbane, Queensland, Australia

Feed Status: UP
Listen in your browser - HTML5 player(in browser, HTML5)
Click here to listen with your own player(launches your MP3 player)

YBBN 222300Z 20004KT 140V220 9999 -SHRA FEW025 SCT034 BKN050 19/14 Q1026 FM0100 16008KT 9999 SCT030

YBBN Flight Activity (Flightaware)

Listeners: 2 out of 718 total

Brisbane Center (North): 123.000
Brisbane Center (Southwest): 128.150
Brisbane Centre (High): 134.300
Brisbane Centre (South): 130.400
Brisbane Oceanic Center: 132.850

YBBN Gnd/Twr/App/Dep (Archives)
Brisbane, Queensland, Australia

Feed Status: UP
Listen in your browser - HTML5 player(in browser, HTML5)
Click here to listen with your own player(launches your MP3 player)

YBBN 222300Z 20004KT 140V220 9999 -SHRA FEW025 SCT034 BKN050 19/14 Q1026 FM0100 16008KT 9999 SCT030

YBBN Flight Activity (Flightaware)

Listeners: 5 out of 718 total

Approach: 123.500
Brisbane Approach: 124.700
Brisbane Approach/Departure: 125.600
Brisbane Departure: 128.300
Brisbane Ground: 121.700
Brisbane Tower: 120.500

YBCG Approach (Archives)
Gold Coast City, Queensland, Australia

Feed Status: UP
Listen in your browser - HTML5 player(in browser, HTML5)
Click here to listen with your own player(launches your MP3 player)

YBCG 222300Z AUTO 21007KT 9999 // SCT074 21/15 Q1026

YBCG Flight Activity (Flightaware)

Listeners: 0 out of 718 total

Brisbane Approach: 123.500

YBCG Area CTAF (Archives)
Gold Coast City, Queensland, Australia

Feed Status: UP
Listen in your browser - HTML5 player(in browser, HTML5)
Click here to listen with your own player(launches your MP3 player)

YBCG 222300Z AUTO 21007KT 9999 // SCT074 21/15 Q1026

YBCG Flight Activity (Flightaware)

Listeners: 0 out of 718 total

Gold Coast Area CTAF: 126.700

YBCG Brisbane Centre (Archives)
Gold Coast City, Queensland, Australia

Feed Status: UP
Listen in your browser - HTML5 player(in browser, HTML5)
Click here to listen with your own player(launches your MP3 player)

YBCG 222300Z AUTO 21007KT 9999 // SCT074 21/15 Q1026

YBCG Flight Activity (Flightaware)

Listeners: 0 out of 718 total

Brisbane Centre/Radar: 119.500

YBCG Ground (Archives)
Gold Coast City, Queensland, Australia

Feed Status: UP
Listen in your browser - HTML5 player(in browser, HTML5)
Click here to listen with your own player(launches your MP3 player)

YBCG 222300Z AUTO 21007KT 9999 // SCT074 21/15 Q1026

YBCG Flight Activity (Flightaware)

Listeners: 0 out of 718 total

Gold Coast Ground: 121.800

YBCG Ground/Tower (Archives)
Gold Coast City, Queensland, Australia

Feed Status: UP
Listen in your browser - HTML5 player(in browser, HTML5)
Click here to listen with your own player(launches your MP3 player)

YBCG 222300Z AUTO 21007KT 9999 // SCT074 21/15 Q1026

YBCG Flight Activity (Flightaware)

Listeners: 0 out of 718 total

Gold Coast Ground: 121.800
Gold Coast Tower: 118.700

YBCG Tower (Archives)
Gold Coast City, Queensland, Australia

Feed Status: UP
Listen in your browser - HTML5 player(in browser, HTML5)
Click here to listen with your own player(launches your MP3 player)

YBCG 222300Z AUTO 21007KT 9999 // SCT074 21/15 Q1026

YBCG Flight Activity (Flightaware)

Listeners: 0 out of 718 total

Gold Coast Tower: 118.700

YBCS App/Dep #1 (Archives)
Cairns, Queensland, Australia

Feed Status: UP
Listen in your browser - HTML5 player(in browser, HTML5)
Click here to listen with your own player(launches your MP3 player)

YBCS 222300Z AUTO 16011KT 9999 // NCD 24/20 Q1019 FM2300 15014KT 9999 -SHRA SCT022 BKN040 INTER 2300/0100 4000 SHRA FEW008 BKN018

YBCS Flight Activity (Flightaware)

Listeners: 0 out of 718 total

Cairns Approach/Departure: 118.400

YBCS App/Dep #2 (Archives)
Cairns, Queensland, Australia

Feed Status: UP
Listen in your browser - HTML5 player(in browser, HTML5)
Click here to listen with your own player(launches your MP3 player)

YBCS 222300Z AUTO 16011KT 9999 // NCD 24/20 Q1019 FM2300 15014KT 9999 -SHRA SCT022 BKN040 INTER 2300/0100 4000 SHRA FEW008 BKN018

YBCS Flight Activity (Flightaware)

Listeners: 0 out of 718 total

Cairns Approach/Departure: 126.100

YBCS App/Dep (all) (Archives)
Cairns, Queensland, Australia

Feed Status: UP
Listen in your browser - HTML5 player(in browser, HTML5)
Click here to listen with your own player(launches your MP3 player)

YBCS 222300Z AUTO 16011KT 9999 // NCD 24/20 Q1019 FM2300 15014KT 9999 -SHRA SCT022 BKN040 INTER 2300/0100 4000 SHRA FEW008 BKN018

YBCS Flight Activity (Flightaware)

Listeners: 0 out of 718 total

Cairns Approach/Departure: 126.100
Cairns Approach/Departure: 118.400

YBCS Brisbane Centre (Archives)
Cairns, Queensland, Australia

Feed Status: UP
Listen in your browser - HTML5 player(in browser, HTML5)
Click here to listen with your own player(launches your MP3 player)

YBCS 222300Z AUTO 16011KT 9999 // NCD 24/20 Q1019 FM2300 15014KT 9999 -SHRA SCT022 BKN040 INTER 2300/0100 4000 SHRA FEW008 BKN018

YBCS Flight Activity (Flightaware)

Listeners: 0 out of 718 total

Brisbane Centre: 121.200

YBCS Emergency/Guard (Archives)
Cairns, Queensland, Australia

Feed Status: UP
Listen in your browser - HTML5 player(in browser, HTML5)
Click here to listen with your own player(launches your MP3 player)

YBCS 222300Z AUTO 16011KT 9999 // NCD 24/20 Q1019 FM2300 15014KT 9999 -SHRA SCT022 BKN040 INTER 2300/0100 4000 SHRA FEW008 BKN018

YBCS Flight Activity (Flightaware)

Listeners: 0 out of 718 total

Emergency/Guard: 121.500

YBCS Ground (Archives)
Cairns, Queensland, Australia

Feed Status: UP
Listen in your browser - HTML5 player(in browser, HTML5)
Click here to listen with your own player(launches your MP3 player)

YBCS 222300Z AUTO 16011KT 9999 // NCD 24/20 Q1019 FM2300 15014KT 9999 -SHRA SCT022 BKN040 INTER 2300/0100 4000 SHRA FEW008 BKN018

YBCS Flight Activity (Flightaware)

Listeners: 0 out of 718 total

Cairns Ground: 121.700

YBCS Ground/Tower (Archives)
Cairns, Queensland, Australia

Feed Status: UP
Listen in your browser - HTML5 player(in browser, HTML5)
Click here to listen with your own player(launches your MP3 player)

YBCS 222300Z AUTO 16011KT 9999 // NCD 24/20 Q1019 FM2300 15014KT 9999 -SHRA SCT022 BKN040 INTER 2300/0100 4000 SHRA FEW008 BKN018

YBCS Flight Activity (Flightaware)

Listeners: 1 out of 718 total

Cairns Ground: 121.700
Cairns Tower: 124.900

YBCS Tower (Archives)
Cairns, Queensland, Australia

Feed Status: UP
Listen in your browser - HTML5 player(in browser, HTML5)
Click here to listen with your own player(launches your MP3 player)

YBCS 222300Z AUTO 16011KT 9999 // NCD 24/20 Q1019 FM2300 15014KT 9999 -SHRA SCT022 BKN040 INTER 2300/0100 4000 SHRA FEW008 BKN018

YBCS Flight Activity (Flightaware)

Listeners: 0 out of 718 total

Cairns Tower: 124.900

YBCV CTAF/Brisbane Center (Archives)
Charleville, Queensland, Australia

Feed Status: UP
Listen in your browser - HTML5 player(in browser, HTML5)
Click here to listen with your own player(launches your MP3 player)

YBCV 222300Z AUTO 13004KT 9999 // OVC094 19/10 Q1026

YBCV Flight Activity (Flightaware)

Listeners: 0 out of 718 total

Brisbane Center: 124.800
Charleville CTAF/UNICOM: 126.700

YBOK Del/Gnd/Twr/App (Archives)
Oakey, Queensland, Australia

Feed Status: UP
Listen in your browser - HTML5 player(in browser, HTML5)
Click here to listen with your own player(launches your MP3 player)

YBOK Flight Activity (Flightaware)

Listeners: 0 out of 718 total

Brisbane Center/FSS: 121.200
Oakey Approach: 125.400
Oakey Approach: 123.700
Oakey Approach (Final): 135.850
Oakey Clearance Delivery: 133.350
Oakey CTAF (+YTWB/YBWW): 127.650
Oakey Ground: 121.900
Oakey Tower: 120.100

YBTL Approach/Departure (Archives)
Townsville, Queensland, Australia

Feed Status: UP
Listen in your browser - HTML5 player(in browser, HTML5)
Click here to listen with your own player(launches your MP3 player)

YBTL 222300Z 15011KT 9999 FEW030 SCT078 26/16 Q1021 NOSIG

YBTL Flight Activity (Flightaware)

Listeners: 0 out of 718 total

Townsville Approach/Departure: 126.800

YBTL ATIS (Archives)
Townsville, Queensland, Australia

Feed Status: UP
Listen in your browser - HTML5 player(in browser, HTML5)
Click here to listen with your own player(launches your MP3 player)

YBTL 222300Z 15011KT 9999 FEW030 SCT078 26/16 Q1021 NOSIG

YBTL Flight Activity (Flightaware)

Listeners: 0 out of 718 total

Townsville ATIS: 133.500

YBTL Brisbane Center (Archives)
Townsville, Queensland, Australia

Feed Status: UP
Listen in your browser - HTML5 player(in browser, HTML5)
Click here to listen with your own player(launches your MP3 player)

YBTL 222300Z 15011KT 9999 FEW030 SCT078 26/16 Q1021 NOSIG

YBTL Flight Activity (Flightaware)

Listeners: 2 out of 718 total

Brisbane Center: 120.550

YBTL Clearance Delivery (Archives)
Townsville, Queensland, Australia

Feed Status: UP
Listen in your browser - HTML5 player(in browser, HTML5)
Click here to listen with your own player(launches your MP3 player)

YBTL 222300Z 15011KT 9999 FEW030 SCT078 26/16 Q1021 NOSIG

YBTL Flight Activity (Flightaware)

Listeners: 0 out of 718 total

Townsville Clearance Delivery: 128.100

YBTL Ground (Archives)
Townsville, Queensland, Australia

Feed Status: UP
Listen in your browser - HTML5 player(in browser, HTML5)
Click here to listen with your own player(launches your MP3 player)

YBTL 222300Z 15011KT 9999 FEW030 SCT078 26/16 Q1021 NOSIG

YBTL Flight Activity (Flightaware)

Listeners: 0 out of 718 total

Townsville Ground: 119.450

YBTL Tower (Archives)
Townsville, Queensland, Australia

Feed Status: UP
Listen in your browser - HTML5 player(in browser, HTML5)
Click here to listen with your own player(launches your MP3 player)

YBTL 222300Z 15011KT 9999 FEW030 SCT078 26/16 Q1021 NOSIG

YBTL Flight Activity (Flightaware)

Listeners: 0 out of 718 total

Townsville Tower: 118.300

YGAW CTAF (Archives)
Gawler, South Australia, Australia

Feed Status: UP
Listen in your browser - HTML5 player(in browser, HTML5)
Click here to listen with your own player(launches your MP3 player)

METAR NOT AVAILABLE

YGAW Flight Activity (Flightaware)

Listeners: 0 out of 718 total

Gawler CTAF: 126.550

YGLA CTAF (Archives)
Gladstone, Queensland, Australia

Feed Status: UP
Listen in your browser - HTML5 player(in browser, HTML5)
Click here to listen with your own player(launches your MP3 player)

YGLA 222300Z AUTO 15007KT 9999 // SCT092 22/14 Q1024 RF00.0/000.0

YGLA Flight Activity (Flightaware)

Listeners: 0 out of 718 total

Gladstone CTF/Multicom: 118.800

YMML/YMMB/YMEN
Essendon, Victoria, Australia

Feed Status: DOWN
Offline since: 2019-04-07 02:19:02 UTC

YMML 222300Z 36020KT CAVOK 14/08 Q1026

Air Ambulance: 132.750
Air Ambulance: 122.075
DSE & Other Company: 119.100
Essendon Tower: 125.100
Inter-Pilot: 123.450
Jetstar Company: 130.925
Melbourne ACD: 127.200
Melbourne Approach: 132.000
Melbourne Centre: 125.200
Melbourne Centre: 125.800
Melbourne Centre: 130.300
Melbourne Centre: 128.500
Melbourne Centre: 125.700
Melbourne Centre: 122.400
Melbourne Centre: 126.800
Melbourne Centre: 123.750
Melbourne Departure: 129.400
Melbourne Departure: 118.900
Melbourne Radar: 135.700
Melbourne Tower: 120.500
Moorabbin Tower (East): 118.100
Moorabbin Tower (West): 123.000
Police Air Wing: 131.600
Qantas Company: 130.850
Qantas Company: 129.500
Rex Company: 126.450
Royal Victorian Aero Club Company: 128.700
Royal Victorian Aero Club Company: 133.400
Virgin Blue Company: 131.500
Yarra Bank Heliport CTAF: 132.100

YMHB Gnd/Twr/Centre (Archives)
Cambridge, Tasmania, Australia

Feed Status: UP
Listen in your browser - HTML5 player(in browser, HTML5)
Click here to listen with your own player(launches your MP3 player)

YMHB 222300Z 33009KT 9999 FEW050 BKN250 13/04 Q1021 RF00.0/000.0

YMHB Flight Activity (Flightaware)

Listeners: 0 out of 718 total

Hobart Ground: 121.700
Hobart Tower: 118.100
Melbourne Centre: 125.550

YMIA CTAF/Melbourne Center (Archives)
Mildura, Victoria, Australia

Feed Status: UP
Listen in your browser - HTML5 player(in browser, HTML5)
Click here to listen with your own player(launches your MP3 player)

YMIA 222300Z AUTO 02007KT 9999 // NCD 16/07 Q1027

YMIA Flight Activity (Flightaware)

Listeners: 0 out of 718 total

Melbourne Center: 112.100
Melbourne Center: 132.600
Mildura CTAF: 118.800

YMML/YMMB/YMEN
Mentone, Victoria, Australia

Feed Status: DOWN
Offline since: 2019-04-07 02:19:02 UTC

YMML 222300Z 36020KT CAVOK 14/08 Q1026

Air Ambulance: 132.750
Air Ambulance: 122.075
DSE & Other Company: 119.100
Essendon Tower: 125.100
Inter-Pilot: 123.450
Jetstar Company: 130.925
Melbourne ACD: 127.200
Melbourne Approach: 132.000
Melbourne Centre: 125.200
Melbourne Centre: 125.800
Melbourne Centre: 130.300
Melbourne Centre: 128.500
Melbourne Centre: 125.700
Melbourne Centre: 122.400
Melbourne Centre: 126.800
Melbourne Centre: 123.750
Melbourne Departure: 129.400
Melbourne Departure: 118.900
Melbourne Radar: 135.700
Melbourne Tower: 120.500
Moorabbin Tower (East): 118.100
Moorabbin Tower (West): 123.000
Police Air Wing: 131.600
Qantas Company: 130.850
Qantas Company: 129.500
Rex Company: 126.450
Royal Victorian Aero Club Company: 128.700
Royal Victorian Aero Club Company: 133.400
Virgin Blue Company: 131.500
Yarra Bank Heliport CTAF: 132.100

YPAD Del/Gnd/Twr/App (Archives)
Adelaide, South Australia, Australia

Feed Status: UP
Listen in your browser - HTML5 player(in browser, HTML5)
Click here to listen with your own player(launches your MP3 player)

YPAD 222300Z 04005KT CAVOK 13/09 Q1024 NOSIG

YPAD Flight Activity (Flightaware)

Listeners: 0 out of 718 total

Adelaide Approach (East of Adelaide): 118.200
Adelaide Approach (East of Adelaide): 130.450
Adelaide Approach (Kangaroo Island): 123.050
Adelaide Approach (North of Adelaide): 128.600
Adelaide Approach (West of Adelaide): 124.200
Adelaide Clearance Delivery: 126.100
Adelaide Ground: 121.700
Adelaide Tower: 120.500

YPAD Gnd/Twr/App/Center (Archives)
Adelaide, South Australia, Australia

Feed Status: UP
Listen in your browser - HTML5 player(in browser, HTML5)
Click here to listen with your own player(launches your MP3 player)

YPAD 222300Z 04005KT CAVOK 13/09 Q1024 NOSIG

YPAD Flight Activity (Flightaware)

Listeners: 1 out of 718 total

Adelaide Approach (East of Adelaide): 118.200
Adelaide Approach (East of Adelaide): 130.450
Adelaide Approach (Kangaroo Island): 123.050
Adelaide Approach (North of Adelaide): 128.600
Adelaide Approach (West of Adelaide): 124.200
Adelaide Clearance Delivery: 126.100
Adelaide Ground: 121.700
Adelaide Tower: 120.500
Flight Watch: 135.750
Melbourne Centre: 124.300
Melbourne Centre ( East of Adelaide): 125.300
Melbourne Centre ( Pt Augusta, Pt Pirie, Whyalla): 123.900
Melbourne Centre (Mildura): 122.100
Melbourne Centre (North of Adelaide): 122.400
Melbourne Centre (Pt Lincoln): 125.900
Melbourne Centre (West of Adelaide ): 127.050

YPDN Gnd/Twr/App/Dep (Archives)
Darwin, Northern Territory, Australia

Feed Status: UP
Listen in your browser - HTML5 player(in browser, HTML5)
Click here to listen with your own player(launches your MP3 player)

YPDN 222300Z 13008KT CAVOK 24/17 Q1015 FM0000 11015G25KT CAVOK FM2300 MOD TURB BLW 5000FT

YPDN Flight Activity (Flightaware)

Listeners: 3 out of 718 total

Darwin Approach: 134.100
Darwin Arrival: 125.200
Darwin Departure: 119.550
Darwin Ground: 121.800
Darwin Tower: 133.100

YPJT Gnd/Twr (Archives)
Perth, Western Australia, Australia

Feed Status: UP
Listen in your browser - HTML5 player(in browser, HTML5)
Click here to listen with your own player(launches your MP3 player)

YPJT 222300Z AUTO 01004KT 9999 // SCT048 10/09 Q1023 RF00.0/000.0

YPJT Flight Activity (Flightaware)

Listeners: 1 out of 718 total

Jandakot Ground: 124.300
Jandakot Tower: 119.400
Jandakot Tower/CTAF: 118.100

YPMQ CTAF (Archives)
Port Macquarie, New South Wales, Australia

Feed Status: UP
Listen in your browser - HTML5 player(in browser, HTML5)
Click here to listen with your own player(launches your MP3 player)

YPMQ Flight Activity (Flightaware)

Listeners: 0 out of 718 total

Port Macquarie CTAF/Multicom: 118.100

YPPF Ground (Archives)
Parafield, South Australia, Australia

Feed Status: UP
Listen in your browser - HTML5 player(in browser, HTML5)
Click here to listen with your own player(launches your MP3 player)

YPPF Flight Activity (Flightaware)

Listeners: 0 out of 718 total

Parafield Ground: 119.900

YPPF Tower #1 (Archives)
Parafield, South Australia, Australia

Feed Status: UP
Listen in your browser - HTML5 player(in browser, HTML5)
Click here to listen with your own player(launches your MP3 player)

YPPF Flight Activity (Flightaware)

Listeners: 0 out of 718 total

Parafield Tower: 118.700

YPPF Tower #2 (Archives)
Parafield, South Australia, Australia

Feed Status: UP
Listen in your browser - HTML5 player(in browser, HTML5)
Click here to listen with your own player(launches your MP3 player)

YPPF Flight Activity (Flightaware)

Listeners: 0 out of 718 total

Parafield Tower: 124.600

YPPH Approach (Archives)
Perth, Western Australia, Australia

Feed Status: UP
Listen in your browser - HTML5 player(in browser, HTML5)
Click here to listen with your own player(launches your MP3 player)

YPPH 222300Z 01006KT 9999 BKN049 11/09 Q1023 NOSIG

YPPH Flight Activity (Flightaware)

Listeners: 0 out of 718 total

Perth Approach: 123.600

YPPH Departure (Archives)
Perth, Western Australia, Australia

Feed Status: UP
Listen in your browser - HTML5 player(in browser, HTML5)
Click here to listen with your own player(launches your MP3 player)

YPPH 222300Z 01006KT 9999 BKN049 11/09 Q1023 NOSIG

YPPH Flight Activity (Flightaware)

Listeners: 0 out of 718 total

Perth Departure: 118.700

YPPH Ground (Archives)
Perth, Western Australia, Australia

Feed Status: UP
Listen in your browser - HTML5 player(in browser, HTML5)
Click here to listen with your own player(launches your MP3 player)

YPPH 222300Z 01006KT 9999 BKN049 11/09 Q1023 NOSIG

YPPH Flight Activity (Flightaware)

Listeners: 0 out of 718 total

Perth Ground: 121.700

YPPH Tower (Archives)
Perth, Western Australia, Australia

Feed Status: UP
Listen in your browser - HTML5 player(in browser, HTML5)
Click here to listen with your own player(launches your MP3 player)

YPPH 222300Z 01006KT 9999 BKN049 11/09 Q1023 NOSIG

YPPH Flight Activity (Flightaware)

Listeners: 0 out of 718 total

Perth Tower: 127.400

YRYW 122.5 (Archives)
Raywood, Victoria, Australia

Feed Status: UP
Listen in your browser - HTML5 player(in browser, HTML5)
Click here to listen with your own player(launches your MP3 player)

METAR NOT AVAILABLE

YRYW Flight Activity (Flightaware)

Listeners: 0 out of 718 total


YRYW 122.7 (Archives)
Raywood, Victoria, Australia

Feed Status: UP
Listen in your browser - HTML5 player(in browser, HTML5)
Click here to listen with your own player(launches your MP3 player)

METAR NOT AVAILABLE

YRYW Flight Activity (Flightaware)

Listeners: 0 out of 718 total


YRYW 122.9 (Archives)
Raywood, Victoria, Australia

Feed Status: UP
Listen in your browser - HTML5 player(in browser, HTML5)
Click here to listen with your own player(launches your MP3 player)

METAR NOT AVAILABLE

YRYW Flight Activity (Flightaware)

Listeners: 0 out of 718 total


YRYW CTAF (Archives)
Raywood, Victoria, Australia

Feed Status: UP
Listen in your browser - HTML5 player(in browser, HTML5)
Click here to listen with your own player(launches your MP3 player)

METAR NOT AVAILABLE

YRYW Flight Activity (Flightaware)

Listeners: 0 out of 718 total

Raywood CTAF: 126.700

YSBK ATIS (Archives)
Bankstown, New South Wales, Australia

Feed Status: UP
Listen in your browser - HTML5 player(in browser, HTML5)
Click here to listen with your own player(launches your MP3 player)

YSBK Flight Activity (Flightaware)

Listeners: 0 out of 718 total

Bankstown ATIS: 120.900

YSBK Tower (Archives)
Bankstown, New South Wales, Australia

Feed Status: UP
Listen in your browser - HTML5 player(in browser, HTML5)
Click here to listen with your own player(launches your MP3 player)

YSBK Flight Activity (Flightaware)

Listeners: 0 out of 718 total

Bankstown Tower: 132.800

NOTE: Feed provided by Bryan Ford

YSCB App/Dep (Archives)
Canberra, Australian Capital Territory, Australia

Feed Status: UP
Listen in your browser - HTML5 player(in browser, HTML5)
Click here to listen with your own player(launches your MP3 player)

YSCB 222330Z AUTO 09005KT 060V150 9999 // BKN009 12/08 Q1030 FM0000 VRB03KT 9999 SCT012 FM0200 32008KT CAVOK

YSCB Flight Activity (Flightaware)

Listeners: 3 out of 718 total

Canberra Approach/Departure: 124.500

YSCB App/Dep/Center (Archives)
Canberra, Australian Capital Territory, Australia

Feed Status: UP
Listen in your browser - HTML5 player(in browser, HTML5)
Click here to listen with your own player(launches your MP3 player)

YSCB 222330Z AUTO 09005KT 060V150 9999 // BKN009 12/08 Q1030 FM0000 VRB03KT 9999 SCT012 FM0200 32008KT CAVOK

YSCB Flight Activity (Flightaware)

Listeners: 0 out of 718 total

Melbourne Center: 125.900

YSCB ATIS (Archives)
Canberra, Australian Capital Territory, Australia

Feed Status: UP
Listen in your browser - HTML5 player(in browser, HTML5)
Click here to listen with your own player(launches your MP3 player)

YSCB 222330Z AUTO 09005KT 060V150 9999 // BKN009 12/08 Q1030 FM0000 VRB03KT 9999 SCT012 FM0200 32008KT CAVOK

YSCB Flight Activity (Flightaware)

Listeners: 1 out of 718 total

Canberra ATIS: 127.450

YSCB Ground/Tower (Archives)
Canberra, Australian Capital Territory, Australia

Feed Status: UP
Listen in your browser - HTML5 player(in browser, HTML5)
Click here to listen with your own player(launches your MP3 player)

YSCB 222330Z AUTO 09005KT 060V150 9999 // BKN009 12/08 Q1030 FM0000 VRB03KT 9999 SCT012 FM0200 32008KT CAVOK

YSCB Flight Activity (Flightaware)

Listeners: 1 out of 718 total

Canberra Ground: 121.700
Canberra Tower: 118.700

YSCB Melbourne Center (Archives)
Canberra, Australian Capital Territory, Australia

Feed Status: UP
Listen in your browser - HTML5 player(in browser, HTML5)
Click here to listen with your own player(launches your MP3 player)

YSCB 222330Z AUTO 09005KT 060V150 9999 // BKN009 12/08 Q1030 FM0000 VRB03KT 9999 SCT012 FM0200 32008KT CAVOK

YSCB Flight Activity (Flightaware)

Listeners: 0 out of 718 total

Melbourne Center: 128.400

YSCN Tower/CTAF (Archives)
Camden, New South Wales, Australia

Feed Status: UP
Listen in your browser - HTML5 player(in browser, HTML5)
Click here to listen with your own player(launches your MP3 player)

YSCN Flight Activity (Flightaware)

Listeners: 1 out of 718 total

Camden Tower/CTAF: 120.100

YSNW Gnd/CTAF/App/Center (Archives)
Nowra, New South Wales, Australia

Feed Status: UP
Listen in your browser - HTML5 player(in browser, HTML5)
Click here to listen with your own player(launches your MP3 player)

YSNW 222300Z 30008KT CAVOK 17/13 Q1028 NOSIG

YSNW Flight Activity (Flightaware)

Listeners: 0 out of 718 total

Enroute: 132.300
Nowra Approach: 123.500
Nowra CTAF: 118.850
Nowra Ground: 135.850

Australia - ATC Satellite Feed (Archives)
Sydney, New South Wales, Australia

Feed Status: UP
Listen in your browser - HTML5 player(in browser, HTML5)
Click here to listen with your own player(launches your MP3 player)


Listeners: 5 out of 718 total

Brisbane Center: 123.400
Brisbane Center: 128.600
Melbourne Center: 133.500
Melbourne Center: 118.500
Sydney Departures: 118.400

YSSY Director (Archives)
Sydney, New South Wales, Australia

Feed Status: UP
Listen in your browser - HTML5 player(in browser, HTML5)
Click here to listen with your own player(launches your MP3 player)

YSSY 222300Z 31007KT 9999 FEW012 SCT098 18/14 Q1028

YSSY Flight Activity (Flightaware)

Listeners: 1 out of 718 total

Sydney Director (East): 125.300
Sydney Director (West): 126.100

Note: Director provides radar vectoring from late downwind until established on final approach.

YSSY Tower (Archives)
Sydney, New South Wales, Australia

Feed Status: UP
Listen in your browser - HTML5 player(in browser, HTML5)
Click here to listen with your own player(launches your MP3 player)

YSSY 222300Z 31007KT 9999 FEW012 SCT098 18/14 Q1028

YSSY Flight Activity (Flightaware)

Listeners: 0 out of 718 total

Sydney Tower (Rwy 16L/34R): 124.700
Sydney Tower (Rwy 16R/34L, Rwy 07/25): 120.500

ZBAA Tower
Beijing, China

Feed Status: DOWN
Offline since: 2019-05-22 13:44:03 UTC

ZBAA 222330Z VRB01MPS CAVOK 25/11 Q1005 NOSIG

Beijing Tower (Rwy 01/19): 118.600

ZGKL App/Control
Guilin, China

Feed Status: DOWN
Offline since: 2019-05-17 04:55:02 UTC

ZGKL 222300Z 00000MPS 2500 BR NSC 19/18 Q1012 TEMPO FM0100 5000

Guilin Approach: 120.850
Guilin Control: 133.600

ZHNY Tower (Archives)
Nanyang, China

Feed Status: UP
Listen in your browser - HTML5 player(in browser, HTML5)
Click here to listen with your own player(launches your MP3 player)


Listeners: 0 out of 718 total

Nanyang Tower: 118.500

ZYCY Tower (Archives)
Chaoyang, China

Feed Status: UP
Listen in your browser - HTML5 player(in browser, HTML5)
Click here to listen with your own player(launches your MP3 player)

ZYCY 140700Z 25002MPS CAVOK 29/16 Q1006 NOSIG


Listeners: 1 out of 718 total

Chaoyang Tower: 118.350